GFSSW_925_spd_000.txt.gz
Wind_Speed
8 9 10 10 11 13 13 14 15 14 15 15 16 14 12 13 12 13 14 16 23 11 9 11 13 13 6 2 2 3 3 2 5 3 4 7 7 5 4 4 2 5 2 4 14
8 9 11 12 12 13 14 15 14 15 15 15 14 13 11 13 13 18 15 23 21 17 4 6 7 7 2 4 2 4 4 7 6 2 5 8 6 7 7 9 2 3 4 6 24
9 9 12 13 15 15 14 14 14 15 15 15 14 13 12 9 7 9 25 28 28 21 16 4 4 5 4 4 4 5 6 5 8 9 6 6 8 3 4 6 5 5 5 5 7
10 10 12 13 15 15 14 15 15 15 15 16 16 14 13 11 8 4 22 34 30 24 14 11 5 5 6 6 5 3 8 6 8 7 4 5 4 7 5 8 5 9 6 8 8
12 11 9 11 12 13 14 14 15 15 15 15 15 15 13 10 11 9 4 31 36 24 19 13 8 6 6 5 3 4 6 7 12 10 7 7 7 8 6 12 6 9 8 13 10
13 12 11 12 12 12 12 13 15 16 15 15 16 17 10 15 24 20 11 25 31 26 23 16 7 7 6 5 6 5 5 7 7 9 5 5 8 2 7 7 9 5 10 9 10
11 12 12 13 14 13 12 13 14 16 14 15 17 18 12 15 8 20 15 16 28 27 13 19 8 6 5 3 4 5 6 7 9 6 6 2 8 9 11 5 9 8 9 9 12
11 12 13 13 12 14 14 13 14 15 14 16 19 18 6 25 30 14 11 15 22 22 19 21 6 2 2 1 5 2 2 2 5 4 7 8 9 13 9 5 11 10 6 6 5
13 14 14 17 18 15 13 13 14 16 18 16 12 10 5 9 13 29 20 8 16 21 20 10 5 2 2 3 3 3 3 5 9 7 3 6 7 11 2 6 7 3 5 5 6
18 19 16 15 15 15 14 12 12 13 15 12 6 7 6 7 12 14 26 19 7 14 14 6 2 3 2 4 6 5 4 5 6 4 7 6 11 9 5 4 3 7 6 6 7
18 19 17 12 6 6 13 6 5 2 7 4 7 5 3 10 16 17 21 21 16 12 14 11 5 10 10 10 5 4 3 4 8 9 8 8 6 11 3 5 8 6 6 6 5
18 20 17 11 4 12 15 4 4 7 7 3 2 12 4 11 7 4 21 14 18 20 18 7 17 13 9 6 5 5 6 9 9 4 1 1 8 7 3 4 5 8 6 5 4
18 18 13 8 5 9 13 13 11 18 5 3 4 9 4 6 6 11 16 11 23 22 23 8 10 12 9 5 8 6 8 5 6 6 4 0 6 2 2 3 4 3 4 4 6
16 15 10 5 4 5 4 11 12 3 4 3 6 5 4 6 5 3 3 10 9 22 17 5 4 16 11 11 8 8 8 8 3 2 3 2 4 3 4 5 3 5 6 6 7
15 13 4 10 1 0 8 8 6 3 3 6 5 5 7 3 11 2 2 4 21 20 6 8 13 16 13 10 9 10 6 3 0 1 3 2 1 6 6 6 7 7 7 6 6
14 9 3 8 6 5 6 5 1 3 4 6 7 11 13 6 3 4 2 1 6 8 4 2 7 9 9 5 7 6 4 7 4 2 2 7 7 5 8 11 6 4 6 8 7
17 9 14 12 5 18 13 4 3 1 4 7 7 11 12 6 6 6 3 7 7 12 6 5 2 2 5 5 3 5 6 1 1 1 6 1 3 8 8 8 15 11 9 8 7
23 15 20 25 18 21 14 4 3 4 2 5 13 13 4 14 6 12 5 9 3 10 8 7 9 8 5 6 7 6 7 5 6 4 4 1 6 6 5 3 9 9 9 8 7
21 3 8 20 17 24 3 3 2 2 5 10 14 5 4 7 5 7 2 6 4 6 6 6 3 2 2 3 6 5 4 4 2 2 2 3 6 2 7 8 10 10 8 8 7
5 3 4 13 28 12 3 4 3 5 11 6 5 5 6 14 10 8 9 5 7 8 3 5 5 1 2 3 2 4 4 2 2 3 4 4 4 4 2 7 8 8 9 7 6
3 0 4 29 21 2 2 3 6 12 5 4 6 10 15 11 10 8 5 3 1 5 4 6 4 1 3 4 7 2 1 2 3 4 4 1 5 5 8 8 11 9 8 9 8
1 0 21 30 2 1 3 4 4 4 6 4 17 23 9 7 5 3 5 2 3 4 6 2 5 4 3 1 1 3 6 5 4 3 1 3 5 3 1 7 8 10 8 4 6
2 1 15 7 2 2 2 4 2 4 3 7 4 1 4 3 5 3 4 1 5 3 6 5 2 4 3 4 2 4 4 4 4 3 5 5 5 4 5 6 2 6 5 7 7
1 1 1 2 1 6 4 3 4 2 6 5 4 4 3 6 7 4 3 3 2 2 2 3 3 5 7 4 5 5 5 5 5 4 4 5 2 1 4 5 4 5 8 7 7
1 2 2 2 2 3 2 2 3 4 5 4 5 3 5 4 3 4 2 3 4 2 3 3 4 2 2 3 3 4 6 8 7 4 6 1 5 4 6 7 7 7 6 9 8
3 2 3 2 1 4 4 1 3 3 3 4 7 3 7 5 1 5 5 2 2 3 3 3 2 2 2 4 3 3 4 6 5 4 6 2 10 4 6 3 1 2 8 9 9
1 1 3 4 2 3 2 5 4 6 5 6 10 13 12 1 4 4 4 7 4 4 2 3 3 2 2 3 5 5 5 5 4 4 5 4 5 4 5 5 4 4 7 9 7

GFSSW_925_spd_003.txt.gz
Wind_Speed
8 9 9 9 10 10 12 13 15 16 18 16 14 15 12 11 11 11 10 15 22 6 5 16 16 10 3 2 2 4 2 3 5 3 5 5 7 6 5 4 5 1 2 5 6
9 9 10 11 12 12 13 14 14 15 14 16 14 14 13 11 12 16 18 19 20 21 6 13 7 7 2 3 2 4 4 7 6 3 5 7 4 6 6 8 5 4 2 4 12
10 10 11 12 13 15 14 14 15 16 17 15 15 14 12 7 7 7 24 28 25 22 17 2 7 8 5 3 4 5 6 5 6 9 6 4 7 4 4 6 5 6 6 3 6
8 9 10 11 12 13 14 16 15 15 16 16 17 14 12 9 7 3 14 29 30 23 19 10 3 8 6 6 4 3 8 6 5 3 3 6 4 7 7 11 8 8 7 5 9
9 10 9 9 9 11 13 16 16 15 15 16 17 15 10 8 10 8 10 17 31 25 21 9 5 6 7 6 3 4 5 5 9 9 7 6 8 8 8 12 8 9 5 8 10
11 11 10 11 10 11 13 14 16 16 16 15 16 16 7 17 18 30 19 6 28 28 22 16 8 6 5 5 8 6 6 9 6 10 5 6 9 2 6 7 9 6 10 9 9
10 12 13 11 12 13 13 14 15 16 17 17 16 16 9 17 9 7 24 14 25 25 16 20 15 7 6 3 6 3 4 7 8 8 8 2 10 9 11 5 11 11 8 7 6
11 12 13 15 14 14 15 14 15 15 15 17 15 15 7 17 26 16 3 9 14 22 20 25 15 5 4 2 4 4 2 3 4 3 5 9 14 13 11 3 10 5 5 7 6
12 14 17 18 19 19 16 15 15 14 15 14 10 11 6 8 15 29 18 5 12 20 12 11 8 4 2 4 2 1 3 5 8 4 1 4 7 14 0 5 8 4 6 6 6
17 16 17 16 16 21 17 13 10 9 10 7 8 6 5 11 7 14 22 16 3 9 6 8 4 5 3 4 9 5 3 5 5 4 1 3 12 14 2 3 4 5 6 6 7
17 18 18 17 12 14 15 7 2 4 8 7 8 6 5 13 14 16 18 13 3 11 17 10 7 15 12 11 3 4 4 3 5 6 5 8 10 15 6 3 5 7 6 6 6
18 17 16 12 7 10 23 4 6 2 5 9 5 18 10 15 7 13 25 10 8 20 17 7 16 15 7 4 5 3 2 5 8 4 4 3 9 10 4 4 5 8 6 5 5
16 16 15 8 4 18 19 16 15 14 4 5 7 11 7 7 6 16 21 8 10 19 22 13 10 9 14 7 7 4 4 4 6 8 4 5 7 5 2 2 3 3 4 5 6
13 12 10 4 4 12 12 22 20 13 3 7 6 4 8 7 6 12 20 10 6 23 20 10 8 12 10 9 10 11 8 3 6 4 3 3 5 5 4 4 4 5 5 6 6
13 13 9 12 2 1 8 25 17 5 5 8 5 6 7 7 12 8 5 8 19 17 8 6 9 14 13 7 8 8 6 6 5 4 3 2 2 6 3 7 8 7 6 6 6
14 13 12 10 9 7 13 15 8 5 4 7 6 6 8 11 6 5 6 1 7 13 3 5 6 12 14 5 10 3 4 5 3 2 2 7 7 5 5 11 5 4 6 7 7
17 14 15 7 4 14 16 4 4 4 6 9 7 8 10 8 10 9 10 10 12 19 13 3 6 5 6 6 4 5 5 1 2 1 5 1 3 9 4 7 11 11 9 8 7
19 18 17 22 12 19 11 5 6 3 5 6 8 14 3 11 5 5 3 17 10 7 10 5 7 10 5 8 8 8 8 5 6 4 4 4 6 5 6 7 8 10 9 7 7
24 12 7 20 19 25 4 3 1 3 6 10 14 8 7 8 5 5 2 9 12 13 7 5 3 3 2 4 9 5 4 5 3 1 1 4 7 3 6 5 9 11 9 8 7
5 4 3 7 29 15 3 5 3 6 12 14 7 7 5 9 6 6 0 1 4 7 2 6 5 2 2 4 4 6 7 3 2 3 4 4 5 5 2 3 5 9 10 8 6
4 1 4 26 21 2 2 2 4 14 5 7 6 5 10 12 8 6 3 7 4 5 5 5 4 1 4 4 7 3 2 5 4 4 3 2 6 5 5 8 12 9 9 7 7
2 0 15 22 2 1 2 2 9 9 2 4 3 8 6 7 6 6 6 4 5 8 7 2 5 5 2 0 3 2 7 6 4 4 2 3 5 4 4 8 7 7 4 5 6
1 2 9 5 1 2 2 4 1 3 5 4 5 6 4 6 5 2 5 1 3 5 7 6 1 4 3 4 3 4 5 4 4 3 5 5 5 3 4 7 3 5 8 8 8
1 2 1 2 3 3 6 2 4 2 2 5 3 5 4 3 3 4 3 3 2 3 5 6 3 6 8 5 5 5 5 5 6 4 4 6 4 2 6 5 1 2 2 6 7
1 3 2 4 3 3 3 6 3 3 3 5 5 6 4 4 3 5 3 4 3 3 3 3 4 3 3 4 4 4 6 9 7 5 6 3 6 2 1 5 5 6 4 8 8
1 0 2 1 2 4 3 1 3 2 2 1 4 1 1 4 3 5 6 2 3 3 2 3 2 2 1 4 4 1 2 6 3 3 3 3 4 3 3 1 2 3 4 6 6
2 1 3 3 1 2 3 5 6 6 5 2 13 7 5 6 4 5 6 7 5 5 3 3 5 3 2 2 3 4 8 7 4 4 6 5 3 2 3 4 1 2 6 7 7

GFSSW_925_spd_006.txt.gz
Wind_Speed
10 10 9 9 9 10 10 10 11 13 15 15 15 15 13 12 10 10 10 14 18 7 6 9 12 10 2 0 3 4 3 2 4 5 5 3 7 4 3 5 5 3 3 5 11
12 12 11 10 10 11 11 11 12 12 14 16 15 13 12 10 10 13 20 20 21 22 12 5 5 8 2 2 2 4 4 8 6 4 4 5 2 6 6 7 5 3 4 5 4
10 11 11 11 11 11 12 12 12 12 13 14 13 14 13 8 4 8 23 29 24 22 16 7 5 7 5 3 4 5 6 5 5 7 3 4 7 3 3 7 6 8 8 5 2
11 12 10 10 10 11 11 10 12 13 13 13 14 14 12 9 7 4 4 21 29 21 16 6 4 8 6 6 5 3 7 5 4 2 2 4 5 7 7 10 9 9 6 5 7
11 12 11 10 9 9 9 10 10 12 13 14 14 13 9 6 10 9 4 8 21 24 19 9 6 6 7 6 4 4 4 3 7 9 7 4 9 8 10 13 7 10 9 10 8
13 12 11 9 10 10 10 10 10 13 14 14 14 14 4 14 12 27 25 18 5 24 20 13 7 6 5 6 10 6 7 8 5 10 5 6 9 4 6 5 9 8 11 8 7
14 13 12 11 11 11 12 11 10 11 13 14 14 13 8 17 5 2 8 21 15 21 16 21 18 6 6 3 5 3 3 7 6 5 7 6 12 12 12 2 9 10 10 5 6
14 13 12 13 14 15 13 13 11 11 11 14 14 11 7 1 26 19 9 6 12 18 25 16 27 3 3 2 4 6 2 3 4 2 4 6 17 11 8 5 7 8 7 5 6
13 13 13 16 14 16 16 13 14 12 9 9 8 6 6 5 16 21 20 8 6 18 15 17 5 5 4 4 4 3 4 6 7 5 3 5 8 8 2 4 5 4 3 4 6
15 16 15 16 15 15 20 13 8 7 6 4 1 3 7 4 7 12 22 20 4 10 9 10 7 6 4 4 7 6 4 3 5 2 2 5 13 17 5 2 4 4 3 4 7
17 19 17 17 15 17 17 9 4 2 7 8 9 3 2 15 11 12 15 11 5 5 12 13 9 12 13 13 3 6 4 6 4 4 2 7 8 15 8 5 4 5 4 4 7
17 20 20 15 14 10 23 5 7 4 5 13 4 15 13 1 4 8 22 9 6 9 15 8 16 14 7 8 5 3 3 5 6 1 3 7 10 12 7 6 4 8 6 4 5
14 17 18 16 10 13 22 19 13 5 1 6 9 4 5 10 7 13 19 6 5 13 22 10 7 14 12 6 10 3 5 4 5 7 3 6 8 6 2 1 6 5 4 4 6
13 14 15 12 5 8 9 21 10 11 4 6 9 7 8 2 5 18 22 9 5 18 20 6 5 15 15 10 7 9 6 3 3 4 3 5 6 6 5 4 5 7 6 6 6
14 13 13 9 5 6 5 26 20 5 2 11 8 7 12 8 5 15 24 9 9 10 8 6 14 11 15 16 10 4 6 6 3 3 2 1 2 7 1 5 6 7 7 6 6
15 13 9 8 16 4 13 24 13 3 6 10 8 10 10 11 4 10 9 0 3 9 2 4 5 9 7 4 11 6 5 2 3 2 2 6 7 5 4 6 4 4 6 7 7
16 15 10 9 5 14 25 7 3 4 4 7 7 10 12 7 10 11 17 16 9 12 15 1 3 3 7 6 3 5 7 2 1 1 6 1 2 8 4 5 8 12 10 8 7
17 15 14 19 18 23 7 2 6 3 9 5 7 12 7 8 9 14 10 8 11 3 13 7 6 8 5 6 6 7 8 5 6 4 4 3 6 5 2 6 7 9 10 8 7
18 13 9 21 30 28 5 3 4 5 7 11 12 7 5 10 2 10 19 11 12 12 9 9 5 2 4 5 12 6 9 4 5 2 1 3 7 8 4 6 3 10 11 9 8
5 3 4 15 34 20 3 4 7 6 12 14 7 6 9 14 7 5 5 10 15 10 6 7 5 1 2 6 3 7 8 2 2 3 4 4 5 5 5 2 3 8 10 8 6
4 1 5 25 25 6 3 6 3 11 10 7 6 6 7 7 5 4 8 3 8 7 4 6 4 2 6 5 8 2 4 4 4 3 4 1 5 5 5 4 8 7 6 8 8
2 1 12 25 5 3 7 3 7 12 0 3 4 5 10 8 5 4 7 5 8 7 8 3 6 6 2 1 4 4 7 6 5 4 1 3 6 2 6 5 7 7 6 7 7
2 2 10 7 3 2 2 2 3 4 1 4 4 5 9 6 5 4 5 3 7 6 8 7 2 5 2 1 2 4 4 4 5 3 6 5 5 3 6 6 6 8 8 8 6
2 2 2 3 2 2 3 4 3 1 3 4 5 6 7 3 3 6 6 0 2 3 5 7 3 6 9 4 6 5 5 5 6 4 5 6 4 3 3 5 4 4 4 7 7
2 3 3 3 4 5 4 7 3 5 7 2 3 12 5 5 4 5 3 5 3 5 3 4 4 3 3 4 4 7 9 10 9 7 7 5 8 3 4 4 3 2 2 5 6
3 3 1 1 0 5 4 5 4 3 4 1 7 4 4 4 3 8 7 4 5 3 2 3 2 3 2 3 2 2 4 8 4 4 2 5 4 3 2 3 2 2 2 4 6
2 1 2 0 2 3 3 5 6 5 2 3 7 7 10 1 0 5 6 7 6 7 3 5 5 3 3 1 2 4 8 8 5 4 7 7 7 4 3 5 3 3 2 3 5

GFSSW_925_spd_009.txt.gz
Wind_Speed
9 8 8 8 8 8 7 7 8 8 10 13 14 12 12 11 9 9 7 11 12 11 11 17 7 14 4 1 2 2 2 4 4 5 4 2 4 2 2 4 5 3 3 4 11
9 8 9 9 9 9 8 8 8 9 10 11 12 12 9 10 10 14 18 19 17 18 10 7 3 10 2 3 2 3 4 9 5 4 4 3 3 3 3 4 4 5 4 5 8
9 8 8 9 8 10 10 9 9 9 9 10 9 11 9 9 3 7 15 24 25 20 16 11 7 6 6 3 4 5 5 5 4 6 4 4 4 2 2 5 5 10 11 9 3
9 8 8 10 9 9 9 9 8 10 10 11 11 11 10 9 8 6 5 10 22 22 17 8 7 6 6 7 4 3 6 5 3 3 2 4 3 6 7 11 7 8 7 7 10
10 8 9 9 11 9 8 7 9 9 10 10 11 11 10 5 9 9 2 7 2 22 19 14 8 5 10 9 5 4 3 4 7 6 6 3 11 9 10 15 12 8 6 10 9
11 9 9 9 10 11 10 9 8 8 10 11 11 13 6 15 8 21 24 19 8 15 20 18 8 6 6 6 14 7 10 12 4 8 4 6 9 4 18 6 9 4 9 11 8
11 11 10 9 11 12 10 10 9 8 9 10 12 15 8 14 5 4 7 11 18 9 17 22 17 8 8 5 4 5 2 4 5 4 6 5 8 9 17 5 7 7 6 7 7
12 11 11 10 12 13 13 11 10 9 8 8 9 12 7 4 20 23 6 8 9 16 20 22 18 9 4 5 4 8 3 9 3 3 3 5 10 7 8 2 4 4 3 6 7
12 13 13 12 15 14 14 14 11 9 7 4 6 6 5 8 14 23 22 9 7 11 18 12 10 6 5 6 4 4 5 6 7 6 5 6 7 4 2 4 5 2 5 6 6
12 15 15 14 15 16 13 14 8 7 6 8 4 3 3 5 7 9 16 21 5 8 8 7 8 6 7 7 9 7 7 4 5 2 2 4 12 14 8 7 6 2 4 6 6
13 17 18 17 18 16 14 8 6 3 8 8 7 3 1 16 8 9 11 14 5 9 10 15 10 11 15 14 4 6 6 9 2 2 1 4 6 14 6 4 5 4 7 7 6
13 15 16 16 18 15 19 5 8 5 4 13 8 16 9 3 4 4 16 11 7 6 9 9 17 15 11 10 6 5 4 4 3 1 2 6 14 13 4 4 4 10 9 9 7
13 13 15 15 13 15 14 16 15 7 1 4 16 6 5 13 5 5 13 10 9 12 18 19 7 14 13 9 9 4 5 4 4 3 1 5 6 5 2 1 4 5 8 8 10
12 12 13 12 7 5 4 18 19 10 1 6 11 7 7 5 5 12 22 12 6 15 17 11 11 16 15 15 10 10 4 3 3 4 2 4 6 5 5 2 4 6 8 10 10
13 13 11 9 2 4 6 26 21 8 4 10 9 3 10 10 4 7 25 10 9 11 8 6 11 21 17 14 10 4 6 3 1 3 1 1 2 6 2 3 6 8 7 8 9
13 12 9 9 9 9 8 29 14 4 6 9 8 9 13 5 3 13 14 10 3 7 13 1 4 12 8 9 9 9 7 5 4 2 3 5 6 5 3 4 5 4 7 9 10
12 12 13 12 4 13 27 13 3 4 3 6 5 9 14 8 7 11 17 16 5 10 19 3 5 4 5 10 2 4 6 2 1 4 5 2 1 8 3 4 7 14 13 12 11
13 13 15 19 11 31 16 2 7 4 6 3 5 11 9 10 7 11 16 11 11 4 12 5 5 8 9 6 7 6 6 4 5 4 2 3 5 5 2 3 4 6 11 11 11
11 13 14 22 21 28 4 4 4 4 7 10 9 11 5 9 6 9 11 11 9 7 9 10 3 2 6 5 10 4 5 3 4 2 1 3 5 7 1 3 2 10 13 13 11
5 3 5 13 32 19 2 4 4 6 11 13 5 6 8 12 2 10 11 9 11 14 4 6 5 2 3 6 4 7 8 3 1 4 3 3 4 4 4 4 3 7 13 10 9
5 2 4 23 28 4 3 5 4 6 13 10 5 6 8 7 5 7 18 10 11 18 4 6 4 0 6 5 9 4 2 2 3 2 3 1 4 4 5 3 6 10 9 11 11
2 2 6 36 5 3 3 4 8 16 11 9 7 5 8 8 8 7 13 5 13 10 8 7 5 4 3 0 3 5 8 9 4 3 1 2 5 1 5 6 7 9 9 8 8
2 2 11 6 3 7 6 8 7 6 5 6 4 4 7 8 7 5 9 7 14 13 8 6 1 5 4 1 4 4 4 5 4 3 6 5 4 2 2 3 3 11 8 8 7
1 3 2 4 2 3 3 4 5 3 1 1 3 5 8 9 3 5 5 4 8 9 2 4 3 5 7 4 6 5 4 4 7 4 5 6 4 3 1 5 5 5 6 8 8
3 4 4 5 6 8 3 6 3 5 3 3 4 8 8 4 4 5 4 4 3 8 3 2 3 3 2 2 6 7 9 11 9 10 9 7 8 7 6 6 6 5 5 6 7
2 2 0 1 2 8 5 4 12 2 4 5 9 15 5 7 6 10 9 6 6 1 4 3 3 3 2 2 4 4 6 13 10 4 6 5 7 5 3 5 4 5 5 5 6
3 3 2 2 2 4 5 5 8 7 2 2 10 6 4 2 4 5 5 7 6 7 4 3 4 2 3 1 4 3 10 10 7 5 12 12 10 7 4 6 5 5 5 5 5

GFSSW_925_spd_012.txt.gz
Wind_Speed
6 7 6 6 6 6 5 5 5 5 5 10 13 13 12 11 10 9 11 8 8 13 10 9 6 12 9 5 4 2 7 12 14 9 3 2 4 3 5 10 6 5 5 7 6
6 5 5 5 5 5 6 5 5 6 7 7 9 11 11 10 11 16 16 16 15 12 10 8 10 15 10 8 6 10 10 16 9 9 7 3 9 10 8 10 12 8 6 5 8
7 6 5 5 4 4 5 6 6 7 8 9 10 10 10 8 5 8 19 24 21 13 13 9 5 9 19 12 12 11 17 12 10 9 6 7 11 5 11 11 7 12 12 12 14
9 6 5 4 4 4 4 4 6 7 8 8 9 9 11 10 6 5 8 2 14 17 15 13 9 7 14 17 16 13 15 13 11 7 7 11 9 13 15 20 17 15 14 13 10
11 8 6 5 5 5 4 4 5 7 8 9 9 9 10 7 11 6 5 8 3 14 21 16 15 15 18 19 17 19 17 13 13 12 12 11 14 18 20 23 19 18 13 10 11
12 10 7 6 7 5 5 7 7 7 9 11 10 12 9 13 9 13 15 11 2 9 19 20 10 18 13 20 23 12 18 16 14 14 12 14 18 5 20 17 17 15 13 9 7
14 12 9 7 7 8 6 7 8 8 8 10 9 13 10 13 5 5 7 13 14 8 18 23 27 11 13 17 16 23 12 13 15 16 15 9 18 19 21 13 15 10 7 2 3
15 14 11 9 8 8 8 9 10 10 7 7 7 10 7 7 21 15 7 4 10 17 15 19 22 12 6 10 12 18 17 17 18 15 12 9 18 11 5 2 2 2 1 2 5
16 16 14 11 10 11 10 11 13 12 9 7 7 7 7 4 17 19 23 14 3 12 16 9 14 6 11 11 13 16 15 22 18 13 13 13 12 7 6 12 13 9 3 4 5
16 17 16 15 12 12 11 7 14 10 9 8 4 5 9 8 9 15 15 18 12 10 10 12 8 8 9 11 18 18 16 12 17 9 11 14 16 14 13 10 10 6 6 6 6
16 17 16 16 16 14 9 5 6 4 11 9 9 6 2 13 6 10 10 14 12 7 12 20 11 20 24 21 16 19 18 15 13 6 6 13 16 14 16 10 11 8 9 8 8
17 17 15 15 15 15 13 5 6 3 5 19 7 20 3 7 6 11 12 13 14 16 18 17 21 24 17 22 20 17 15 15 10 5 6 13 17 17 17 11 8 10 12 12 11
16 15 14 13 12 14 18 11 14 11 2 8 21 13 7 14 6 10 17 19 16 18 16 21 20 26 13 25 21 15 15 14 9 4 7 9 18 11 5 5 3 7 11 13 14
15 15 13 10 9 8 5 15 20 15 2 6 10 10 14 7 8 22 23 15 11 19 14 20 17 20 18 19 22 16 11 7 7 2 5 3 5 9 8 6 7 11 13 13 14
13 15 14 13 3 3 10 20 20 6 5 11 9 7 10 16 4 16 23 17 16 8 6 13 26 16 19 17 23 15 11 10 4 6 4 9 6 5 3 7 9 13 15 14 13
12 15 13 11 11 9 13 27 10 4 7 8 8 11 13 19 12 7 13 13 4 11 16 12 3 17 15 16 20 13 12 7 3 1 7 11 9 5 4 2 9 14 15 15 14
12 14 16 12 5 16 32 9 3 6 4 6 5 9 14 10 16 9 18 22 6 6 7 13 12 9 14 14 4 15 15 3 5 4 6 3 7 11 4 2 9 17 17 16 15
13 14 17 22 16 14 16 3 8 5 5 4 7 14 11 12 13 13 16 17 14 14 12 7 6 14 13 17 7 12 16 4 5 6 5 3 6 1 5 2 5 13 17 16 16
11 7 8 18 18 26 6 5 4 4 6 9 14 12 10 14 5 16 17 21 5 14 7 5 1 3 13 6 15 5 6 2 2 1 3 5 4 4 2 2 5 12 17 17 16
6 4 10 16 26 15 2 5 4 6 6 15 9 12 14 15 5 14 17 16 10 15 9 12 3 5 6 8 5 8 12 5 3 5 5 4 4 2 2 0 5 14 19 18 16
5 2 3 20 23 4 4 5 4 10 13 16 8 11 11 14 8 15 17 7 19 13 14 7 6 2 12 6 14 10 7 4 3 3 3 3 3 3 4 5 5 12 18 17 17
5 3 22 35 4 3 3 5 4 6 16 16 6 8 13 14 8 4 15 6 22 13 10 7 3 8 5 3 7 12 10 11 6 5 1 4 2 3 4 5 5 10 16 16 16
3 2 18 20 4 5 6 7 8 12 17 10 11 10 11 12 9 14 13 17 21 17 12 10 6 8 5 3 2 9 11 16 10 2 11 8 3 1 2 2 4 11 15 15 15
2 3 4 3 3 4 8 10 8 16 16 15 9 9 15 12 10 14 11 10 19 20 11 5 5 12 11 6 11 14 20 19 18 11 9 11 7 6 4 4 7 11 14 14 14
4 4 4 5 8 13 7 3 11 9 7 4 6 11 15 8 11 9 8 7 14 22 10 4 3 6 3 2 15 18 19 20 20 21 13 15 18 16 9 9 10 12 13 14 13
3 3 3 3 9 12 14 9 11 6 4 4 5 14 16 11 11 13 9 12 11 17 18 5 4 3 3 3 10 14 20 22 23 21 23 18 18 5 3 9 10 11 12 13 13
4 2 3 2 4 4 5 8 14 7 6 7 11 14 14 8 11 15 13 11 8 18 20 13 4 3 3 3 5 8 19 20 19 21 22 19 21 10 8 10 11 10 9 9 9

GFSSW_925_spd_015.txt.gz
Wind_Speed
8 6 6 6 7 6 5 5 4 4 4 10 11 13 11 11 9 9 12 7 3 6 8 9 13 17 16 12 11 8 11 14 19 16 12 3 8 5 5 12 11 9 7 5 5
9 8 6 6 7 7 5 4 4 5 6 6 6 9 11 9 13 17 15 13 13 9 10 9 9 16 15 16 12 12 13 21 16 12 12 10 7 9 9 13 12 10 8 7 4
10 10 8 7 7 7 6 5 4 5 6 6 7 7 8 6 12 11 18 23 20 12 11 11 8 14 20 19 21 18 20 18 18 11 13 13 12 15 11 15 14 8 10 12 13
10 11 9 7 7 8 6 6 5 4 6 7 7 6 8 11 9 4 2 6 17 18 15 13 11 9 11 23 22 22 21 22 20 12 11 15 14 16 16 17 15 14 16 15 12
12 12 10 8 9 9 8 6 5 5 4 6 7 8 8 8 14 6 3 4 2 14 20 15 17 14 18 17 21 23 23 20 20 17 14 15 18 18 21 19 19 17 15 15 13
13 12 11 10 10 11 9 8 6 4 5 6 9 10 11 15 14 20 12 9 4 8 17 19 13 16 15 21 20 12 24 22 18 18 18 17 19 18 19 18 19 17 16 13 12
15 13 13 11 11 12 11 9 7 4 3 6 8 10 14 15 7 10 16 18 16 10 11 19 21 14 10 18 24 21 21 19 24 19 21 18 22 24 21 20 16 16 15 7 6
15 15 14 13 12 12 11 10 8 6 5 5 6 10 7 14 24 14 7 7 12 16 14 12 20 18 7 14 20 24 18 18 18 20 20 14 22 16 11 6 9 5 4 4 4
16 15 15 15 12 12 12 13 11 9 6 5 5 11 10 7 20 23 23 14 7 9 18 14 14 11 8 10 14 15 18 25 21 23 20 19 19 17 18 8 12 11 8 5 4
19 16 17 15 14 13 12 11 8 9 8 6 9 5 14 10 13 16 19 20 15 10 12 16 9 11 13 11 15 21 25 19 23 20 17 20 22 18 16 12 11 11 12 8 7
18 16 16 15 14 16 12 2 4 1 11 10 9 12 3 19 5 8 16 14 16 15 17 21 12 18 27 25 23 22 20 22 21 20 17 17 21 20 18 17 15 11 10 10 9
18 16 16 14 14 16 15 4 7 1 5 21 18 16 15 5 7 12 16 14 18 20 19 18 19 26 28 22 22 23 22 22 14 15 11 14 17 19 17 18 18 13 13 13 11
17 16 15 13 10 12 17 16 12 7 4 7 20 21 18 9 9 12 18 19 21 21 21 24 22 28 28 24 22 26 24 19 16 13 11 13 18 21 19 22 9 11 12 14 14
16 16 14 10 5 15 11 18 17 12 4 6 7 6 14 8 9 27 25 16 16 22 22 18 26 19 27 27 24 19 17 16 15 8 8 9 7 12 14 13 12 12 14 15 14
15 17 15 19 1 4 6 13 18 6 6 10 8 9 10 11 5 17 30 20 20 20 5 11 9 22 26 25 27 12 22 16 12 8 4 12 6 14 11 15 13 14 15 16 15
17 17 17 14 15 7 12 21 9 2 7 7 6 11 8 17 15 2 22 17 14 19 15 19 12 21 22 23 21 9 19 13 7 3 7 13 13 11 12 14 16 14 16 16 16
18 19 23 16 10 19 23 6 2 6 3 5 4 7 12 10 18 10 17 19 11 6 11 9 14 18 13 14 19 13 17 6 5 4 6 5 11 13 10 6 7 16 17 18 16
18 18 25 23 12 24 15 2 9 4 5 3 4 8 7 11 15 20 9 16 21 9 4 9 9 14 17 7 10 12 17 8 7 9 12 7 7 4 8 4 9 14 17 18 17
15 18 14 26 17 29 4 5 5 4 6 7 8 6 7 15 6 15 16 17 18 19 5 8 8 12 13 10 14 7 10 2 3 7 8 8 10 7 5 6 8 15 18 19 18
8 7 6 21 29 17 5 9 5 5 4 7 12 13 13 15 9 13 11 15 17 17 14 4 2 6 3 11 6 8 8 7 3 7 5 8 6 6 10 8 10 14 19 18 17
8 2 4 21 26 3 6 7 7 8 9 9 16 12 14 11 15 11 9 7 22 20 15 2 2 3 5 5 13 6 3 5 3 2 3 6 4 11 5 3 8 13 18 19 18
4 3 18 29 5 2 5 5 4 7 16 11 13 11 14 17 13 16 12 16 17 14 10 11 6 4 5 6 13 10 9 13 6 5 5 4 5 5 4 2 5 12 16 18 17
2 3 15 17 4 5 4 7 7 2 6 9 11 13 12 13 10 12 10 15 12 19 8 9 2 3 6 7 3 5 11 16 13 6 11 7 5 4 5 6 6 11 16 16 17
2 4 3 3 3 5 6 7 7 12 15 16 9 14 14 13 15 16 8 10 12 20 16 6 8 7 6 7 12 9 15 16 15 10 11 11 4 10 6 6 8 11 14 16 16
3 5 6 5 7 13 8 5 5 6 11 17 7 18 16 13 16 7 15 12 13 17 14 5 9 4 3 3 16 17 19 20 19 18 12 12 15 10 6 8 9 13 15 16 16
2 4 5 3 11 14 14 8 13 12 13 7 12 19 18 10 13 10 14 11 9 15 17 12 4 2 3 2 6 13 18 20 22 23 21 19 16 6 2 4 9 12 15 16 15
4 3 3 5 7 7 4 11 12 12 8 6 8 9 15 13 12 3 13 11 3 15 18 7 4 3 3 5 5 9 19 19 19 21 20 21 18 15 6 8 10 10 13 13 13

GFSSW_925_spd_018.txt.gz
Wind_Speed
7 7 8 9 10 10 8 8 7 6 4 4 8 10 9 8 9 9 13 9 4 6 10 11 11 12 16 13 13 6 6 11 15 14 14 6 3 5 4 5 7 8 7 10 10
8 8 8 8 9 9 8 7 7 6 6 4 3 6 7 6 9 17 18 13 11 12 8 11 10 12 12 12 9 10 8 15 12 12 11 8 4 3 5 7 9 6 10 10 8
9 8 8 8 8 8 8 7 6 6 6 5 5 4 5 3 5 9 19 26 20 10 11 14 14 11 11 15 16 17 17 12 17 18 14 5 8 6 7 8 8 9 9 8 5
10 8 8 7 8 7 7 6 6 6 6 5 5 5 6 7 7 3 2 5 12 15 13 15 11 10 6 16 18 19 20 18 18 17 7 5 6 10 10 9 9 10 8 8 9
12 11 9 7 8 8 7 6 6 7 6 6 5 6 5 7 13 3 4 7 2 12 18 14 13 11 14 7 14 21 17 20 16 17 17 8 8 12 13 10 11 13 11 11 9
13 12 11 9 8 8 7 6 6 8 8 8 7 7 6 14 12 16 9 7 4 3 14 18 13 12 15 15 17 8 19 19 19 18 15 16 14 10 11 9 12 10 14 8 9
14 14 13 11 9 8 6 6 6 8 9 8 8 8 11 15 6 8 12 18 15 15 10 13 17 13 7 15 13 16 19 15 22 19 16 11 19 18 13 12 17 13 10 10 6
15 15 15 14 11 10 7 6 7 9 9 7 7 9 7 12 24 20 8 11 15 16 17 16 10 10 14 9 11 7 13 16 19 12 16 12 18 16 13 15 20 12 6 7 7
16 16 14 15 13 11 9 8 9 10 10 7 6 9 8 5 21 19 22 14 10 9 13 15 9 3 8 7 7 10 12 23 14 17 14 18 19 15 18 18 7 7 8 9 8
15 18 15 16 14 11 9 8 9 7 9 7 12 4 9 11 10 18 21 24 15 7 6 10 6 5 7 10 16 13 14 15 16 15 17 20 17 13 13 7 9 10 8 9 10
15 16 16 14 14 13 9 3 0 1 9 10 10 10 2 7 3 11 16 17 15 14 12 12 10 16 22 22 19 16 18 15 17 15 21 21 22 12 11 13 10 9 7 9 10
14 13 14 13 14 12 11 3 4 3 7 17 18 18 25 12 9 12 14 13 15 17 15 13 21 25 14 15 18 20 22 21 11 20 19 21 19 13 11 16 13 11 9 9 12
14 13 14 12 10 10 14 14 9 7 5 7 20 19 16 12 14 13 16 17 16 17 19 18 19 17 17 19 20 24 20 17 15 20 7 7 10 11 11 13 12 9 8 12 16
15 14 13 12 5 12 12 14 17 9 5 5 6 6 12 7 6 18 18 17 11 19 17 15 19 19 17 24 20 23 23 22 20 16 9 10 4 16 23 17 13 9 7 14 14
17 16 17 21 7 7 6 6 9 4 5 8 6 3 4 9 4 10 24 18 18 16 11 9 10 14 18 22 16 20 14 23 24 15 6 6 4 9 12 18 14 9 9 14 14
18 18 19 18 15 4 11 15 6 2 7 5 5 7 7 9 6 6 18 19 12 16 15 12 7 12 20 19 22 17 15 21 23 6 5 11 7 6 7 12 12 9 10 14 14
19 20 25 17 7 19 19 5 2 6 2 4 4 7 12 8 8 7 13 20 9 5 9 14 18 10 14 11 16 25 16 7 6 3 4 16 7 9 4 7 15 14 13 14 13
20 21 27 23 12 29 14 3 8 6 5 4 3 6 8 7 7 12 6 14 18 12 1 8 10 15 19 17 10 24 8 4 5 8 5 8 7 4 6 8 11 12 14 14 13
18 23 13 26 25 29 5 5 6 4 5 6 6 6 7 10 9 15 18 9 10 20 8 3 8 6 12 10 12 7 12 20 8 7 6 5 3 4 8 6 10 13 15 15 13
14 10 7 27 32 18 3 8 6 7 5 3 9 11 10 12 8 11 10 10 18 16 14 3 7 2 9 15 14 8 7 9 4 7 7 6 8 5 9 8 7 13 15 13 12
10 3 8 33 31 4 5 6 6 9 7 8 7 6 13 9 11 10 7 12 14 16 14 6 4 4 6 9 12 7 3 11 4 2 4 5 2 9 9 11 11 11 16 15 13
5 2 18 32 6 2 4 4 5 4 15 12 7 14 14 14 11 11 13 11 15 13 11 9 3 4 1 6 14 11 4 5 1 2 1 3 2 6 8 7 9 9 15 14 12
5 3 19 15 5 4 2 4 6 5 10 8 8 14 12 8 7 13 12 9 15 13 15 11 6 2 4 4 4 9 9 4 8 3 3 3 3 6 7 7 4 9 12 13 12
3 4 2 3 1 3 6 5 6 12 16 8 10 16 14 8 10 5 7 4 10 16 13 10 4 2 2 5 8 7 8 6 8 2 2 2 7 6 7 9 7 9 10 13 13
2 3 5 4 6 8 10 4 5 6 13 14 6 16 12 9 10 6 11 3 9 10 11 3 3 10 20 13 17 16 16 15 10 8 1 4 6 9 10 11 9 7 10 13 13
4 3 3 3 6 15 15 7 9 6 6 6 10 8 15 10 8 11 12 10 6 8 12 10 5 15 9 8 12 11 13 14 11 7 8 9 7 4 6 9 10 10 10 13 13
3 2 1 2 8 6 6 9 9 12 10 17 18 12 10 13 9 4 11 12 10 13 14 5 5 5 3 3 5 1 12 13 11 10 8 12 8 3 6 8 9 10 10 9 9

GFSSW_925_spd_021.txt.gz
Wind_Speed
7 5 4 5 6 6 7 6 6 6 6 5 3 10 10 9 8 6 7 8 3 4 7 10 9 11 7 5 5 1 3 8 10 9 11 7 4 2 3 3 2 4 3 7 18
8 6 5 5 6 6 6 6 6 6 4 4 2 2 5 6 8 12 16 14 10 9 8 6 7 10 3 3 4 5 5 9 4 9 7 13 5 3 2 3 3 5 8 9 14
9 7 7 6 5 4 5 5 4 5 5 4 3 2 2 3 4 8 12 21 19 11 7 7 13 5 3 6 5 5 10 5 5 13 12 8 4 2 2 3 4 6 4 2 8
9 9 7 6 5 4 4 4 3 3 4 3 3 2 3 5 7 3 1 4 9 19 11 4 5 2 2 4 7 10 12 13 13 17 14 6 5 4 5 7 4 8 7 4 8
10 10 9 8 7 5 5 4 3 3 1 3 3 2 4 5 7 3 6 7 5 11 12 8 5 3 4 5 6 14 14 14 16 18 19 11 11 9 6 7 7 10 10 11 9
13 11 11 9 8 7 5 5 4 4 3 3 3 3 2 12 9 16 7 4 4 9 12 12 7 7 6 6 11 9 11 16 19 17 12 16 9 5 6 7 7 11 11 10 10
15 13 12 11 9 7 5 6 4 4 4 4 3 4 5 12 7 3 13 20 12 8 3 10 17 12 5 5 7 7 13 15 17 14 15 12 17 15 10 7 10 16 10 11 5
14 15 13 13 11 8 7 5 5 6 5 4 3 3 6 8 21 23 7 7 8 8 11 16 13 4 6 3 6 5 6 14 7 12 9 12 21 9 8 7 12 14 10 7 8
15 15 14 12 12 10 7 6 6 7 7 5 4 4 7 6 16 21 18 9 8 11 14 13 8 4 2 5 4 4 8 7 10 7 7 9 15 11 9 10 16 10 10 9 7
17 16 16 13 13 11 9 6 6 6 6 6 7 3 6 5 6 14 14 18 6 3 6 5 4 4 0 5 12 13 7 6 7 6 10 14 18 11 9 11 15 11 10 9 8
19 17 17 16 12 11 10 2 2 1 5 8 8 5 3 1 8 10 17 11 8 5 7 6 7 9 12 14 8 5 8 11 6 9 10 18 18 20 15 15 10 9 8 7 8
19 18 16 18 13 12 12 3 2 3 5 16 16 16 19 6 4 6 14 8 10 14 7 6 18 12 8 10 10 13 14 20 15 14 11 14 19 23 17 13 12 10 9 11 8
19 18 17 16 13 13 16 11 3 2 5 6 15 11 14 12 13 8 13 11 11 11 13 17 3 20 14 12 13 15 16 16 15 14 16 10 16 23 15 19 14 11 8 17 18
19 18 19 16 10 13 8 15 15 3 4 3 5 4 5 4 5 19 22 12 9 17 15 14 20 13 15 18 12 16 13 15 17 11 10 3 8 16 17 14 9 12 9 17 12
20 20 24 25 9 11 8 13 14 5 5 7 5 2 1 7 7 7 18 12 17 14 10 8 10 19 20 20 12 18 5 11 12 14 14 19 8 7 8 20 19 17 11 17 17
23 24 27 24 7 12 17 19 8 3 8 6 5 4 3 7 3 1 4 10 2 11 14 15 2 5 14 14 11 2 1 12 8 9 12 20 14 6 8 20 20 13 16 17 15
26 28 32 23 9 23 26 5 3 4 2 5 4 6 8 6 7 7 4 11 6 7 6 6 15 2 3 3 2 5 4 3 6 6 13 10 13 15 5 11 13 16 20 18 17
27 30 34 21 20 30 15 2 6 4 4 4 3 7 6 5 6 8 3 8 16 8 2 4 5 13 12 19 9 13 15 7 7 8 8 10 8 7 19 8 11 19 23 20 18
26 29 19 22 31 32 6 4 7 6 4 5 3 4 5 8 7 9 11 4 5 17 7 5 6 2 8 13 20 10 13 25 6 5 5 5 8 4 2 8 17 18 20 19 17
16 13 10 35 35 21 4 5 4 4 6 4 7 9 6 7 9 9 8 7 7 15 14 2 7 7 14 13 16 13 15 10 5 5 5 9 5 5 6 10 15 18 19 16 16
10 4 17 42 28 5 4 5 5 6 8 8 6 5 7 4 9 4 5 6 13 16 19 8 6 4 1 7 15 9 4 8 3 7 4 5 5 5 12 15 17 17 17 18 18
4 5 23 37 5 3 4 5 4 7 11 9 5 7 5 8 7 5 10 9 10 12 16 10 3 5 9 8 12 10 12 13 7 10 5 4 3 3 9 9 13 14 15 15 16
5 3 24 19 5 4 2 3 6 7 8 8 9 11 12 6 7 9 6 9 9 9 15 9 4 3 4 3 9 10 12 8 9 13 3 5 4 2 7 8 8 14 14 14 15
3 4 3 4 2 6 5 4 4 11 14 13 7 12 10 7 13 4 9 7 18 15 16 12 5 7 4 3 6 7 14 14 13 3 1 1 6 2 5 8 9 14 16 16 17
2 3 3 5 5 6 10 7 5 4 9 9 4 9 9 5 12 9 9 7 12 17 13 7 5 8 13 16 8 8 12 19 15 6 4 4 5 8 10 10 10 13 14 15 16
4 3 2 5 7 12 9 8 9 6 5 6 9 12 13 8 6 6 7 5 6 11 5 9 5 10 10 7 14 9 14 9 6 4 2 3 3 2 4 7 7 14 17 17 15
3 2 2 5 7 7 6 12 13 8 9 16 14 9 7 8 11 3 2 7 3 7 9 8 4 5 3 5 7 2 10 5 4 2 5 2 5 5 6 8 9 10 15 15 14

GFSSW_925_spd_024.txt.gz
Wind_Speed
9 9 7 8 6 5 5 4 4 3 3 4 2 10 11 10 8 10 6 7 2 3 2 6 5 8 3 2 2 1 2 6 9 8 8 4 3 5 5 4 2 2 5 4 10
10 9 8 8 7 5 5 4 3 3 2 3 1 1 4 7 7 12 19 10 10 9 4 2 3 9 2 3 3 5 7 10 6 10 9 2 4 7 3 1 2 2 4 9 14
11 10 9 8 7 5 4 4 2 2 2 2 2 1 2 3 3 7 12 22 19 9 4 1 1 0 3 3 5 5 12 6 5 9 7 6 4 6 5 5 5 4 3 1 4
13 12 11 9 7 5 4 2 2 1 1 1 1 1 5 6 6 1 1 2 16 19 11 3 2 4 3 5 4 7 6 11 5 6 5 4 3 7 4 6 4 5 5 4 7
14 13 12 11 9 7 5 3 2 1 1 1 1 2 5 3 6 5 6 5 4 15 17 6 4 4 5 4 4 5 7 9 9 10 14 14 12 8 10 10 9 8 6 7 8
16 15 14 13 11 9 6 4 3 2 2 2 3 4 3 5 8 15 7 2 2 10 11 11 6 6 4 6 6 5 6 8 9 11 8 11 12 4 7 9 9 8 10 9 10
17 16 16 15 13 10 7 4 3 3 3 2 2 5 3 11 6 6 4 12 11 7 4 17 17 1 1 4 2 4 7 7 6 4 5 7 21 21 10 9 10 9 10 8 10
20 18 17 15 15 12 9 7 6 5 5 3 3 3 6 7 9 22 12 9 7 12 11 9 7 4 4 4 6 4 4 4 3 6 5 8 26 10 8 7 11 11 11 8 11
20 20 17 16 16 15 11 9 6 5 6 5 4 3 7 6 6 16 12 7 4 7 11 14 3 3 3 3 4 3 4 6 4 9 5 12 23 10 10 8 10 10 10 9 8
23 22 19 18 16 15 12 9 4 4 5 6 3 1 5 4 6 4 14 11 4 2 2 3 2 2 1 5 13 12 6 6 5 4 8 16 19 10 10 8 12 13 15 8 9
23 21 20 19 17 16 16 5 2 1 6 6 6 4 2 2 7 4 14 5 2 1 4 2 4 10 15 9 6 7 5 7 3 8 7 11 16 17 14 13 11 11 10 8 9
24 22 22 21 19 18 17 4 4 3 3 13 13 13 12 6 3 3 14 6 6 9 4 4 11 10 7 8 9 11 13 15 8 9 9 11 16 13 16 15 15 18 11 9 6
25 22 23 21 19 19 19 12 7 1 2 4 5 6 7 9 9 6 13 6 6 12 12 12 6 14 12 12 11 14 17 11 12 11 15 12 22 14 15 13 15 17 13 9 16
24 23 24 22 16 15 12 18 9 2 2 4 2 2 4 6 5 18 19 8 7 15 13 12 15 9 16 14 11 15 11 11 9 7 5 4 10 10 6 16 15 20 11 12 15
22 23 28 33 15 14 9 19 16 2 3 4 4 1 3 6 2 2 17 12 12 10 7 8 8 19 20 15 13 9 5 5 3 8 8 16 8 6 9 11 16 20 15 15 18
21 25 34 25 13 13 15 22 12 4 6 6 4 5 5 4 2 2 4 8 1 14 15 8 1 7 12 14 13 3 4 3 2 1 9 22 11 11 10 16 16 18 13 15 17
20 25 38 31 10 26 30 9 3 4 3 6 4 5 3 6 7 7 6 8 5 7 8 6 15 4 3 6 8 11 6 3 4 6 12 10 11 22 8 13 13 16 12 15 17
25 28 41 29 27 38 16 2 4 4 4 3 4 8 7 7 6 9 6 8 13 6 1 6 4 16 9 15 5 13 15 4 7 4 6 6 10 10 14 25 19 9 15 18 18
32 30 27 26 39 34 8 4 7 5 6 10 5 5 6 8 6 10 9 9 9 16 8 5 5 3 6 7 12 6 10 22 5 4 4 5 6 10 9 9 7 10 17 20 19
17 17 17 40 43 17 5 5 5 4 8 5 6 9 6 6 9 8 8 5 9 16 12 5 2 6 5 4 9 14 7 5 5 6 10 7 5 10 13 13 6 15 19 17 16
22 5 25 42 33 7 4 6 4 6 6 6 6 6 7 6 8 7 6 4 13 12 20 5 4 2 5 10 14 9 11 10 6 6 5 4 7 10 15 12 13 13 17 20 19
2 4 33 42 5 3 3 6 5 6 3 3 3 8 7 10 6 5 8 7 10 9 12 10 4 8 20 11 11 15 17 19 7 13 4 2 8 1 8 15 17 16 14 14 16
3 3 29 31 5 5 4 5 5 7 8 7 10 11 12 6 5 10 8 8 8 13 9 8 5 4 7 7 11 10 17 12 12 2 18 3 7 5 8 8 8 15 13 14 15
3 4 3 3 3 7 6 4 6 5 6 8 6 11 7 7 10 4 6 4 12 8 17 13 4 7 6 4 5 10 21 20 12 7 14 15 20 2 7 10 9 10 14 15 16
2 3 3 8 6 9 13 9 6 7 8 8 4 17 9 7 9 9 12 5 4 13 12 9 5 9 17 23 17 15 19 22 15 12 9 7 8 4 9 12 13 13 13 15 15
2 3 2 4 9 8 11 9 9 5 7 5 9 13 14 7 7 2 7 6 4 12 11 6 4 3 13 21 18 14 17 21 18 15 16 22 6 4 4 7 8 13 16 16 16
3 2 4 8 8 7 5 8 10 8 9 12 14 12 11 20 15 15 8 5 8 11 12 5 3 3 6 9 11 8 14 21 15 16 21 9 4 3 4 7 7 11 15 17 17

GFSSW_925_spd_027.txt.gz
Wind_Speed
12 12 11 10 9 9 9 9 6 6 7 6 4 4 13 12 11 10 7 7 4 8 3 6 4 6 2 1 3 3 1 7 9 7 6 1 2 3 3 2 2 1 4 3 8
13 12 12 10 9 10 9 8 6 5 6 5 2 0 3 8 10 12 21 14 13 7 5 2 2 5 2 1 2 4 5 8 4 5 5 0 4 5 6 7 3 1 2 6 13
14 14 12 11 10 9 8 7 6 4 5 3 1 3 3 4 2 6 17 23 18 11 7 2 1 1 1 2 3 4 12 9 3 5 6 4 4 3 3 6 7 5 4 6 5
17 14 13 11 11 10 8 7 5 3 3 2 1 4 4 5 6 1 1 6 18 19 7 3 2 1 3 4 3 4 4 5 1 3 3 4 3 4 4 6 6 6 5 3 7
18 16 14 13 12 11 9 8 5 3 3 3 3 3 4 3 7 2 2 4 5 19 14 5 4 2 4 3 3 4 3 6 7 8 7 9 13 7 10 9 10 9 6 9 7
19 19 16 15 14 13 10 9 6 5 3 3 3 4 2 4 7 14 6 1 2 9 12 9 4 5 4 4 4 2 4 6 5 8 6 10 12 4 4 5 9 9 12 10 9
21 20 17 17 15 14 12 9 6 5 4 3 2 3 1 11 4 4 6 8 6 3 4 11 11 1 3 3 3 4 6 6 5 4 6 2 20 22 9 9 11 11 10 10 10
23 22 21 18 16 15 13 10 8 6 4 3 2 3 6 6 5 17 14 8 5 12 9 3 9 3 2 6 5 3 2 2 2 9 6 9 23 1 13 15 12 12 9 10 12
25 24 22 21 17 17 14 12 7 5 6 5 2 2 7 5 4 12 12 5 2 5 5 4 3 4 2 4 8 4 5 3 5 6 4 10 12 5 9 10 11 10 10 10 10
27 27 26 23 19 17 16 11 6 4 5 6 1 2 5 3 4 3 8 9 2 2 2 3 2 4 3 6 11 7 4 3 4 2 4 11 18 12 9 9 10 10 9 9 8
24 26 26 24 21 19 17 9 3 2 6 6 6 3 1 2 4 2 6 9 3 3 4 2 3 10 12 8 4 5 4 4 4 6 5 9 15 12 8 10 17 11 11 13 10
23 27 26 26 24 22 24 5 4 2 3 14 9 10 8 4 2 2 12 6 5 6 4 2 13 8 7 7 10 8 12 16 6 7 6 10 21 17 15 16 13 13 14 15 6
28 28 27 27 25 26 25 15 5 2 1 4 5 7 6 4 6 4 10 5 4 6 7 12 4 12 6 8 9 11 16 16 16 11 10 11 24 18 14 19 16 16 15 13 12
28 26 29 26 25 23 12 19 8 3 2 4 4 4 5 4 5 14 18 6 5 11 9 10 11 14 8 11 11 16 8 11 10 5 7 3 9 7 5 15 19 18 17 14 10
27 27 27 38 19 14 13 26 15 4 2 3 5 2 4 7 1 0 14 9 12 9 6 6 4 10 17 13 10 7 5 8 7 5 6 14 6 6 8 16 15 8 14 12 11
23 23 18 30 22 16 27 31 11 4 7 6 4 6 5 5 2 2 5 6 1 9 13 9 4 5 8 16 10 2 5 7 3 3 10 9 10 11 10 13 8 9 11 11 11
20 24 18 36 14 33 40 12 4 4 1 6 5 6 9 6 4 7 6 7 6 6 8 4 12 2 4 8 8 13 6 3 5 6 8 6 10 23 9 6 5 10 11 11 9
14 20 19 29 30 39 24 4 4 5 5 4 4 6 5 7 6 8 4 7 13 7 2 7 6 16 7 10 7 16 13 4 6 5 4 11 11 13 14 23 24 24 16 8 12
11 11 8 27 40 38 11 3 8 7 7 11 6 5 7 8 4 7 9 9 7 15 8 4 6 4 8 10 11 6 11 17 5 3 3 5 8 8 13 13 10 11 9 11 14
7 4 5 42 50 24 6 6 4 4 8 9 7 9 6 7 9 9 7 4 6 13 12 3 4 6 6 11 10 9 6 4 5 5 6 9 8 11 5 17 23 12 12 10 13
4 1 17 40 35 8 6 5 4 4 7 6 6 6 7 5 8 6 4 5 8 5 17 7 5 2 7 12 14 9 7 5 2 4 4 5 8 9 15 18 17 10 9 15 16
3 2 24 44 8 3 4 6 4 7 1 3 2 9 9 11 7 9 9 7 9 8 10 12 4 6 17 4 15 16 17 16 7 7 9 8 16 5 8 12 9 9 12 11 12
2 3 30 26 5 4 5 4 4 5 7 7 9 9 11 6 5 7 5 8 10 12 10 10 4 4 2 7 10 8 10 16 17 7 10 6 13 8 10 11 4 13 13 14 14
5 3 3 3 2 11 6 8 7 1 3 6 5 10 8 6 10 3 5 5 10 13 11 11 5 8 7 5 3 6 13 18 20 12 14 19 26 22 21 13 5 8 13 15 14
3 3 5 6 5 7 10 8 8 6 6 10 5 11 7 5 8 9 7 11 2 10 9 8 6 10 17 22 16 8 9 20 20 18 15 13 15 22 17 18 6 6 14 16 14
1 2 2 7 12 9 14 10 12 8 8 5 8 9 14 7 7 7 8 5 4 7 9 6 4 2 11 18 23 16 14 18 23 21 21 14 18 19 16 7 8 12 15 15 14
3 2 2 9 9 9 6 8 12 9 11 11 11 11 10 16 15 15 6 6 10 7 10 4 3 3 8 7 8 5 17 16 19 17 13 11 16 15 12 8 13 14 14 16 16

GFSSW_925_spd_030.txt.gz
Wind_Speed
16 11 13 12 11 10 9 8 8 8 9 10 9 6 7 13 11 10 6 7 2 9 2 4 3 3 2 2 2 3 1 5 6 7 5 1 1 4 4 3 4 2 2 3 3
19 15 14 12 11 10 10 9 6 6 8 8 7 5 3 7 14 13 18 11 6 3 1 3 2 4 1 1 2 4 4 6 5 6 3 2 2 2 4 6 4 4 4 4 11
20 17 14 12 11 10 10 8 6 5 6 7 6 4 1 3 3 5 12 21 18 10 7 1 1 2 1 1 3 3 7 3 3 3 3 3 4 2 2 4 7 2 8 5 4
19 20 16 13 11 11 10 8 6 4 4 5 4 3 2 3 6 2 3 3 12 14 8 5 3 3 3 4 4 3 5 4 2 4 4 2 4 6 4 7 3 4 6 4 5
21 19 19 15 12 13 11 9 6 4 3 4 3 1 2 2 7 2 2 6 3 18 12 7 3 4 4 3 1 4 4 4 4 7 7 6 10 8 10 9 10 9 6 10 9
23 22 21 18 14 13 13 10 7 5 4 3 3 2 2 3 4 9 7 4 6 13 8 8 5 5 2 3 3 2 3 5 5 5 5 8 13 4 8 8 9 8 9 9 9
24 24 21 21 17 14 14 11 8 5 5 3 2 3 1 10 2 1 4 1 1 6 5 8 6 3 0 2 2 3 5 6 6 6 7 4 15 17 14 11 13 14 10 11 10
27 25 23 23 20 16 15 12 9 7 5 3 2 3 6 4 4 11 6 1 2 5 2 1 7 4 2 4 2 2 1 3 4 5 6 9 19 9 8 15 15 14 10 10 13
26 25 24 23 23 18 17 13 10 7 5 4 2 2 7 4 4 6 11 4 4 4 5 4 5 4 2 1 4 4 8 5 6 2 4 10 5 2 5 4 9 9 10 10 11
28 26 22 23 25 20 18 12 8 5 4 4 2 1 4 2 2 3 9 11 3 4 3 3 2 3 4 5 6 4 7 10 8 3 4 9 15 14 9 11 13 10 10 9 10
25 25 25 23 24 23 21 15 4 1 4 6 4 3 1 1 3 2 5 8 4 4 5 2 3 7 10 8 10 4 3 9 4 7 7 12 17 18 14 12 13 13 12 11 11
26 23 26 21 24 29 30 6 7 6 3 12 9 6 5 3 1 2 12 5 4 5 4 1 10 8 5 4 5 8 13 19 13 12 10 13 24 20 17 20 18 15 16 12 10
23 24 23 20 25 34 31 12 18 8 2 3 6 7 3 5 4 4 8 4 3 5 6 7 3 7 9 6 5 6 11 8 14 9 12 12 25 17 18 21 23 20 19 16 12
27 25 23 22 19 30 19 21 16 10 4 4 4 5 5 6 5 11 14 5 2 9 5 8 9 10 5 5 8 13 8 14 13 6 7 3 10 5 4 10 11 15 13 14 14
31 28 24 25 12 18 22 26 16 5 1 3 5 4 6 9 2 2 8 3 7 7 5 5 4 7 14 12 7 4 6 8 10 8 6 8 6 5 5 8 9 9 11 14 16
33 28 18 20 19 26 38 28 10 5 6 6 4 6 6 4 1 4 5 3 3 9 12 11 3 3 6 7 14 3 4 4 3 4 11 11 9 13 7 9 8 9 11 14 12
17 17 15 16 6 37 44 12 4 4 1 6 5 5 6 6 4 4 6 8 5 5 7 4 12 6 4 4 7 9 3 3 5 6 7 7 11 22 6 8 8 10 11 10 9
4 10 13 20 31 45 30 4 4 5 5 7 6 8 6 7 4 4 4 7 10 6 1 3 5 12 12 16 7 17 10 5 5 4 4 5 8 9 9 16 18 16 14 6 6
9 1 6 8 38 43 11 3 7 7 7 8 11 6 6 6 3 7 9 5 7 15 6 4 6 2 5 6 9 5 11 14 5 3 3 5 8 10 9 10 12 8 11 13 8
11 3 6 18 43 25 8 5 3 4 7 5 5 5 6 7 7 7 6 4 6 12 10 1 6 3 3 3 10 8 1 4 6 5 5 6 7 12 9 17 14 11 12 10 7
7 3 13 17 31 7 5 3 3 3 5 4 4 5 4 5 9 5 4 4 6 5 14 6 4 1 5 9 11 8 9 6 3 4 4 4 6 6 11 7 9 16 12 9 12
2 2 21 30 6 3 5 6 4 5 2 2 3 4 6 8 6 8 8 6 6 9 10 9 3 6 15 10 16 18 13 17 7 6 4 3 17 6 5 6 7 13 10 4 8
3 1 29 36 4 3 3 3 4 4 4 3 3 3 6 6 5 8 3 6 8 9 11 9 5 4 4 3 8 9 18 20 19 8 14 4 14 8 12 10 5 5 4 4 6
2 3 4 2 1 11 7 5 4 1 4 3 2 4 5 6 9 3 5 5 13 11 10 12 5 8 12 10 3 6 16 18 17 10 14 16 23 19 15 16 7 3 5 6 7
1 1 2 5 3 9 5 8 9 5 2 7 5 12 6 5 6 7 8 4 4 11 7 7 7 12 21 23 18 12 12 20 19 23 12 11 18 25 18 11 6 6 7 9 11
1 2 3 8 10 9 5 7 11 7 8 5 8 7 11 6 7 8 5 4 5 4 8 5 5 3 17 19 18 24 24 18 21 21 21 19 22 13 9 11 12 7 10 12 12
7 4 2 11 9 8 7 7 12 9 8 8 12 10 10 15 16 14 2 5 3 2 5 3 3 3 9 6 12 5 10 18 14 11 17 15 23 10 13 14 12 9 12 13 13

GFSSW_925_spd_033.txt.gz
Wind_Speed
18 19 14 10 10 10 9 9 8 9 9 9 7 5 6 9 11 10 6 7 2 7 3 1 2 2 3 2 2 2 2 6 7 8 5 1 3 1 2 2 3 2 1 4 3
20 19 17 13 11 10 9 9 8 9 9 8 6 4 4 3 12 12 12 10 7 5 4 2 1 1 2 2 2 2 3 8 6 5 3 2 1 4 3 3 3 4 2 8 2
21 20 20 15 13 10 9 8 7 8 8 7 5 3 2 3 2 2 8 16 15 9 5 2 4 1 2 1 3 3 5 3 2 2 1 2 3 2 3 5 7 6 4 5 0
21 20 20 19 16 12 9 8 7 6 6 5 4 2 3 3 6 2 3 1 8 15 10 6 2 3 3 3 2 2 5 4 2 3 2 3 2 5 5 9 3 4 5 5 9
26 21 19 20 18 15 11 9 8 6 4 3 2 0 4 3 5 2 1 4 6 17 14 7 3 3 4 2 2 3 3 3 4 5 5 6 12 12 13 11 9 12 8 13 11
25 25 20 19 22 17 13 10 9 6 5 3 2 3 5 2 3 5 6 4 8 16 10 6 6 3 3 2 3 2 2 6 6 8 6 10 16 7 9 11 16 12 14 13 11
26 24 26 19 20 20 16 12 10 8 6 3 3 4 1 8 3 2 4 3 6 9 5 7 6 4 3 1 2 2 4 6 8 7 8 4 15 16 16 14 18 16 12 13 14
25 25 24 18 17 22 18 15 12 10 7 5 4 4 5 2 4 9 4 4 6 8 9 9 8 2 1 1 1 3 2 3 3 2 6 10 15 9 9 11 19 20 19 18 20
24 25 24 23 17 22 20 17 13 12 8 7 3 3 6 1 3 5 10 6 7 5 5 8 7 4 3 2 2 4 4 6 5 2 4 10 6 2 2 4 8 9 12 13 14
25 21 23 21 19 19 23 18 13 11 6 3 1 2 3 2 4 4 10 9 4 6 4 3 2 4 4 5 6 4 4 4 6 1 4 14 19 16 15 13 16 12 11 12 13
25 22 21 20 20 16 27 19 5 2 3 7 3 2 1 3 6 4 7 7 4 4 5 2 4 9 13 7 4 1 3 10 7 6 11 16 22 19 18 18 18 17 17 16 15
23 22 19 21 21 21 39 5 10 9 4 10 3 3 2 2 3 2 12 5 4 4 5 2 9 8 3 4 6 9 14 16 15 14 11 17 27 18 18 21 20 21 19 18 18
23 23 21 22 23 23 35 18 23 12 4 2 5 7 3 4 1 6 8 4 4 5 7 6 3 5 9 4 6 7 11 10 13 10 13 17 25 17 15 18 19 21 21 21 20
26 29 26 22 16 15 22 22 21 11 4 4 4 5 7 4 4 8 13 5 3 10 5 5 5 4 4 4 9 13 8 12 12 7 6 3 11 9 6 12 11 13 15 18 20
40 37 29 19 14 8 16 28 20 4 2 3 4 5 7 8 5 0 7 3 7 6 5 4 4 4 11 13 9 6 5 8 8 8 11 13 7 8 2 5 8 10 14 15 17
38 25 21 14 20 18 40 35 9 4 6 6 4 6 8 6 5 4 5 1 2 3 5 6 2 5 7 7 13 2 3 6 4 7 9 11 11 19 7 7 5 11 10 10 13
32 17 13 15 7 18 41 12 4 4 2 8 5 7 8 6 5 6 7 9 5 3 5 5 16 8 4 3 4 11 4 2 4 6 8 5 11 21 8 18 16 12 12 13 9
30 9 9 17 15 31 27 4 4 5 4 5 6 9 5 6 4 5 6 7 11 3 1 4 5 11 10 15 5 13 11 5 6 5 5 2 9 10 13 16 15 10 9 10 7
35 9 5 12 16 26 9 3 6 6 8 10 11 6 4 5 3 6 7 5 7 13 6 5 5 1 4 4 10 5 10 8 8 13 10 8 13 11 14 11 10 7 7 12 13
11 5 5 10 22 10 4 4 2 4 14 9 5 5 8 9 7 8 7 3 4 10 6 1 4 4 2 3 9 8 2 4 5 5 9 5 7 11 7 10 10 4 7 9 10
3 1 6 15 24 3 2 3 3 4 7 4 4 5 5 6 7 5 3 3 5 4 13 4 3 1 4 10 11 8 8 7 3 5 6 9 10 7 10 10 6 4 6 8 10
5 1 6 35 4 2 4 5 4 3 6 4 4 5 4 6 6 6 7 4 6 8 9 8 3 5 12 9 15 16 12 17 8 10 6 5 20 3 6 5 3 7 6 7 7
2 2 12 13 3 2 2 4 4 3 2 2 3 3 3 6 4 7 3 3 9 9 9 7 4 4 8 2 3 10 19 20 17 9 16 5 11 2 5 4 4 7 6 4 1
0 2 3 2 2 4 5 3 4 3 3 3 4 4 3 4 6 2 4 3 10 8 9 10 5 7 10 14 1 7 18 19 20 10 15 19 28 20 14 13 14 10 6 5 5
1 2 3 4 4 3 4 3 5 4 2 3 2 6 5 3 5 7 7 3 4 9 6 8 6 11 22 24 24 26 27 21 22 28 14 16 19 27 16 16 9 6 5 5 7
1 2 1 4 8 8 4 6 8 4 6 3 3 6 8 7 6 6 6 5 5 4 7 4 4 4 20 22 22 21 25 21 20 23 19 19 22 20 16 7 5 10 8 8 9
6 4 2 10 7 6 6 7 6 4 5 5 7 5 8 12 13 12 3 1 2 4 9 4 3 3 11 11 20 6 8 7 7 13 15 14 17 8 11 7 10 14 8 10 11

GFSSW_925_spd_036.txt.gz
Wind_Speed
20 18 17 18 13 12 10 9 10 9 8 8 9 8 8 6 13 15 12 7 8 12 4 5 4 4 5 6 4 2 7 12 19 15 10 4 9 10 2 7 3 3 3 3 0
23 20 19 17 17 13 11 9 10 8 7 7 7 6 4 3 16 11 12 10 12 6 12 8 6 6 5 6 5 9 10 15 7 11 7 5 8 3 6 10 11 8 5 2 3
22 21 20 18 19 16 12 11 9 8 7 5 5 5 1 3 4 5 13 18 15 12 6 6 7 3 6 5 8 9 13 9 6 6 3 8 10 8 11 14 13 11 6 1 1
22 22 20 19 17 19 14 13 10 7 6 3 3 3 3 5 6 6 4 4 10 14 8 7 6 6 5 8 6 8 10 10 7 9 6 10 8 13 14 19 8 8 6 8 8
22 22 22 20 16 18 17 14 11 8 5 3 3 1 2 6 6 5 4 1 6 15 15 9 9 6 9 5 5 9 9 8 10 10 12 13 18 21 20 18 17 16 15 16 14
23 23 22 22 17 16 20 16 12 9 7 4 3 3 3 9 2 4 3 4 6 15 17 13 7 4 2 4 8 1 6 9 9 13 13 16 21 19 18 18 22 23 23 22 21
24 23 22 21 20 15 20 18 14 11 9 5 4 3 3 7 2 1 6 5 6 10 11 5 9 6 7 4 3 6 11 13 15 13 13 10 21 21 21 22 25 22 21 21 22
25 21 22 21 21 13 16 20 16 13 10 8 5 3 5 3 6 6 5 7 8 7 7 9 7 5 4 1 4 5 6 6 3 1 4 9 16 6 10 13 17 20 21 22 22
25 24 22 19 18 16 12 23 19 16 12 10 5 3 3 2 4 6 8 11 11 10 8 9 8 3 5 6 6 8 8 9 10 4 4 10 12 3 3 9 12 13 13 14 17
25 24 20 19 17 17 13 24 19 17 11 8 4 3 4 4 5 5 8 14 7 11 8 4 3 5 8 8 6 5 12 9 11 2 9 17 22 20 19 21 20 18 17 17 18
22 22 19 18 17 17 17 23 8 4 9 7 7 0 5 6 7 4 12 11 10 11 9 6 7 11 14 14 12 5 7 11 10 9 17 19 22 21 21 24 24 23 22 23 23
22 21 20 19 18 18 14 4 17 10 7 9 7 5 1 4 5 7 13 8 12 12 9 6 12 12 8 11 13 14 16 17 15 13 14 19 33 24 25 29 26 25 25 25 25
23 22 21 22 22 19 13 22 22 15 4 7 11 7 5 5 4 11 14 6 10 12 15 8 3 3 14 11 13 16 16 15 17 16 18 21 27 15 8 14 17 22 25 25 25
30 25 33 25 17 17 14 25 19 5 3 9 9 7 9 6 5 10 16 5 5 12 9 9 11 7 9 12 13 14 8 12 13 8 6 3 12 18 16 15 14 15 16 18 19
36 30 25 20 7 4 7 21 22 5 7 11 7 9 10 11 10 5 12 4 8 8 6 4 6 10 14 15 10 7 5 7 8 11 14 15 7 14 5 13 12 16 17 14 14
33 31 29 10 20 14 12 30 5 5 6 8 7 11 13 14 7 6 8 3 3 6 6 10 2 5 10 9 13 2 6 9 10 6 8 17 16 20 14 12 10 9 9 10 10
35 34 24 12 11 21 13 13 3 4 8 9 9 11 14 12 10 9 10 10 6 5 8 8 17 8 8 7 8 10 3 3 4 6 8 2 10 22 10 5 13 20 19 13 14
39 34 5 19 8 26 14 5 4 6 7 7 13 15 7 15 6 9 12 10 13 7 3 5 4 14 11 15 5 15 9 5 6 6 8 4 11 10 11 10 16 17 12 11 12
40 5 3 14 15 19 5 4 4 7 11 13 13 8 5 11 5 7 9 7 10 14 6 5 4 2 9 4 11 5 9 12 14 20 15 11 22 24 25 22 20 20 17 10 10
23 3 3 10 17 13 4 3 0 5 19 16 7 6 9 13 8 11 11 5 10 14 14 2 4 5 3 5 11 12 3 4 6 5 10 13 20 14 14 9 7 9 9 8 11
9 2 5 15 24 5 1 3 5 13 12 3 7 8 7 11 11 9 6 2 8 8 15 6 4 3 3 11 13 10 8 7 8 9 6 14 9 2 10 10 15 4 4 9 11
3 1 6 22 4 2 2 3 6 9 3 5 6 9 13 11 9 8 7 4 6 10 10 11 4 8 15 11 13 15 15 19 9 13 11 16 23 7 12 9 4 4 9 9 11
1 1 6 4 3 3 1 3 3 4 3 3 4 4 4 8 5 7 3 2 10 10 10 11 5 4 4 3 5 8 16 23 21 16 21 10 14 6 6 6 5 10 13 13 10
1 2 4 3 3 8 4 4 3 5 3 6 11 9 8 4 2 4 6 3 9 13 7 11 4 8 10 14 3 9 16 19 18 13 22 25 32 22 11 19 22 21 18 12 9
1 3 2 4 1 6 4 4 10 4 3 3 4 5 5 4 4 4 7 5 4 8 8 7 5 13 20 23 24 25 27 27 20 26 19 32 19 23 18 18 19 14 12 11 7
3 1 2 2 4 7 4 7 6 4 3 3 3 6 5 4 5 3 6 7 6 8 10 7 4 3 15 23 22 23 23 22 20 18 20 26 26 24 22 15 15 16 14 10 5
7 5 1 6 8 8 7 7 8 7 3 2 5 5 5 7 9 7 6 3 3 5 12 5 2 2 6 12 22 7 6 12 15 8 7 10 15 10 12 11 9 10 7 9 4

GFSSW_925_spd_039.txt.gz
Wind_Speed
21 21 20 19 17 18 15 14 13 12 10 9 10 11 10 10 9 13 16 8 13 7 6 6 8 10 9 8 9 10 14 16 21 22 15 4 7 12 6 10 6 8 12 7 3
23 23 23 21 18 17 18 15 13 12 10 9 9 10 8 7 12 16 13 14 11 12 12 11 11 11 11 12 8 11 14 20 16 15 16 12 12 11 9 15 16 11 7 1 2
23 23 22 23 21 17 20 17 13 13 11 9 7 8 7 2 10 10 23 15 13 10 12 13 8 11 15 11 14 13 20 14 10 9 9 12 12 13 11 15 15 17 13 8 4
23 23 23 23 22 19 16 19 14 13 11 8 6 5 6 7 6 6 7 11 18 14 13 12 12 12 12 12 14 15 16 19 10 6 9 12 14 16 18 17 15 10 8 1 8
24 24 23 23 23 21 17 21 16 13 11 9 7 5 6 7 8 7 5 4 10 19 19 14 13 14 13 12 8 13 16 11 13 14 14 14 17 18 18 16 16 18 14 14 15
24 23 25 22 23 23 18 17 17 15 12 10 8 6 9 12 2 3 3 3 11 18 18 12 5 7 7 9 10 2 10 14 14 15 15 17 20 19 16 20 22 22 21 20 20
24 24 25 22 22 22 22 15 20 17 14 10 9 8 9 7 3 4 5 3 4 11 13 14 8 6 4 5 9 8 13 15 19 19 15 10 19 24 25 23 24 22 21 22 23
24 24 25 24 21 20 21 15 25 21 16 12 10 8 6 2 6 4 7 5 6 9 7 9 6 1 4 2 4 8 11 13 3 6 9 10 16 7 8 18 19 22 21 22 23
26 24 23 22 20 19 21 15 19 22 17 13 9 7 4 4 6 10 9 9 9 9 8 11 9 3 3 8 10 12 9 14 10 7 7 13 12 8 2 9 13 14 16 17 19
25 23 21 19 19 16 19 18 13 22 19 11 4 4 6 6 8 9 11 11 11 12 9 7 7 8 10 11 9 12 15 13 11 5 8 15 21 20 19 19 18 18 17 17 18
24 22 19 20 19 18 17 8 5 7 12 6 11 2 11 11 11 10 14 15 10 12 7 9 8 13 16 15 16 9 9 12 10 8 15 20 23 20 19 20 21 21 21 21 22
23 19 21 21 18 17 16 4 7 6 7 8 11 8 10 12 7 11 17 12 12 13 9 5 14 15 10 9 12 13 14 15 14 13 12 17 29 24 25 27 23 23 24 25 24
23 22 25 20 24 21 18 16 20 11 3 13 12 12 8 9 8 15 17 12 15 16 16 11 1 4 12 10 11 13 14 13 14 16 18 22 26 19 15 16 21 22 23 25 24
23 25 22 30 26 20 20 13 16 8 3 10 9 7 9 7 6 16 19 9 6 14 12 12 8 4 8 12 11 11 9 10 11 9 6 5 11 16 16 17 15 15 15 16 18
26 29 24 21 10 10 4 19 18 1 6 15 11 10 15 11 15 12 17 5 10 8 8 4 6 12 12 12 8 6 3 5 8 10 14 15 9 13 9 11 13 15 14 14 14
28 32 31 24 12 16 4 25 14 3 4 7 7 13 17 14 8 11 13 4 4 7 11 11 3 5 6 5 8 4 3 6 7 6 8 16 16 19 8 9 6 6 4 6 6
32 38 31 12 7 17 13 10 5 6 11 9 9 14 17 15 11 13 13 10 8 6 9 10 16 7 8 6 5 8 1 2 4 5 8 2 10 17 16 10 7 8 11 14 8
34 38 7 9 6 20 3 5 8 8 8 8 15 18 10 17 9 14 15 11 13 12 3 7 6 17 11 12 5 12 8 4 5 7 11 5 10 8 10 5 5 11 16 15 10
38 12 1 9 12 22 4 4 1 13 11 13 17 6 7 17 7 10 13 11 11 13 6 5 3 1 9 7 10 6 8 10 11 16 11 9 20 24 21 21 14 16 15 17 16
20 6 2 13 19 13 1 1 2 7 15 17 6 7 9 15 9 11 13 10 8 15 11 2 2 5 7 5 10 12 0 2 4 5 10 10 19 14 13 12 7 13 11 9 6
6 2 4 14 18 2 2 2 6 15 12 4 9 10 11 15 10 14 14 4 14 11 13 5 3 5 5 11 13 11 9 7 8 7 6 12 9 10 10 12 13 14 13 1 8
1 2 10 26 3 1 1 3 14 12 1 2 7 7 16 17 10 10 8 1 5 8 10 9 2 5 12 8 8 14 14 17 7 9 8 11 21 12 13 13 9 12 5 9 9
2 2 1 6 3 1 2 7 7 5 1 3 5 2 7 14 6 7 4 6 8 11 9 10 5 3 2 1 8 10 15 18 17 16 20 15 16 3 7 9 6 11 16 14 16
2 2 2 1 1 4 4 6 6 3 7 8 9 12 11 12 5 7 5 4 7 9 8 4 5 8 8 10 9 6 15 16 13 8 20 23 34 26 23 16 15 16 20 22 18
1 3 1 3 3 5 5 5 5 4 3 4 4 5 5 4 5 4 5 6 7 6 6 5 7 13 18 20 19 17 21 22 19 21 15 30 26 28 21 18 12 18 19 19 14
3 2 2 2 4 7 2 9 9 2 2 3 5 6 3 3 2 5 7 5 4 7 8 4 3 2 14 18 14 16 20 18 18 18 15 17 21 19 13 12 9 13 13 13 5
6 4 4 3 6 5 6 10 8 6 4 6 6 5 1 2 1 2 2 1 3 8 11 5 2 2 5 10 19 9 4 9 12 12 7 8 8 11 10 10 10 11 10 9 7

GFSSW_925_spd_042.txt.gz
Wind_Speed
22 22 21 21 22 21 18 19 16 14 14 12 12 11 11 11 11 11 17 15 21 13 5 7 10 12 12 8 12 8 6 10 15 14 13 12 3 4 2 6 7 3 4 8 8
23 23 22 22 22 23 21 17 18 15 14 12 11 10 10 9 11 16 22 19 9 10 10 11 10 12 9 10 5 6 8 11 10 12 10 13 3 4 4 8 8 7 7 12 7
24 23 23 23 22 23 22 22 20 16 15 12 11 9 8 7 8 9 22 18 13 12 14 15 13 11 10 9 11 7 13 10 13 15 6 10 11 0 6 6 7 9 8 10 11
23 24 23 23 23 21 22 23 17 19 16 12 10 8 7 7 5 2 18 23 14 14 13 15 10 6 7 13 12 15 12 15 16 10 4 6 8 10 7 9 10 10 7 5 6
24 23 24 24 24 22 21 22 20 20 16 13 10 7 3 7 6 4 7 15 13 19 17 13 12 10 10 9 10 12 16 12 10 8 7 7 9 10 14 10 11 10 10 5 5
26 25 24 24 26 24 22 22 21 19 17 15 11 8 4 12 3 6 6 7 12 17 19 16 7 4 4 10 10 5 8 12 14 7 8 12 12 11 8 12 15 15 12 9 8
26 27 25 25 25 24 21 20 21 16 19 16 12 10 9 11 3 6 6 5 10 17 14 15 3 2 1 3 10 4 7 11 13 11 10 6 15 17 19 18 17 14 14 14 12
26 27 26 26 23 22 19 20 22 14 19 15 12 12 6 6 7 4 9 6 4 5 4 9 5 3 2 3 2 4 9 7 9 19 15 13 14 11 10 18 20 18 14 14 13
25 25 25 23 22 20 18 18 20 18 17 17 9 14 5 6 8 10 12 11 11 8 10 8 5 2 2 2 4 9 6 12 10 6 5 7 6 10 5 4 7 10 13 13 13
24 24 24 21 21 21 18 19 16 9 19 17 11 8 7 8 10 16 12 11 11 11 7 5 3 4 4 6 6 8 13 11 9 6 4 8 14 13 13 14 12 9 9 9 9
23 24 20 20 22 18 18 9 1 3 19 7 13 3 16 17 14 12 15 14 12 11 5 8 5 8 11 13 14 13 9 9 10 8 7 9 16 15 14 14 17 15 12 14 16
23 23 21 21 24 18 15 4 6 3 6 18 9 10 17 21 10 13 18 9 8 10 6 3 7 8 9 6 7 8 9 10 9 10 8 11 19 17 20 21 18 19 16 15 13
25 22 22 26 17 18 12 19 6 5 5 9 13 12 15 9 9 16 16 9 13 10 10 7 2 11 11 7 5 8 7 8 10 11 11 14 18 12 11 21 22 21 19 15 14
25 22 23 25 17 14 14 10 12 4 3 11 10 9 9 7 7 16 16 7 8 13 12 8 9 4 5 9 6 7 3 6 6 6 4 8 7 6 9 8 8 10 10 11 12
24 23 26 22 21 4 7 15 11 6 2 13 8 15 11 8 15 11 18 1 10 7 6 1 2 4 5 7 7 5 5 4 5 6 7 5 4 6 3 6 6 7 7 9 8
23 27 28 27 11 12 4 20 11 2 5 5 6 12 13 14 3 11 7 4 5 3 4 4 5 1 5 5 5 6 3 4 4 1 4 11 9 5 3 1 1 6 3 13 6
29 31 36 22 3 12 24 6 5 5 4 8 9 13 15 14 9 15 9 7 4 4 2 4 9 3 3 5 4 6 3 2 2 3 6 3 8 11 14 13 11 6 3 5 5
32 33 14 6 8 26 13 3 4 7 2 7 15 16 9 14 8 12 11 8 8 7 5 7 4 16 9 7 4 9 5 3 5 2 4 6 7 6 11 13 5 4 5 7 7
32 19 5 7 20 22 2 3 1 6 9 10 18 9 7 11 8 10 11 9 10 9 4 6 2 2 11 5 8 5 5 2 4 5 2 5 6 9 19 14 10 5 5 6 8
16 10 4 12 18 11 1 2 3 4 14 17 5 6 7 15 6 9 11 11 9 14 9 3 2 4 7 6 8 7 4 2 1 2 5 5 8 6 6 7 8 9 8 11 5
6 2 5 22 11 2 2 3 1 11 17 1 8 6 11 15 8 8 10 5 12 13 12 4 1 3 5 7 8 7 5 3 3 4 3 5 4 5 3 2 7 8 6 5 6
3 3 3 13 2 0 1 3 17 5 1 2 5 10 11 14 7 7 11 2 7 7 10 8 3 3 10 7 12 7 7 9 4 5 5 3 11 21 6 6 7 11 8 7 5
2 2 2 5 1 1 3 1 4 2 2 2 4 6 16 11 7 4 7 5 3 3 10 7 4 2 3 1 4 4 7 10 12 6 12 8 9 3 9 20 13 6 9 9 11
2 2 1 2 3 3 3 5 4 7 11 7 7 8 14 6 9 7 6 2 3 3 7 6 4 4 2 1 2 3 6 10 7 5 11 20 30 27 23 24 21 15 16 19 15
1 2 2 1 3 2 2 6 4 4 4 2 3 9 12 5 7 6 9 7 5 4 4 1 2 6 9 12 11 10 12 13 13 16 12 23 24 26 22 22 19 12 8 11 12
2 3 4 2 0 7 2 3 5 5 4 3 8 7 6 6 4 7 6 4 4 6 5 2 2 3 5 11 14 15 15 13 15 17 18 18 21 15 17 8 9 13 12 11 10
5 4 2 3 1 1 1 6 5 5 7 8 8 6 6 7 5 5 5 3 4 6 8 5 3 2 4 7 11 7 7 10 7 10 9 9 15 15 15 11 8 7 10 10 8

GFSSW_925_spd_045.txt.gz
Wind_Speed
22 22 21 21 21 20 21 19 17 17 15 12 11 11 12 11 12 13 14 15 27 10 2 5 8 11 11 3 3 2 2 5 7 7 5 12 4 4 2 4 3 3 4 8 18
22 23 23 22 22 22 22 21 20 20 17 13 12 11 10 9 11 18 15 13 20 20 16 10 7 9 3 4 3 5 6 6 4 7 5 5 4 6 2 3 1 4 4 13 18
23 23 22 24 22 22 22 22 20 21 17 14 12 11 9 6 5 8 16 22 21 12 17 15 11 6 6 4 5 5 5 5 12 11 1 4 6 4 4 1 6 5 7 5 12
24 23 24 23 24 23 22 21 21 21 18 15 13 10 7 5 6 3 7 24 18 16 13 11 5 5 7 7 6 5 5 12 11 12 4 3 5 6 1 4 8 5 3 4 8
24 24 25 24 24 25 25 22 21 20 21 17 13 10 5 6 6 5 9 21 17 17 15 10 6 5 7 6 6 6 6 10 9 8 4 4 4 4 7 8 11 11 5 4 6
25 25 24 25 24 24 23 24 20 19 18 18 13 10 4 8 10 6 10 16 19 17 14 12 5 6 6 4 7 5 3 3 5 7 5 6 6 2 3 6 11 10 13 6 7
25 25 25 24 24 23 22 22 19 20 19 15 16 12 7 9 7 10 10 13 13 17 8 20 7 4 2 2 2 3 2 6 6 5 5 7 7 8 10 9 12 14 12 13 10
27 24 23 23 22 22 20 19 20 20 22 17 20 12 5 9 14 12 12 7 7 6 22 11 3 2 1 3 1 3 3 1 7 10 9 9 13 5 11 8 14 19 17 14 16
25 23 22 22 21 19 21 19 19 21 19 13 15 8 6 9 16 13 14 8 9 12 12 12 5 2 3 4 2 1 3 6 7 8 6 12 3 14 9 14 10 14 15 16 19
23 21 22 20 20 21 23 22 22 15 6 9 4 5 6 6 11 15 16 12 5 11 4 3 2 3 2 3 5 5 4 3 6 5 5 6 8 8 10 8 11 10 9 10 13
22 21 23 18 19 27 18 10 3 2 6 4 8 3 4 14 20 15 17 9 7 4 4 3 3 5 8 7 5 5 4 3 5 6 3 8 10 10 11 10 16 15 11 14 15
24 23 23 20 20 15 18 3 3 4 3 14 6 15 14 19 8 9 12 7 8 5 5 3 3 5 7 10 9 6 4 5 7 4 5 12 20 17 18 18 17 22 14 16 16
24 24 22 20 22 15 10 12 3 6 2 8 4 16 9 4 5 13 9 8 10 8 6 5 1 8 4 3 4 2 2 3 5 7 5 9 10 8 7 14 18 19 19 15 15
24 23 20 21 12 12 10 9 11 8 2 8 7 8 5 4 4 9 10 8 4 10 8 3 4 3 4 3 3 1 4 2 3 4 3 6 7 6 9 9 6 11 12 15 14
24 22 22 19 19 4 4 14 18 5 1 9 8 16 6 1 14 8 6 2 7 7 6 7 4 6 3 3 5 3 5 5 4 4 5 3 3 8 7 5 8 6 10 10 13
25 26 27 24 10 16 5 17 7 2 4 4 7 11 7 14 3 9 3 2 2 2 6 4 2 3 3 3 3 6 5 4 3 3 3 8 7 5 3 4 1 1 4 7 8
28 30 28 10 3 5 24 5 4 1 4 6 8 12 13 7 7 12 8 4 4 5 0 3 3 2 3 4 4 5 5 3 0 2 6 2 4 7 9 11 9 8 8 6 7
31 27 13 3 5 23 11 1 4 5 2 5 12 15 5 11 9 6 8 4 3 2 4 4 4 8 4 4 5 4 5 4 4 3 4 5 7 6 11 13 8 6 3 4 5
20 9 7 10 18 25 3 1 1 3 4 7 13 8 5 4 7 6 4 5 4 4 4 4 2 6 6 2 5 3 3 5 1 2 3 5 7 9 7 8 8 7 6 8 9
4 5 7 15 15 7 2 3 3 5 10 13 4 4 6 6 6 5 8 8 5 8 2 1 4 5 5 3 4 5 5 2 2 2 5 6 5 8 4 5 8 9 9 9 9
5 2 2 10 7 2 2 3 3 9 15 1 5 6 9 6 5 4 11 10 7 10 5 2 3 2 3 5 7 3 3 3 2 4 4 4 5 5 6 1 4 4 4 6 11
3 3 1 2 2 1 2 3 5 5 5 2 4 8 9 6 6 3 7 1 11 10 7 3 3 3 7 5 8 5 5 5 4 4 4 3 6 9 12 6 14 18 19 9 9
2 2 2 4 2 3 3 4 3 6 2 2 3 4 15 6 5 3 5 4 6 6 10 6 2 1 2 5 2 5 7 8 5 2 7 2 7 4 10 20 18 19 18 16 15
1 2 2 1 3 1 3 4 2 4 6 5 12 14 10 5 5 6 4 3 3 4 7 7 4 5 5 3 3 3 6 9 11 3 8 14 21 24 20 20 20 15 14 11 12
2 2 1 1 1 3 1 1 5 5 6 5 10 10 9 5 8 5 6 3 4 2 4 4 3 3 4 6 4 6 7 9 11 18 9 24 22 22 21 20 17 4 7 11 11
1 2 4 2 3 2 2 2 5 4 5 6 10 11 10 4 1 10 6 4 3 2 3 2 1 2 5 8 8 6 11 12 12 16 17 23 26 15 12 17 10 9 11 12 13
6 3 1 4 1 1 1 2 1 2 9 6 7 6 9 4 5 4 5 5 7 7 6 5 3 2 4 4 6 5 7 12 7 5 6 7 10 14 17 12 10 11 13 14 10

GFSSW_925_spd_048.txt.gz
Wind_Speed
21 22 20 20 20 20 21 21 21 20 18 17 14 12 12 11 11 12 15 15 25 10 7 8 12 13 6 2 3 4 3 4 5 8 5 2 4 6 2 3 1 1 7 7 24
21 21 22 21 22 20 20 20 21 21 20 23 15 13 11 9 11 18 19 21 19 22 11 7 6 8 3 5 3 4 5 8 5 5 3 3 2 5 6 3 3 3 4 16 22
22 21 21 22 23 21 21 21 21 21 20 20 15 13 9 6 6 10 17 28 21 23 22 14 5 4 4 3 4 5 5 8 4 5 3 5 5 4 2 4 3 1 3 4 6
22 21 22 21 21 23 23 22 22 21 20 21 17 13 8 6 7 3 6 26 24 21 21 14 4 4 6 6 5 3 7 5 3 6 2 3 3 3 4 6 3 2 1 5 7
24 22 21 22 22 22 22 23 21 21 19 23 21 15 8 5 9 10 4 22 23 20 17 9 6 5 6 7 4 3 3 4 6 7 4 5 6 6 6 9 10 2 5 7 6
22 23 21 20 22 21 21 21 20 20 19 21 21 19 6 9 12 17 6 21 19 19 13 10 6 7 5 4 8 4 8 6 4 4 3 5 6 5 3 7 10 7 7 8 8
25 24 22 21 20 21 19 19 20 20 20 20 19 21 9 14 7 11 12 22 22 22 5 15 13 4 4 3 5 2 5 2 4 3 4 3 15 8 9 10 10 15 10 8 9
24 21 20 20 21 18 17 19 19 19 20 20 19 16 5 15 9 8 11 11 12 19 21 16 11 1 3 1 3 5 4 1 4 3 6 8 20 3 10 7 11 11 14 13 10
22 20 19 19 18 16 20 21 23 22 19 18 13 10 4 8 11 18 14 7 13 10 12 9 5 1 2 6 3 1 3 5 6 7 6 9 3 10 16 11 9 12 10 12 12
21 20 20 20 17 16 22 23 22 16 8 1 7 4 4 5 10 20 16 11 4 13 6 3 3 3 2 4 7 6 4 3 5 4 2 7 9 10 6 7 10 10 10 11 12
21 22 20 21 18 15 21 11 5 3 3 4 6 5 3 6 18 13 16 7 5 3 4 4 3 6 5 5 3 3 2 2 4 4 5 7 6 12 10 7 10 15 13 14 15
22 21 21 19 17 17 12 2 2 1 3 10 8 15 15 12 9 9 14 6 6 5 6 3 2 5 10 6 6 1 3 4 6 1 3 7 15 14 14 13 16 21 21 18 13
23 21 19 17 18 11 10 8 4 2 2 2 9 11 6 5 4 12 10 5 8 7 4 5 1 7 5 6 6 4 3 2 4 5 1 7 9 6 6 7 9 17 19 15 15
25 21 19 19 10 8 10 6 15 4 2 3 7 5 5 6 4 5 9 5 3 9 7 3 2 4 4 2 4 2 1 3 3 4 4 5 6 5 8 12 7 8 8 11 12
25 22 21 18 11 3 5 1 14 3 4 9 6 17 3 1 12 6 4 3 5 8 5 4 5 3 3 3 4 3 4 4 2 3 4 3 2 8 5 7 6 6 8 8 10
31 28 25 19 9 11 7 15 5 2 3 5 6 10 8 5 2 7 3 4 3 5 5 2 2 3 4 4 4 7 5 6 4 3 2 4 4 6 3 4 2 4 9 9 8
35 25 15 4 1 3 10 3 3 1 2 3 8 14 12 5 5 7 6 3 4 5 3 2 2 1 3 6 3 5 6 2 4 2 6 3 3 9 9 12 4 8 9 9 8
21 13 11 4 1 14 9 1 3 4 2 5 12 14 6 7 11 7 6 4 3 5 4 4 2 5 2 4 5 4 6 4 4 3 4 3 5 6 4 6 3 6 4 9 11
15 13 16 15 10 15 2 2 1 4 4 9 15 8 4 4 6 5 2 5 3 3 5 4 1 3 4 3 6 3 2 4 3 4 3 4 6 9 3 5 7 8 9 10 10
7 4 9 11 7 8 2 5 3 4 7 7 5 1 4 4 5 3 7 4 3 6 2 5 4 2 2 4 1 4 6 3 3 1 4 4 4 5 5 4 2 7 7 8 8
5 3 6 4 2 2 2 3 3 6 6 2 3 4 6 5 6 3 9 1 7 4 4 1 4 1 4 4 6 3 2 1 3 4 3 4 5 6 4 4 4 7 7 13 14
3 3 3 6 2 1 2 6 8 6 6 4 4 7 4 4 4 3 7 3 8 6 6 1 4 3 6 2 4 4 6 6 3 3 2 3 8 6 5 3 6 16 13 9 12
2 1 1 1 2 2 3 3 3 7 8 3 3 3 5 5 5 5 4 5 8 8 7 4 1 2 2 5 3 3 5 4 4 2 6 2 6 3 7 14 19 15 13 7 7
1 2 3 1 2 1 4 3 2 3 4 5 5 12 5 3 3 4 3 4 3 3 9 6 3 4 5 4 3 3 5 7 6 3 3 8 15 19 19 18 18 17 16 6 10
2 1 2 2 3 2 3 6 6 6 6 8 7 4 5 3 4 4 3 3 5 4 3 4 4 1 4 6 3 4 5 7 9 18 6 15 13 22 19 19 16 8 9 11 13
2 2 3 2 1 4 3 4 6 4 4 3 5 4 7 3 2 5 6 3 3 1 3 1 2 2 5 5 7 6 9 10 13 15 14 23 25 21 19 10 7 9 12 13 14
5 4 1 4 2 0 2 2 5 3 8 7 6 6 9 3 4 3 5 6 6 6 3 4 3 2 4 3 3 5 11 15 6 6 8 9 11 6 11 7 6 10 11 13 16

GFSSW_925_spd_051.txt.gz
Wind_Speed
20 20 19 19 18 17 17 18 19 21 21 22 20 15 14 13 13 13 14 15 23 10 8 15 18 14 6 3 4 4 3 5 6 7 4 1 2 2 2 5 3 3 4 3 26
23 22 20 19 18 19 19 18 19 21 22 21 21 21 15 11 12 17 23 21 22 21 10 14 8 10 3 5 4 4 5 9 6 5 1 4 3 4 6 6 4 4 3 12 27
26 24 22 22 19 19 20 20 20 21 20 22 22 22 16 9 4 10 23 33 23 22 19 9 10 7 6 4 4 5 5 5 4 4 1 2 6 2 3 5 3 3 6 4 5
25 21 21 18 19 23 21 21 21 22 22 21 23 21 15 14 7 2 3 20 26 23 22 8 4 7 6 6 4 3 6 4 5 5 1 0 4 4 4 7 2 4 5 6 2
24 25 24 22 21 21 20 20 21 21 21 21 20 18 11 4 8 9 10 11 29 24 22 9 6 5 7 7 1 4 2 4 4 6 3 1 6 6 6 11 4 7 5 8 8
25 24 23 21 19 20 19 19 18 19 19 19 18 17 7 9 12 13 15 16 27 22 21 14 8 6 4 4 10 3 6 7 4 4 3 4 6 4 4 8 10 7 8 9 8
25 22 22 20 19 19 18 17 17 18 18 17 17 13 7 15 3 5 7 19 23 23 9 16 9 7 4 3 5 1 3 2 5 3 5 2 10 9 7 9 11 15 8 8 10
23 21 19 19 18 19 16 16 20 21 19 15 13 7 4 16 12 4 7 17 18 21 17 21 12 4 3 1 3 6 3 3 3 6 5 7 20 1 10 8 10 11 13 8 9
22 19 20 20 19 19 17 20 22 22 18 12 9 7 3 5 9 14 6 8 12 11 12 13 9 2 3 5 3 2 4 4 5 6 4 8 3 4 8 9 11 12 13 9 10
21 21 20 20 20 18 18 26 24 14 8 7 8 5 4 5 9 10 9 7 4 10 5 5 5 5 4 4 8 5 5 3 5 2 3 7 8 15 9 5 8 9 11 11 10
21 21 22 20 19 17 18 15 5 2 2 3 4 4 4 3 13 7 9 7 4 3 5 4 2 8 13 7 3 5 3 3 3 1 3 6 5 13 9 6 9 11 14 15 15
23 23 21 18 16 15 9 0 4 4 3 2 8 4 4 8 6 6 15 6 6 4 6 4 3 10 4 3 1 3 1 3 5 0 2 6 11 17 15 11 14 16 17 17 14
25 23 20 18 17 10 4 6 4 3 2 4 5 5 5 5 4 7 10 3 5 4 3 4 3 9 8 2 4 1 3 3 3 3 3 7 7 6 4 4 5 8 11 11 14
26 26 23 19 9 3 7 6 7 1 2 2 4 4 5 6 4 6 11 4 3 5 5 3 3 13 8 6 5 4 3 2 2 3 2 4 5 6 7 9 6 7 7 9 10
29 31 28 17 4 3 4 1 8 1 4 4 4 6 4 1 12 2 1 1 5 6 5 2 4 7 4 5 4 3 4 4 3 4 2 1 2 8 4 6 4 5 9 9 8
34 24 10 2 2 3 1 11 4 2 3 5 5 8 6 4 3 4 3 4 4 6 6 3 1 3 3 4 3 8 5 6 4 2 2 2 4 6 2 2 5 6 8 10 11
25 15 10 4 2 10 6 3 4 3 1 4 8 10 8 13 6 4 3 4 4 5 3 3 3 2 4 7 5 5 6 3 4 3 4 3 2 9 9 9 4 4 7 8 8
13 15 19 12 6 17 8 2 6 3 2 1 11 13 6 6 8 7 6 3 3 5 4 3 0 3 1 4 5 1 5 4 4 1 3 2 5 5 3 3 5 3 4 5 11
17 15 19 14 10 10 2 3 2 2 2 8 12 7 4 5 4 5 0 4 3 1 5 4 1 1 2 3 5 3 2 3 5 3 2 3 7 8 5 4 3 8 8 8 8
4 4 9 10 4 6 2 5 2 5 10 5 4 2 6 3 4 4 4 2 3 2 1 4 4 2 3 4 5 3 7 3 3 2 3 4 5 4 3 2 5 10 10 9 7
4 3 6 7 5 4 2 5 4 8 8 5 3 5 5 5 4 2 5 1 3 4 2 4 3 2 4 2 5 2 1 5 4 3 3 3 6 5 3 2 5 8 9 7 11
3 3 6 10 3 1 2 4 8 4 4 4 5 6 4 4 3 3 6 2 6 6 4 1 4 3 2 2 3 3 5 5 3 3 1 2 6 2 4 5 6 13 11 13 7
2 2 4 4 3 3 2 3 2 3 3 1 3 2 2 5 5 3 3 3 7 5 6 3 2 3 4 5 3 2 4 4 4 3 5 4 5 2 7 10 11 11 13 10 6
2 3 3 1 1 2 2 3 3 3 2 3 4 5 5 3 5 4 3 4 3 5 7 6 3 4 5 4 3 2 4 6 6 3 4 7 8 15 17 11 14 12 8 10 11
3 1 1 3 3 3 3 2 4 5 3 6 4 4 5 3 3 3 2 2 5 4 4 4 2 0 4 5 2 4 4 7 8 10 6 4 7 19 17 16 12 6 10 12 12
2 2 2 2 5 6 3 6 5 4 4 4 5 8 7 3 0 5 5 2 2 3 3 3 3 3 4 4 7 5 8 9 10 9 11 18 23 23 15 6 4 7 9 11 13
5 4 3 4 4 3 4 3 4 2 7 7 5 4 9 5 1 2 3 5 5 6 3 4 4 2 4 4 3 5 9 12 5 5 9 12 14 5 6 8 3 6 7 9 11

GFSSW_925_spd_054.txt.gz
Wind_Speed
24 24 24 21 19 19 17 18 18 19 21 23 22 21 23 17 14 15 16 16 22 11 5 17 20 10 3 1 3 3 3 5 6 7 4 0 2 2 2 3 3 3 1 5 12
24 25 24 21 21 20 17 18 19 18 19 24 24 22 23 20 17 19 24 21 22 16 14 17 10 10 3 4 3 4 4 9 5 5 4 2 2 2 4 6 3 2 7 9 19
22 23 23 23 23 22 19 20 19 19 20 21 24 24 23 26 4 8 30 31 23 21 19 13 16 7 5 3 4 4 5 4 3 2 1 3 2 1 1 3 3 2 5 6 3
24 24 23 22 22 22 22 20 19 19 20 20 21 22 20 11 6 4 4 18 29 22 21 11 10 9 6 6 4 3 5 4 3 3 1 1 1 3 4 6 4 1 1 3 3
24 22 22 21 20 20 20 17 18 19 19 19 17 17 15 5 8 6 0 1 27 25 23 11 11 6 10 7 4 5 2 5 5 4 2 2 4 5 7 7 5 6 5 4 3
22 20 20 20 19 18 18 18 18 17 16 17 14 14 9 9 8 18 17 6 27 26 22 14 7 5 5 5 7 6 8 6 4 4 3 4 5 5 5 2 5 5 9 7 6
22 20 19 18 18 18 18 18 17 17 17 16 14 12 7 10 6 6 11 13 32 26 16 18 10 6 6 3 6 4 4 3 6 4 5 5 8 8 8 8 11 9 8 9 9
21 19 18 19 19 18 19 18 19 20 17 16 12 7 6 7 13 14 7 15 22 19 17 19 12 5 3 3 4 6 3 1 3 8 5 7 8 3 6 8 12 10 8 9 11
23 21 19 18 19 19 19 18 22 25 22 14 6 4 4 2 9 21 9 15 19 16 16 19 10 4 2 6 3 2 4 4 5 7 4 8 2 3 4 2 9 10 10 6 8
23 20 21 20 19 18 17 19 22 7 3 5 5 4 5 3 4 7 7 20 5 9 9 8 6 5 3 5 7 8 5 3 6 1 2 4 7 8 9 6 8 9 10 10 8
24 22 21 19 16 15 14 8 5 3 1 4 6 3 3 3 5 5 6 8 5 5 8 8 7 10 16 6 4 6 4 3 2 1 2 5 4 12 11 7 8 9 11 14 13
25 23 23 20 17 15 7 1 4 1 3 5 6 4 3 5 7 3 12 4 4 5 6 6 5 4 11 9 5 5 5 2 2 1 1 5 9 16 14 7 10 12 13 10 8
28 28 26 19 17 10 5 4 3 3 2 3 3 6 2 1 5 4 7 2 2 2 4 5 9 11 11 9 8 3 3 2 3 3 2 7 7 5 3 3 5 6 5 6 8
31 30 27 23 5 5 4 1 6 2 4 5 1 3 2 5 5 3 5 4 2 5 5 4 5 14 11 6 3 2 5 2 3 2 2 4 5 6 4 7 6 8 9 8 8
32 25 16 4 10 4 3 0 9 0 4 1 1 3 5 3 11 1 4 1 5 4 4 2 7 8 10 6 11 3 5 5 3 4 2 2 2 7 2 4 3 7 6 6 6
19 19 9 6 6 6 4 13 4 3 4 3 1 3 9 2 4 4 3 3 2 7 9 4 3 3 2 5 2 9 5 6 4 3 1 2 3 5 1 2 4 4 6 7 8
17 15 9 7 2 8 10 2 3 4 2 2 3 7 9 7 5 4 2 4 4 4 4 5 3 2 4 7 5 4 5 2 3 3 4 1 0 8 3 4 2 2 7 8 7
13 18 18 12 7 6 3 3 5 2 1 3 8 12 5 5 7 3 5 4 4 4 3 4 0 2 1 3 6 2 5 4 4 1 3 3 5 4 3 3 3 2 5 6 8
12 11 13 15 4 2 2 4 3 2 2 7 10 7 4 4 4 4 4 3 1 1 4 4 3 1 3 3 3 3 2 3 6 3 3 3 6 6 4 2 3 8 9 10 8
10 7 5 11 9 3 3 5 5 1 4 5 4 1 3 3 4 4 3 1 3 2 1 2 4 2 3 3 7 3 7 3 3 2 2 4 4 4 0 1 5 9 10 9 7
4 3 6 13 7 4 3 4 3 5 5 4 3 4 5 4 4 2 4 2 1 2 5 3 3 2 4 1 6 2 1 5 4 3 3 2 4 5 4 2 4 9 9 9 9
3 3 13 16 4 2 3 4 5 4 3 4 4 5 3 3 3 2 3 3 4 5 4 1 4 3 2 2 2 2 5 4 4 3 1 1 6 3 6 3 2 8 8 6 6
2 2 5 6 3 3 2 3 2 3 4 3 3 2 2 4 4 3 3 1 6 4 5 5 2 3 1 3 4 3 3 4 5 3 4 4 5 1 6 6 6 7 6 7 9
3 4 4 3 1 1 4 5 5 1 3 3 4 4 4 4 4 4 2 4 5 5 6 5 3 3 5 3 3 2 4 5 5 3 3 6 7 12 12 9 10 6 5 8 8
3 1 0 3 3 5 3 2 3 4 4 5 4 3 4 3 3 3 2 2 5 5 4 3 3 3 2 4 3 4 4 7 6 5 6 4 6 12 12 12 11 2 6 6 9
2 2 2 3 5 5 6 5 3 2 4 3 6 6 6 4 2 6 5 2 3 2 3 2 3 2 3 2 5 4 7 8 9 6 10 15 19 20 16 7 4 5 8 10 8
6 1 1 3 4 2 2 4 5 1 6 6 4 5 9 5 2 1 1 4 5 6 3 3 4 2 3 4 5 5 8 12 6 6 11 10 14 9 6 5 2 4 5 6 7

GFSSW_925_spd_057.txt.gz
Wind_Speed
21 21 21 22 21 20 21 19 17 16 14 15 17 21 22 22 25 18 21 16 28 9 2 12 16 6 3 2 3 3 2 5 9 8 4 4 5 1 1 1 2 1 2 6 3
23 22 22 21 20 21 20 19 18 18 17 16 17 18 20 20 23 23 21 19 20 17 16 13 13 9 3 4 3 3 4 8 4 5 4 5 3 2 2 3 1 1 5 6 9
24 23 22 20 20 20 19 19 19 17 17 16 17 17 18 17 13 7 28 28 22 20 15 10 17 9 5 3 4 4 5 4 3 4 4 6 3 2 3 2 4 3 2 4 5
25 22 20 19 19 18 17 17 17 16 17 17 16 16 13 9 9 5 8 26 30 23 18 10 11 11 7 6 4 3 5 4 3 4 4 4 3 1 3 3 4 4 1 2 7
24 21 19 18 18 17 16 15 16 17 16 15 15 13 10 8 9 6 3 3 29 28 24 13 12 9 12 9 4 3 2 4 3 3 2 4 3 4 7 5 4 4 3 4 2
23 21 19 18 17 17 17 15 16 15 14 14 14 12 6 10 5 26 9 10 26 26 24 17 11 5 7 7 7 6 6 2 2 1 1 3 4 6 5 3 5 2 8 5 6
23 20 19 18 17 18 17 17 18 16 15 15 14 9 6 12 5 13 13 7 26 28 17 20 13 6 6 5 5 5 3 3 8 4 3 3 5 6 10 5 8 9 8 8 10
23 21 20 18 17 17 17 18 19 18 18 16 10 8 6 8 11 5 2 8 23 28 23 19 8 6 4 5 4 5 1 3 2 8 5 6 6 3 3 4 10 9 8 9 13
24 22 17 19 19 18 18 18 20 20 20 15 3 6 4 1 4 10 8 6 24 24 21 23 6 3 3 6 4 4 4 7 3 7 3 11 2 4 2 2 7 9 8 8 11
26 24 22 19 17 15 15 17 18 7 3 6 2 3 3 3 3 5 6 10 12 15 9 12 6 4 3 6 9 7 4 3 9 3 2 3 6 8 8 3 8 10 11 9 10
26 26 24 22 18 12 14 7 4 2 0 2 4 5 5 5 6 1 4 15 9 13 10 12 7 15 14 6 3 9 5 4 2 2 2 4 4 9 11 7 10 12 13 13 9
30 29 28 25 15 9 8 2 3 0 1 5 6 6 6 3 5 5 6 8 8 13 10 8 13 9 12 7 5 6 6 4 1 2 2 2 8 14 11 6 5 8 8 7 7
33 28 25 21 7 4 4 2 2 2 0 3 2 2 1 0 6 7 6 5 3 7 11 6 3 9 13 10 9 2 5 3 3 1 2 5 5 2 1 4 7 8 4 5 5
26 26 17 12 8 4 1 1 3 2 3 5 3 3 3 5 3 4 5 3 4 8 12 1 2 11 10 12 9 4 2 4 4 2 1 4 3 3 3 7 7 7 8 7 8
29 24 15 14 7 2 3 3 8 1 5 3 2 5 3 3 5 5 7 4 6 10 4 3 10 11 7 3 6 1 3 4 3 4 2 2 2 3 3 2 4 5 5 6 7
28 25 15 9 9 5 4 7 2 5 5 2 2 7 1 5 4 4 5 4 5 9 10 2 3 6 3 11 5 10 5 6 4 2 0 1 2 3 2 3 2 1 4 6 8
21 24 22 13 4 6 1 3 4 6 2 3 2 6 2 6 6 4 2 4 3 4 3 5 5 3 5 9 2 1 3 2 2 1 3 2 2 5 3 1 4 2 5 6 6
16 14 16 14 6 5 7 4 9 1 1 4 6 11 6 6 7 4 2 3 5 4 3 4 3 3 1 3 6 2 2 4 4 3 1 1 5 2 3 1 4 2 5 5 5
13 6 5 8 8 5 3 5 3 2 1 5 6 7 5 6 5 4 3 1 3 4 4 4 3 2 5 2 2 3 2 2 6 2 1 2 5 5 2 4 4 6 7 7 6
8 4 5 13 12 3 1 6 3 3 2 4 4 1 4 2 3 2 1 2 3 3 0 2 5 2 1 3 8 2 6 2 2 2 3 3 4 3 3 5 2 7 7 8 7
3 3 4 17 4 4 3 3 3 3 3 3 3 4 3 4 2 2 1 2 1 2 4 3 3 1 3 1 5 2 1 4 3 1 3 1 3 6 8 6 1 5 5 5 8
2 3 13 15 4 2 3 4 5 4 3 3 4 4 3 4 3 2 3 3 3 4 3 1 4 3 2 1 1 1 4 4 3 3 2 1 4 2 5 3 4 7 6 6 5
2 2 5 4 4 4 5 4 2 5 4 3 2 2 1 3 4 2 3 2 4 3 5 4 2 3 1 1 3 3 3 3 4 3 4 3 3 0 1 3 5 6 4 6 8
2 3 4 4 1 3 5 4 5 2 3 3 3 4 3 4 5 3 2 4 2 2 8 6 3 3 4 3 3 3 4 4 5 3 3 5 5 6 6 5 7 3 4 6 7
3 1 0 3 3 3 1 3 3 5 5 6 4 2 3 3 2 2 2 2 5 4 4 3 3 1 1 1 3 3 4 7 6 5 6 3 6 7 7 7 7 3 4 5 6
2 2 1 3 4 3 5 2 5 4 4 3 5 3 2 4 3 6 5 3 3 2 3 2 3 2 3 0 5 4 7 9 9 4 9 7 17 13 11 6 2 2 1 2 3
5 2 0 3 2 1 1 3 1 2 3 4 2 4 7 4 2 1 0 3 6 6 3 4 5 2 2 3 3 5 10 14 5 5 9 7 10 3 3 5 1 1 1 2 3

GFSSW_925_spd_060.txt.gz
Wind_Speed
23 24 22 20 19 17 16 17 16 16 14 13 13 13 14 15 16 18 15 16 20 12 3 13 17 13 8 8 5 3 9 16 22 20 16 10 12 7 2 8 4 2 2 4 1
23 25 24 21 18 17 15 16 16 15 14 14 13 14 13 14 16 18 18 14 21 20 10 18 18 16 8 8 7 11 14 19 9 9 11 12 11 11 8 9 8 6 2 4 7
25 24 22 18 16 17 16 15 14 13 14 14 13 13 11 10 9 10 15 24 25 20 19 15 20 13 11 9 11 13 15 7 7 7 8 11 9 6 8 9 6 6 2 3 6
24 22 19 16 15 16 15 14 13 13 13 12 12 12 9 6 8 8 5 21 26 23 20 19 19 14 11 14 13 9 13 7 6 6 5 10 7 6 8 2 5 7 4 2 5
24 24 21 16 14 15 15 15 13 13 12 11 10 9 8 11 13 5 9 10 29 26 26 19 23 18 15 16 12 13 5 8 6 6 5 5 6 7 8 6 3 4 3 3 2
24 23 21 19 16 16 15 15 14 14 14 11 9 8 8 15 11 19 15 6 22 31 27 23 18 17 15 12 13 12 6 8 10 7 4 7 7 4 3 4 10 10 11 9 8
24 22 20 19 18 14 15 15 15 15 14 13 10 7 9 16 8 4 16 9 12 32 23 25 15 17 12 7 9 4 12 13 8 9 10 6 13 13 15 13 11 11 10 9 10
24 22 22 17 17 16 16 16 16 16 16 14 11 6 7 14 23 11 7 10 11 25 25 23 14 16 9 7 11 13 6 9 11 16 6 7 14 3 4 10 13 13 13 12 15
26 24 21 19 17 16 15 14 15 15 15 13 4 4 5 3 8 13 12 12 19 26 22 21 7 13 8 14 9 14 10 17 5 10 13 16 8 6 6 5 8 8 9 9 12
29 25 21 20 18 14 12 15 13 2 5 10 8 4 8 12 7 9 5 7 15 22 15 17 6 8 14 15 15 17 16 14 14 7 10 10 16 6 8 7 11 11 11 10 11
32 26 23 20 17 13 6 4 2 3 2 2 2 4 2 7 9 4 1 7 13 20 14 19 5 14 20 19 0 8 16 9 7 6 7 12 11 12 12 13 14 15 14 12 10
31 28 22 19 9 7 2 0 1 2 2 2 5 2 14 8 5 5 4 7 24 22 14 11 14 14 14 14 7 12 13 10 5 5 6 5 8 12 14 13 10 10 10 8 5
31 28 23 21 16 9 4 2 0 2 1 5 5 4 7 8 4 7 4 11 21 20 15 16 6 14 16 14 12 9 12 10 4 6 1 4 7 6 3 4 5 6 5 5 5
29 22 23 6 9 4 4 6 2 1 1 2 2 3 3 3 5 4 3 1 5 9 6 3 6 18 18 18 14 11 4 8 8 7 3 2 3 4 7 9 9 10 8 7 7
26 22 16 20 3 5 8 5 3 2 2 4 2 4 2 5 5 3 3 4 10 12 5 4 7 14 17 18 14 4 7 6 5 3 1 4 4 6 9 10 9 8 7 7 7
17 20 12 10 10 5 5 4 3 3 9 5 6 3 4 4 4 5 5 9 4 9 14 5 4 5 3 8 6 11 10 7 4 1 4 4 4 8 9 11 9 5 6 5 6
15 13 15 9 1 4 7 4 2 7 2 6 5 1 7 5 8 5 5 5 4 5 4 2 4 2 8 7 5 3 9 4 3 3 2 1 4 3 8 6 9 5 5 5 5
15 2 5 7 5 6 5 2 10 4 4 4 5 10 5 4 6 6 4 5 7 9 5 3 4 2 2 1 6 7 4 2 3 4 3 3 5 3 7 8 9 2 3 3 5
10 3 3 5 9 3 2 7 3 1 2 4 7 5 5 9 5 2 4 3 3 4 4 4 4 4 2 2 3 3 4 2 4 2 2 4 3 4 4 9 7 2 3 4 5
6 2 3 15 5 1 1 6 2 2 2 2 3 2 4 4 3 3 3 2 2 2 1 3 6 2 5 3 9 2 8 3 0 4 4 4 3 4 11 14 6 2 4 3 4
3 1 4 15 2 5 4 4 2 3 3 3 2 4 3 4 4 3 2 2 2 2 3 6 3 3 3 2 6 4 3 2 1 2 2 2 3 8 15 13 5 4 3 2 4
4 2 9 7 4 3 3 4 5 6 4 3 4 5 4 3 3 2 2 1 2 2 3 2 4 5 2 2 3 1 2 3 2 3 1 3 3 5 9 9 2 5 1 2 4
3 3 5 4 3 3 1 1 1 5 4 3 2 1 1 4 3 2 2 3 2 1 4 5 3 5 4 2 1 4 4 2 4 2 4 2 4 4 5 6 4 5 1 3 4
3 1 3 3 2 1 2 4 3 2 2 2 2 2 3 2 3 4 3 3 1 2 6 3 3 1 0 3 3 4 8 9 4 3 4 5 2 7 7 4 7 3 1 2 3
3 2 2 2 3 3 1 1 0 2 3 4 2 1 2 3 2 3 2 4 3 2 2 1 3 0 1 1 2 3 6 12 8 5 5 1 5 4 6 7 7 1 0 2 2
3 3 2 3 3 1 2 1 1 1 2 1 2 2 1 2 0 5 5 3 2 2 2 2 3 1 0 0 5 5 9 9 13 13 12 13 18 15 6 3 2 3 2 2 1
4 2 1 3 3 2 1 0 1 1 1 1 5 3 4 2 1 2 1 2 3 5 3 3 5 1 1 2 3 8 15 17 10 9 12 10 9 5 4 5 3 4 3 2 2

GFSSW_925_spd_063.txt.gz
Wind_Speed
20 23 24 24 23 20 17 17 15 14 14 13 13 11 11 12 13 15 15 6 23 4 5 18 16 14 14 12 15 8 14 18 24 24 19 11 17 14 7 11 6 6 4 5 8
22 23 24 22 19 16 14 14 15 13 13 11 12 13 12 11 16 22 15 16 18 13 12 21 19 17 11 14 8 12 15 23 19 19 10 13 10 15 8 13 13 9 5 5 7
22 22 24 19 18 14 14 14 13 12 12 11 11 10 9 9 17 24 24 24 23 20 14 13 23 17 16 13 16 13 17 19 11 4 2 8 14 14 13 13 13 13 10 6 6
23 24 23 19 16 16 16 13 12 13 11 11 9 8 7 8 6 8 15 25 26 23 21 16 21 20 15 15 17 11 21 12 7 3 3 10 12 9 13 3 2 7 4 3 7
26 24 21 20 17 16 14 13 13 13 12 9 8 7 6 12 16 7 5 15 27 28 27 18 23 22 18 18 16 16 10 12 5 7 9 14 16 12 11 5 4 6 3 3 2
26 23 21 20 18 17 13 12 13 12 12 9 9 6 9 18 13 15 15 4 25 31 28 26 20 22 13 12 17 13 13 11 10 10 7 9 13 8 11 10 9 9 8 7 6
26 23 21 19 16 15 13 14 13 12 12 10 8 8 13 16 5 1 6 15 6 27 23 29 23 18 9 10 10 2 17 7 14 13 7 8 13 18 13 10 12 10 11 10 9
31 30 24 17 14 12 12 12 11 12 12 11 9 8 7 12 23 21 14 14 12 25 27 24 22 11 8 7 12 13 11 15 16 12 12 12 14 17 18 16 17 15 13 13 14
30 27 23 19 15 12 9 10 10 11 11 9 7 9 9 4 20 14 16 15 12 25 21 21 10 10 14 13 11 14 13 17 13 22 10 16 9 12 8 9 12 12 12 12 12
31 28 22 17 16 10 8 8 8 1 3 7 2 6 6 10 13 10 13 11 11 19 20 13 9 10 12 14 13 19 21 19 18 11 20 17 15 6 9 9 11 11 11 11 11
31 27 23 19 8 3 0 2 3 3 5 3 3 8 8 3 9 10 3 3 10 16 14 18 7 17 26 23 18 16 17 12 14 9 11 16 15 18 12 12 12 12 12 13 13
30 23 20 20 20 12 4 2 5 4 3 2 7 7 11 1 3 8 6 13 11 20 17 10 12 13 18 18 12 9 16 13 3 9 9 14 15 12 12 15 14 13 11 12 10
27 22 15 14 14 12 11 5 4 5 2 4 6 6 4 8 5 5 1 3 11 23 18 13 4 12 16 15 13 12 14 16 6 7 10 4 12 14 10 3 4 6 6 3 3
25 23 17 2 2 6 7 9 4 4 2 8 5 4 4 7 6 6 7 2 6 22 17 7 3 13 9 17 14 12 7 9 8 11 6 9 3 10 11 7 8 8 7 6 5
23 19 12 9 2 5 5 6 3 2 4 7 6 7 4 5 5 7 5 9 11 10 5 3 5 16 16 15 15 3 9 10 8 8 1 7 5 9 11 11 10 9 7 6 5
25 14 12 5 4 1 2 4 4 3 9 5 6 5 4 0 3 1 4 9 9 9 13 4 4 6 2 9 6 10 12 8 4 2 4 10 8 10 11 12 12 8 8 5 4
24 10 8 6 6 4 5 2 2 6 2 6 3 2 4 4 4 6 9 6 5 4 2 2 3 6 1 11 5 4 13 4 4 4 4 3 5 4 9 14 12 10 7 4 3
19 8 7 6 8 7 4 3 9 6 6 3 3 10 4 2 6 5 9 8 10 9 3 2 3 3 3 3 4 7 3 3 5 7 7 5 7 2 10 9 11 5 3 2 2
10 2 5 7 8 5 4 7 3 1 4 2 3 6 4 7 4 2 10 5 5 2 1 4 3 2 2 2 8 4 4 2 2 2 2 7 4 5 8 12 10 4 3 2 0
7 3 3 8 2 5 4 5 2 2 5 4 3 4 2 4 2 2 4 2 3 2 7 4 6 6 5 4 4 1 6 3 2 3 5 5 5 4 16 15 10 5 3 2 1
6 2 3 7 1 4 3 4 1 3 3 4 3 1 3 3 1 3 3 2 1 2 1 5 3 5 5 4 6 3 2 2 3 3 3 4 4 8 15 16 10 4 2 2 2
5 2 6 4 2 3 2 2 3 4 1 1 1 3 3 1 4 2 3 4 2 1 2 4 5 4 3 2 4 6 6 8 3 5 1 4 4 10 16 13 7 3 4 2 1
6 3 3 3 2 3 2 3 1 4 4 2 1 2 2 3 1 1 2 2 3 3 2 4 4 4 2 2 3 5 8 6 1 3 3 4 5 7 12 8 4 1 4 3 1
4 3 3 2 2 1 1 0 2 2 1 1 2 2 5 4 1 3 3 2 1 3 4 2 2 3 3 4 3 4 10 10 5 2 4 6 4 11 10 8 5 3 5 3 2
3 3 2 2 2 3 2 2 4 2 2 2 3 4 5 4 3 2 2 6 4 3 2 2 3 1 1 1 2 4 7 13 8 8 4 1 4 10 9 4 2 1 2 2 2
3 3 4 5 4 5 2 1 4 1 3 3 5 5 5 3 1 3 5 4 3 5 3 1 2 1 2 2 6 8 10 9 13 14 14 13 13 10 10 1 2 2 3 5 3
6 2 2 4 4 3 1 1 1 2 2 4 1 4 5 1 1 2 2 1 0 3 7 4 4 1 1 1 5 9 16 16 10 8 14 10 7 5 0 2 4 3 4 4 4

GFSSW_925_spd_066.txt.gz
Wind_Speed
24 23 23 23 22 20 17 14 13 13 12 14 12 11 11 9 10 12 14 9 14 4 10 16 14 15 11 5 11 10 8 12 18 19 11 7 6 5 1 4 2 4 9 11 15
25 23 22 22 19 18 15 13 14 14 11 11 10 10 9 9 13 21 19 20 18 20 6 17 14 14 4 10 8 9 9 16 20 14 7 11 4 9 5 4 4 6 11 16 14
25 25 25 22 18 17 15 14 11 11 11 9 8 8 6 5 12 14 27 24 22 20 14 13 19 13 10 7 10 7 12 16 14 4 7 6 2 1 6 5 8 8 12 10 15
28 26 23 21 18 17 15 14 10 10 11 8 7 6 3 5 5 11 14 33 26 20 18 11 16 17 8 12 13 8 17 15 9 3 2 2 4 5 6 5 5 11 9 8 7
29 27 24 20 18 17 15 12 10 10 9 7 6 3 3 7 11 19 6 17 24 24 24 14 16 17 12 12 12 17 13 15 4 5 4 5 4 6 4 6 7 9 6 2 2
31 30 29 23 17 14 12 9 8 9 8 7 5 3 6 12 14 14 15 5 18 25 25 21 11 15 9 7 14 10 15 7 6 4 1 3 5 6 7 2 6 2 3 4 4
30 31 28 25 15 10 11 9 8 7 7 5 4 5 9 14 6 3 3 4 5 28 16 24 23 14 3 8 10 2 10 10 7 8 3 1 8 17 8 5 6 8 7 6 6
32 31 28 24 15 9 7 8 7 6 7 6 4 5 6 9 19 21 10 8 12 10 24 24 27 2 5 4 4 4 4 7 8 11 7 8 7 12 9 8 8 9 6 7 8
33 32 30 26 17 8 4 6 7 7 8 6 5 6 7 4 13 15 15 5 7 12 16 19 19 3 5 5 7 8 6 13 10 9 5 10 3 15 14 12 9 9 9 8 7
32 31 28 28 9 2 3 3 5 1 3 5 2 3 7 8 9 15 8 7 9 10 11 11 5 7 7 7 12 15 14 13 15 17 14 12 10 8 5 3 7 8 7 5 5
30 28 23 24 16 8 4 2 1 2 3 3 3 10 9 16 5 8 3 3 4 11 8 13 7 16 23 15 11 12 13 13 14 10 18 17 12 12 6 6 7 8 7 6 6
26 26 20 17 16 11 9 5 7 3 4 3 5 6 4 6 3 8 13 8 7 8 15 10 10 11 14 14 16 7 12 16 3 12 9 11 14 13 9 10 9 8 8 7 4
26 23 21 9 11 9 13 8 4 6 2 5 4 6 5 4 4 7 11 8 9 17 15 9 4 7 11 12 13 14 12 13 6 5 3 3 8 11 7 3 2 3 5 5 5
25 22 19 12 5 6 4 9 4 4 0 6 4 2 3 6 3 5 3 4 4 14 9 5 4 11 6 9 16 11 9 8 10 6 3 8 3 14 15 5 5 6 6 6 5
24 21 15 8 10 2 2 5 5 3 3 11 4 3 2 3 7 3 4 4 4 9 5 3 3 8 5 7 12 4 7 8 8 7 1 8 1 2 12 7 6 8 7 6 5
24 17 11 9 6 2 6 8 5 1 6 5 5 5 4 11 4 4 5 5 3 9 13 4 2 2 2 4 6 6 8 9 2 1 2 7 6 4 7 12 10 8 8 7 6
26 10 6 6 6 7 8 2 1 6 0 7 4 8 6 5 6 7 7 5 3 4 2 3 2 4 2 6 2 6 9 3 2 2 4 2 6 5 12 13 9 8 9 7 7
12 6 3 7 8 7 5 2 8 2 3 3 5 5 5 3 5 10 5 5 8 6 3 2 2 2 3 1 5 3 2 3 5 5 4 2 5 4 8 12 9 8 8 6 6
8 3 4 3 6 6 4 6 3 1 3 5 5 3 3 6 4 1 10 5 3 2 3 4 1 1 4 2 2 3 3 2 3 3 4 5 3 3 2 9 8 8 7 7 6
3 2 2 7 1 4 2 4 1 4 6 8 4 2 6 4 2 3 4 1 8 10 9 6 4 2 3 2 4 1 3 2 1 2 3 4 6 4 11 12 9 8 7 7 5
3 2 2 6 1 2 3 2 1 2 3 4 6 3 4 3 2 3 5 1 1 2 6 4 3 5 8 6 8 3 1 2 2 1 1 2 3 4 15 12 9 8 7 7 6
5 1 1 2 2 2 1 3 1 2 1 1 3 4 2 2 1 3 5 5 5 4 2 4 4 3 2 2 2 3 3 7 3 3 2 3 2 7 10 9 7 7 6 6 5
4 2 2 2 1 1 2 3 3 2 2 2 1 3 3 1 1 2 4 1 2 5 3 3 2 3 2 1 2 2 3 3 5 3 2 2 3 8 9 8 5 6 8 7 6
4 3 4 1 1 5 3 3 3 3 2 2 0 3 3 3 2 4 5 1 2 3 5 5 1 1 1 3 3 3 6 6 5 3 3 4 4 7 11 8 7 8 6 7 6
2 3 3 3 2 6 4 7 6 2 3 2 3 5 5 3 3 4 7 5 4 3 2 3 1 3 2 2 2 4 5 7 6 5 4 2 2 11 8 7 6 7 6 6 4
4 5 5 5 8 7 2 5 7 2 2 3 3 1 2 3 3 2 4 5 5 4 2 2 1 3 3 1 3 4 7 8 8 9 9 7 7 5 4 6 6 7 7 5 4
8 4 1 7 5 4 3 7 7 5 3 4 7 2 5 3 5 5 5 4 3 5 5 5 4 2 1 2 4 6 12 13 7 7 10 9 8 3 4 4 4 4 7 6 6

GFSSW_925_spd_069.txt.gz
Wind_Speed
23 23 23 22 20 18 16 15 10 10 10 11 10 7 7 7 7 7 8 13 13 5 6 15 13 11 5 2 9 5 3 5 6 8 11 10 12 2 3 6 5 3 6 9 10
24 26 25 22 19 17 16 15 11 8 7 7 7 6 6 5 6 13 17 18 20 13 8 18 8 8 1 4 5 5 8 19 23 20 10 15 2 12 3 4 6 6 11 17 11
25 27 27 23 19 16 16 14 12 6 7 6 5 5 3 3 3 8 12 27 25 20 11 14 14 6 4 3 5 7 8 13 10 21 8 7 9 6 5 2 4 9 11 10 13
28 28 26 25 21 14 14 13 8 5 8 5 4 2 2 3 5 4 20 28 31 23 21 14 9 6 5 6 11 7 10 5 7 5 10 8 7 1 3 3 8 7 13 9 11
28 29 28 25 23 13 11 10 4 4 4 4 2 2 3 2 9 13 15 11 22 25 25 9 8 7 6 5 6 8 2 13 10 4 3 6 3 2 3 4 11 10 7 9 9
28 30 27 25 20 8 6 6 6 6 4 3 2 1 2 4 10 10 4 6 18 21 26 15 8 7 6 6 8 8 12 9 3 5 1 1 3 3 1 4 8 9 2 3 9
29 30 28 26 19 7 3 4 5 3 2 2 1 2 3 9 5 8 9 1 2 11 13 16 11 10 8 2 5 4 13 7 3 5 2 3 6 6 2 4 3 1 6 3 2
28 29 28 27 12 5 2 2 4 3 3 2 1 2 4 9 10 11 6 2 4 1 11 22 16 3 2 2 4 5 5 4 4 7 3 5 6 10 5 3 7 5 5 6 5
27 27 26 26 16 6 2 3 4 3 3 1 3 2 5 12 4 10 6 7 1 2 8 14 5 2 3 6 3 4 4 6 4 8 5 4 4 8 6 8 8 6 7 6 6
25 25 21 22 18 10 5 4 4 5 7 6 1 1 3 5 11 4 4 5 2 0 4 7 5 4 4 6 13 8 4 4 7 8 7 7 8 4 4 10 10 7 7 8 8
22 20 15 16 16 13 9 3 4 4 4 2 2 3 6 9 5 10 6 6 3 2 7 7 5 15 15 10 2 9 8 5 7 7 7 14 8 9 7 3 8 7 7 6 6
20 17 16 11 11 11 10 5 5 3 5 5 3 2 5 4 2 5 5 5 5 9 7 7 10 6 8 10 9 4 3 8 3 7 14 10 14 9 12 7 8 9 8 5 2
22 18 13 10 5 5 12 6 2 4 2 3 1 2 3 3 3 4 5 0 1 5 12 3 5 11 10 9 9 4 7 4 5 2 2 3 9 14 13 6 7 5 5 4 6
23 20 12 10 2 8 4 8 4 3 2 7 6 3 2 2 2 5 3 2 4 9 7 3 1 9 7 8 4 4 6 10 11 5 4 5 4 9 15 9 7 7 6 7 7
25 21 8 3 3 3 2 5 8 3 4 13 4 3 1 1 3 4 5 2 8 6 4 2 5 6 5 4 3 6 6 7 3 6 3 2 1 7 8 9 8 8 7 7 6
28 19 5 2 3 1 4 5 1 5 6 7 7 4 4 5 2 3 2 5 3 9 9 4 3 4 2 3 3 8 3 8 4 3 1 6 6 5 6 19 6 4 8 8 8
22 7 2 2 1 3 2 2 4 6 2 7 3 5 7 4 5 3 3 4 4 5 3 5 3 3 2 3 5 4 6 2 1 0 5 3 7 11 5 4 8 11 9 8 8
11 2 1 3 3 2 2 3 9 2 4 5 4 5 1 3 4 3 5 3 5 5 4 4 2 2 0 1 4 9 3 5 6 4 4 2 7 6 7 9 12 11 9 8 8
9 3 5 2 6 4 1 7 4 4 4 5 5 3 2 2 6 3 2 2 2 2 5 4 3 1 4 2 7 5 5 4 3 2 3 4 4 6 5 8 11 12 9 8 8
10 4 4 3 5 4 4 5 2 5 4 4 3 1 2 3 3 4 2 5 2 5 3 4 5 2 3 1 2 3 4 2 2 2 4 4 4 4 7 10 10 9 8 7 6
4 3 1 4 3 4 3 3 3 4 1 2 4 2 2 1 1 3 2 0 6 5 6 5 3 3 3 4 6 4 3 3 0 4 4 2 5 5 14 14 12 9 8 8 8
5 2 4 1 4 2 2 4 1 3 4 3 3 3 3 2 3 3 4 1 5 2 6 2 4 3 2 8 8 4 4 3 3 4 1 3 5 4 8 9 8 7 8 7 8
4 2 4 4 3 3 4 3 3 2 2 3 2 3 2 1 2 3 4 2 3 2 3 3 2 3 2 4 2 5 6 7 1 2 4 4 5 1 7 7 7 8 7 7 7
3 4 4 4 1 2 4 4 2 2 2 1 2 2 3 1 1 3 2 2 2 2 2 1 3 5 6 4 4 5 5 6 5 3 2 5 3 3 7 9 7 7 8 8 8
3 1 2 4 4 6 4 3 5 4 3 3 3 5 4 3 3 4 2 1 2 3 2 3 3 2 1 3 3 4 4 7 6 5 6 3 6 11 12 9 9 8 6 7 7
2 3 4 3 7 5 4 3 3 4 1 5 2 8 5 0 1 3 5 5 5 4 3 2 3 3 3 3 3 4 7 8 8 6 6 3 5 6 4 4 6 9 8 8 7
5 4 3 4 5 4 3 8 10 8 4 4 3 4 4 2 1 1 0 1 5 7 4 4 4 3 3 3 2 6 13 14 6 6 12 9 9 1 3 7 7 8 8 8 7

GFSSW_925_spd_072.txt.gz
Wind_Speed
22 23 24 23 20 17 16 15 13 10 7 7 7 8 6 6 8 6 5 10 11 7 3 14 11 5 2 3 5 4 5 11 12 8 9 9 8 7 7 4 4 5 3 10 17
24 26 25 23 20 17 14 14 11 7 6 5 4 4 3 6 5 7 14 13 18 14 6 13 5 6 2 3 5 4 3 10 7 8 5 9 13 12 7 7 6 5 7 14 15
26 27 27 23 20 17 12 12 10 4 4 4 2 2 2 3 2 6 7 14 20 17 13 14 13 7 4 2 4 6 16 10 9 7 4 7 16 12 11 6 4 10 6 5 16
26 27 26 24 19 15 6 9 6 3 3 3 2 1 2 3 4 9 9 10 24 22 18 7 5 6 5 6 5 7 5 17 6 7 4 3 12 16 7 5 7 10 10 6 8
26 28 26 22 17 10 4 6 6 4 4 3 2 2 3 1 4 6 20 10 21 25 23 6 6 7 5 5 5 1 11 7 3 12 15 10 15 17 15 9 2 11 6 8 6
25 27 25 24 11 4 3 4 4 3 4 4 3 3 1 3 2 8 11 7 10 20 19 10 8 7 4 5 6 7 3 6 0 6 8 18 15 17 10 8 8 10 8 7 7
25 25 25 23 11 5 5 4 4 3 3 3 1 3 1 7 5 13 9 9 1 14 11 14 8 9 5 3 4 3 8 4 7 6 7 8 9 14 9 4 5 5 7 8 8
23 24 22 23 13 6 6 5 5 4 3 1 1 2 3 7 13 6 3 3 5 3 10 17 6 1 2 4 4 5 5 6 7 8 6 8 8 13 9 6 3 2 2 4 3
22 20 19 18 15 9 6 5 3 2 1 3 1 1 5 10 6 9 3 2 1 2 5 8 2 3 2 4 4 2 4 6 5 10 5 7 4 6 3 8 8 5 4 4 5
21 20 17 15 13 10 6 4 5 5 5 3 2 2 2 4 5 5 5 5 2 5 5 5 5 4 2 4 9 6 4 2 3 7 6 6 5 5 5 3 9 8 7 6 6
19 20 16 13 11 10 6 2 4 3 1 1 3 3 5 10 4 6 3 4 3 3 6 9 5 13 5 6 5 7 1 5 5 5 5 7 4 10 9 4 7 7 7 6 5
20 18 17 11 7 10 7 3 3 2 3 12 6 3 2 4 2 5 2 2 1 3 3 5 8 5 8 6 5 7 6 4 2 4 4 6 14 9 11 6 6 8 8 8 3
20 18 16 11 4 3 7 6 3 2 2 1 2 3 2 5 3 1 0 2 4 4 4 8 7 8 8 7 6 1 5 3 4 2 2 4 6 9 8 4 5 7 5 5 9
20 18 14 10 2 1 0 2 1 2 2 8 4 0 2 3 3 1 1 3 2 7 3 4 4 10 7 8 5 5 4 6 2 3 4 4 5 6 9 15 10 10 7 8 7
19 17 6 3 3 0 1 2 3 1 4 10 4 1 0 0 6 4 3 1 5 6 3 2 4 13 7 5 5 5 3 5 2 5 3 1 1 6 3 9 16 10 9 8 8
18 7 1 1 4 2 2 3 1 5 5 4 4 2 3 2 3 4 1 1 3 5 5 3 1 3 3 2 3 3 2 6 4 4 2 5 5 5 6 8 8 5 6 9 9
10 2 1 3 1 1 2 2 4 6 1 6 2 2 3 3 4 5 4 6 4 5 1 3 3 1 2 5 4 2 4 2 2 4 5 3 5 15 6 7 7 8 9 8 8
4 1 1 3 3 3 2 4 9 4 2 5 3 3 2 3 5 2 3 2 1 4 3 4 3 3 2 1 5 3 3 4 5 4 4 2 8 7 5 7 7 13 13 10 8
3 3 2 2 7 2 3 6 6 5 3 3 6 1 3 3 4 2 1 1 2 3 5 4 1 2 2 2 3 4 6 2 2 3 3 5 7 9 2 2 8 12 10 9 8
2 3 1 2 5 2 4 2 2 4 3 2 3 1 1 4 6 5 6 3 2 5 3 7 4 4 3 1 0 3 2 2 3 3 3 4 5 6 3 8 11 12 11 9 7
3 3 0 1 5 4 3 4 3 6 4 3 2 4 0 1 1 3 5 5 5 7 4 5 4 4 5 7 9 5 4 6 3 4 4 3 5 5 10 12 15 12 12 11 8
3 3 1 3 4 1 1 4 2 4 2 3 2 2 2 3 2 1 5 3 1 7 6 7 5 4 2 4 7 7 5 4 4 4 2 3 5 5 7 8 8 10 9 8 8
2 1 3 3 3 3 5 4 3 2 2 3 3 1 1 2 1 2 2 1 0 3 7 6 0 3 1 1 3 4 5 5 2 3 5 5 5 4 3 7 6 8 7 8 8
2 3 4 4 1 1 4 4 3 4 3 3 3 2 2 2 2 3 2 1 1 0 1 3 4 6 7 5 5 5 7 12 8 4 3 5 4 2 4 8 7 7 9 9 10
4 2 2 3 3 5 3 3 3 3 3 2 3 1 3 3 2 3 3 0 1 1 1 4 5 4 5 4 4 5 6 10 10 11 8 7 7 6 10 10 11 10 7 7 7
3 2 3 2 3 4 4 3 5 5 2 2 3 5 4 5 3 3 6 4 5 1 2 2 2 2 3 4 4 3 7 9 12 5 7 5 5 7 7 2 5 8 8 8 7
3 2 4 2 4 1 1 3 5 8 6 5 0 3 5 3 2 2 2 2 3 7 5 3 4 3 4 1 3 6 13 15 7 7 13 9 13 2 6 12 9 8 9 10 8

GFSSW_925_spd_075.txt.gz
Wind_Speed
23 25 26 25 22 19 16 11 11 11 8 6 6 5 5 5 7 5 4 7 12 5 4 8 8 4 2 2 3 1 3 9 8 6 5 3 7 8 11 4 6 5 3 11 21
24 26 25 24 22 18 14 9 10 6 5 4 3 3 2 3 1 7 10 8 10 10 5 7 5 5 2 0 2 5 5 5 2 1 4 4 7 8 8 16 4 1 10 18 26
25 25 26 23 20 16 8 8 8 3 4 4 1 2 0 5 3 6 10 11 14 10 9 4 9 5 4 3 4 2 13 7 3 5 7 7 8 8 7 8 1 5 10 7 16
24 26 25 24 18 11 5 6 6 4 3 3 2 2 3 5 3 6 8 13 9 12 10 5 4 5 4 6 2 5 6 10 5 4 4 5 6 13 5 9 17 10 4 5 14
23 24 25 24 14 8 6 5 5 4 3 3 2 2 4 1 3 6 18 8 9 18 15 4 4 4 4 4 4 1 6 10 9 5 4 5 9 6 18 22 19 8 4 6 6
22 22 23 20 14 8 7 7 7 3 4 3 3 3 3 2 3 3 14 3 7 21 15 8 6 4 5 5 7 6 2 12 13 10 7 5 1 3 12 9 16 5 5 6 5
19 19 19 18 12 8 8 7 7 3 2 3 2 3 2 4 2 3 4 12 6 11 6 14 4 3 3 5 3 2 5 6 11 11 5 11 6 11 23 20 16 8 8 5 6
17 16 16 16 13 8 7 6 5 4 2 2 2 1 3 4 6 3 2 5 12 5 11 10 6 3 2 2 5 4 3 5 9 10 4 12 11 12 18 18 15 6 5 5 4
16 15 14 13 12 10 8 4 3 5 4 1 2 1 3 5 7 7 2 5 3 4 8 8 4 3 1 5 3 4 5 6 7 12 7 15 4 15 23 20 15 8 6 6 4
14 14 12 12 11 11 5 2 4 3 2 3 4 2 4 4 5 4 5 7 1 5 7 7 4 4 2 3 12 4 2 4 5 9 9 10 5 6 9 11 13 8 7 7 5
14 12 12 9 9 11 2 1 4 3 5 3 7 2 4 11 3 4 5 3 2 3 2 1 3 13 6 4 4 6 2 4 2 4 5 5 3 7 10 6 7 9 9 9 8
14 12 12 7 6 8 3 5 1 1 2 9 6 2 1 5 2 4 5 2 1 3 3 1 7 6 8 7 5 6 6 2 2 2 3 4 9 8 11 8 7 8 9 10 5
16 12 10 5 2 2 6 4 3 2 1 2 4 3 2 4 3 2 4 1 5 4 2 4 7 10 7 4 5 3 4 3 2 2 2 3 6 11 11 6 7 8 7 6 9
17 13 8 4 3 1 2 4 2 2 2 6 1 1 1 1 3 1 4 2 4 2 6 1 6 11 8 5 4 3 2 2 2 2 3 5 5 7 9 14 9 11 9 8 8
19 12 3 0 3 3 2 2 0 2 5 7 2 1 4 2 5 4 6 1 5 6 2 3 9 11 8 5 6 5 1 6 4 1 2 2 2 5 3 7 17 14 9 8 9
17 5 2 3 3 3 1 2 3 5 3 3 3 1 3 3 2 3 2 3 4 4 2 3 2 3 3 3 2 2 5 6 4 3 2 6 5 5 7 8 6 7 9 10 9
6 1 2 4 2 4 2 3 4 6 1 4 2 0 0 3 4 1 1 3 4 2 2 3 2 1 2 5 4 3 6 2 1 1 5 3 5 13 5 5 6 8 8 9 9
2 3 2 2 6 4 3 4 8 3 3 4 2 2 2 2 2 5 6 3 4 4 2 3 4 4 0 2 5 3 6 4 5 4 4 4 8 6 6 7 7 8 7 7 8
4 4 2 0 7 4 3 6 5 5 3 4 5 3 2 1 3 1 1 4 5 5 4 4 1 2 1 1 2 4 3 4 5 3 3 4 8 8 7 8 5 8 9 10 9
4 2 3 3 7 3 4 2 1 4 2 1 2 2 2 3 1 2 3 4 3 6 2 5 4 2 4 1 1 1 4 2 2 1 4 5 6 8 5 8 5 8 12 10 8
2 3 5 3 2 3 3 4 4 5 4 2 2 3 3 4 5 5 5 2 5 6 3 5 3 3 4 6 7 4 4 2 1 4 5 2 6 7 6 8 8 8 8 11 11
2 3 6 1 3 1 1 4 2 3 3 3 2 3 3 1 3 6 7 3 6 7 6 4 3 4 5 1 4 6 7 7 4 5 2 2 6 2 5 6 7 7 9 9 9
2 1 2 2 2 3 5 4 3 3 3 1 2 2 1 3 2 4 4 4 5 6 6 5 1 3 1 3 4 7 9 8 2 1 6 5 5 1 5 2 6 8 8 8 8
3 2 4 4 1 1 4 4 3 3 4 3 3 2 1 2 3 3 3 4 4 6 7 9 4 5 6 3 4 5 10 17 12 4 3 6 5 3 1 5 6 7 8 8 9
4 0 2 2 3 4 3 3 3 3 3 2 2 3 1 2 2 3 3 1 3 6 5 5 5 4 5 6 5 5 7 16 21 18 8 5 8 7 6 9 10 9 8 7 7
2 3 3 2 2 3 2 1 3 4 3 3 4 5 2 5 5 4 5 3 5 2 6 1 2 3 3 4 6 5 7 10 17 15 14 17 9 7 4 4 6 9 9 8 8
4 2 3 2 2 1 2 1 4 7 6 6 6 6 4 6 4 2 4 3 3 7 6 6 5 3 4 3 2 6 15 14 7 9 11 9 18 2 5 8 10 8 9 10 10

GFSSW_925_spd_078.txt.gz
Wind_Speed
23 23 24 23 19 18 15 12 11 10 7 5 6 6 3 5 6 5 3 4 7 6 2 7 8 5 5 3 2 1 3 5 8 7 5 3 4 6 5 2 5 4 3 5 25
22 23 24 22 18 15 12 12 12 7 6 5 5 5 3 4 10 9 9 8 7 6 3 6 4 6 3 3 2 4 5 3 4 3 5 5 3 6 6 10 7 9 13 5 25
21 23 23 21 14 11 11 12 10 9 9 7 5 5 1 5 3 1 9 10 9 7 5 1 6 5 4 4 2 2 6 4 5 7 3 5 3 3 4 4 4 7 15 9 12
20 21 21 18 13 10 10 11 10 8 8 7 7 5 1 1 2 3 3 13 10 10 7 5 3 6 4 6 4 2 3 5 3 4 2 3 2 4 1 6 7 10 13 10 12
18 19 19 17 12 11 10 9 9 8 8 9 7 5 2 2 3 6 11 8 4 12 13 4 5 3 5 5 5 1 4 8 7 5 4 6 4 3 13 4 6 13 10 7 8
16 16 16 16 12 10 9 8 7 7 8 9 7 4 2 1 2 7 10 14 2 16 13 5 6 5 3 3 5 6 5 12 7 5 6 6 5 5 13 8 15 16 15 6 7
15 13 13 13 12 9 8 8 7 6 6 7 7 6 2 1 2 4 7 13 6 16 8 10 2 3 3 5 2 4 7 6 5 5 3 5 6 10 17 10 14 14 13 8 7
14 13 11 11 11 11 9 6 5 5 5 5 5 5 2 6 5 6 3 3 5 12 11 13 5 2 3 2 4 5 5 6 6 13 8 12 7 12 12 8 14 15 13 8 7
15 14 12 10 10 10 10 6 3 3 3 2 4 3 2 5 6 8 2 2 5 10 8 9 3 2 3 5 4 3 4 5 7 14 8 9 5 9 7 11 15 16 11 9 6
15 14 12 10 8 10 6 1 3 2 2 2 4 3 4 4 6 8 5 1 2 8 6 4 1 2 2 3 12 6 4 2 5 11 10 13 3 12 14 16 17 18 8 8 8
15 14 13 11 7 9 3 2 4 3 8 2 5 2 4 9 4 6 5 0 1 5 3 6 4 10 4 3 5 6 5 6 3 4 9 12 8 14 13 8 16 20 14 10 8
17 15 12 10 5 6 3 4 1 1 3 2 3 1 3 4 3 6 9 1 1 4 3 4 6 7 7 3 5 6 5 2 1 2 6 8 10 9 16 15 20 21 20 9 6
18 14 11 9 4 1 5 3 3 1 3 3 2 2 2 5 3 5 7 2 6 5 2 1 4 8 6 4 5 2 6 3 2 2 1 4 6 8 8 7 11 14 11 6 9
18 15 9 4 3 3 3 4 1 1 3 5 2 2 1 2 4 2 4 2 4 5 4 1 2 11 7 4 5 2 3 5 2 3 3 1 4 6 12 13 10 17 15 11 9
19 13 5 2 3 3 3 2 1 2 5 7 3 2 1 2 2 5 3 2 4 6 1 2 6 9 5 4 3 2 2 4 3 3 3 2 2 4 3 8 20 16 9 9 9
16 8 1 3 3 4 4 3 2 5 2 3 2 1 2 2 3 2 3 3 3 3 1 2 1 3 3 3 3 4 5 6 4 2 2 7 6 4 6 7 5 6 10 12 11
7 0 3 5 2 4 4 3 4 6 1 2 2 2 0 3 3 2 1 3 3 4 0 4 3 1 2 6 3 4 3 1 2 1 5 3 5 11 4 7 7 8 8 9 7
0 3 3 2 6 5 2 4 7 3 2 2 2 1 3 1 3 3 3 4 2 5 3 3 4 4 1 2 5 4 6 4 5 4 4 1 7 5 5 6 8 8 6 6 8
6 4 3 1 6 3 3 5 5 5 3 2 2 2 2 1 3 2 3 2 5 5 5 3 2 2 1 2 1 4 3 4 4 2 3 4 7 8 7 9 8 8 5 7 9
5 2 3 4 6 1 4 1 0 3 3 1 1 2 3 4 3 2 2 3 3 5 3 4 4 1 2 1 3 1 5 2 2 2 4 5 5 6 6 7 5 8 8 6 6
4 3 5 2 3 3 3 4 4 5 4 2 2 2 1 4 5 5 6 3 3 5 5 5 3 2 6 5 6 3 3 1 3 4 4 3 5 6 5 7 8 8 7 7 7
4 2 5 1 3 2 1 3 3 3 2 3 1 3 3 3 5 4 7 5 9 8 6 6 4 4 4 1 2 4 3 5 3 4 1 3 9 3 6 8 7 7 6 7 7
3 1 2 1 3 3 5 4 2 2 3 3 4 6 4 4 3 6 5 4 8 9 8 6 1 3 1 1 0 5 6 8 3 2 7 3 6 0 4 6 4 7 7 7 7
3 2 4 4 1 2 4 4 5 3 4 4 4 2 3 4 6 3 4 4 7 7 7 5 3 5 7 5 5 6 9 13 12 7 8 15 9 6 5 5 5 5 6 7 9
3 1 3 2 2 2 1 2 4 4 3 3 3 4 4 3 4 5 4 2 2 5 4 5 5 5 5 4 4 6 9 14 19 18 12 1 14 13 13 6 6 7 7 7 7
4 4 0 2 1 2 1 1 2 5 4 5 4 9 3 4 5 4 4 4 6 3 7 3 2 2 3 2 6 5 8 12 19 21 22 23 27 14 9 5 5 9 9 11 10
3 2 3 1 1 2 2 2 2 3 6 5 5 9 8 6 8 9 6 2 4 8 7 7 5 3 4 3 4 6 15 16 8 8 19 19 26 3 6 10 8 8 10 12 11

GFSSW_925_spd_081.txt.gz
Wind_Speed
21 22 22 22 17 14 11 10 10 9 8 8 8 8 6 3 2 2 2 2 4 5 4 7 8 9 8 3 3 2 4 11 10 9 5 2 4 0 2 3 4 6 7 11 8
20 21 21 19 16 12 12 11 10 9 9 8 8 8 6 2 3 2 9 9 10 4 3 6 4 8 3 4 3 4 4 6 4 4 6 4 3 1 3 4 4 6 17 19 8
19 20 19 17 13 11 11 11 10 10 9 9 8 7 5 3 1 2 4 6 9 5 2 2 2 4 2 3 3 4 5 5 2 5 6 5 3 2 4 3 2 7 13 15 5
16 18 17 15 12 11 10 11 10 10 9 9 8 7 4 2 2 1 6 11 12 6 6 2 2 5 3 6 4 6 4 4 5 2 4 4 2 2 1 4 2 3 6 10 5
15 15 15 14 11 11 10 9 10 8 9 9 8 6 3 3 2 4 7 11 9 12 10 5 4 4 5 5 5 3 6 7 8 8 6 6 3 3 4 2 1 6 12 13 8
13 13 12 12 11 10 10 9 8 7 8 9 8 5 3 3 6 6 9 3 2 12 9 6 6 3 3 6 5 6 5 10 6 5 4 4 1 2 3 5 10 10 11 10 10
14 12 11 11 10 11 10 8 8 7 7 8 8 6 3 1 9 11 9 6 4 14 7 7 2 3 2 5 2 10 5 3 1 2 3 4 5 9 2 7 8 10 11 10 13
13 12 11 11 10 10 10 7 6 6 5 6 8 4 0 7 6 9 8 6 6 10 12 11 4 4 2 1 2 6 6 4 2 6 1 3 8 6 5 1 6 9 11 11 14
14 12 11 10 10 10 8 4 5 4 4 5 4 4 3 6 7 10 7 5 7 3 8 9 1 2 2 5 2 3 5 6 3 4 2 3 5 8 4 2 10 8 10 11 14
14 13 10 10 9 9 6 2 2 6 4 4 2 3 6 4 5 9 7 3 6 4 5 2 3 3 2 2 11 5 5 5 7 9 5 9 11 3 2 8 11 10 11 13 12
14 13 11 10 8 8 3 1 4 4 7 1 2 1 3 9 5 6 8 2 2 3 4 1 2 10 4 3 3 6 5 5 2 7 8 12 11 7 10 3 5 10 13 15 14
15 12 10 8 6 4 2 5 3 1 3 2 2 2 1 3 4 6 6 3 1 8 3 3 5 5 5 4 6 5 7 3 1 2 13 7 14 10 11 9 7 13 16 16 10
15 12 9 6 4 0 4 6 3 3 3 3 1 2 2 3 2 4 2 2 7 8 6 1 5 11 4 4 7 2 5 4 4 2 2 4 10 8 9 9 11 10 17 16 12
15 12 6 2 2 2 2 4 2 1 3 5 3 1 1 1 3 2 2 2 4 6 3 2 2 11 6 3 4 3 3 5 5 3 3 2 4 6 14 18 17 16 16 17 9
15 8 2 3 4 2 2 2 0 1 5 6 1 2 2 3 1 4 2 2 6 7 1 3 6 7 6 6 3 3 3 5 3 3 2 0 2 5 5 18 17 16 17 19 9
13 2 5 4 4 3 3 2 1 5 2 2 3 1 0 1 1 2 2 3 2 5 3 2 0 2 2 3 2 7 5 6 3 2 2 5 5 3 5 10 7 14 19 20 17
4 5 5 6 3 3 2 3 4 6 2 3 1 3 3 3 1 1 1 2 4 4 1 2 2 2 2 5 3 2 4 2 1 1 4 2 3 10 9 7 6 9 10 13 15
8 9 7 6 6 4 1 3 8 3 3 2 2 3 1 5 1 2 3 1 1 4 3 2 2 4 1 2 5 3 4 4 6 4 3 1 5 5 6 7 6 6 4 2 5
11 10 5 3 5 2 3 5 5 5 3 1 2 3 3 2 1 4 4 4 6 6 4 3 2 1 2 2 1 4 4 3 4 1 1 3 4 9 6 10 6 7 4 7 6
5 5 3 3 6 1 3 3 2 4 3 2 3 5 3 3 3 5 5 4 5 6 2 5 3 1 2 2 3 1 5 2 1 2 4 2 3 5 5 1 6 7 7 6 4
3 3 1 4 3 3 3 4 4 5 4 4 2 3 3 4 5 4 4 3 4 5 4 5 4 3 5 5 7 3 3 1 2 3 3 1 4 5 5 2 6 10 8 6 6
3 2 2 5 3 1 1 2 2 2 2 3 2 3 3 2 5 4 5 4 8 8 7 5 3 5 4 2 1 2 5 5 3 4 0 1 7 3 5 4 3 9 9 2 6
2 1 1 3 3 3 5 3 2 1 2 2 3 5 2 3 2 5 3 2 8 8 8 7 3 4 3 1 1 5 6 6 3 3 6 3 3 2 1 5 2 3 5 4 7
3 1 3 3 1 4 1 2 4 2 2 3 4 2 1 4 5 4 3 3 6 5 7 7 3 5 7 4 5 5 7 10 9 5 6 17 11 17 15 8 5 4 5 6 7
3 1 1 2 1 3 2 0 2 3 2 2 2 4 4 4 3 5 5 2 3 6 4 7 4 4 5 4 4 5 7 13 15 17 11 4 19 17 19 15 5 6 4 7 10
4 3 2 2 1 2 3 4 2 3 2 3 3 5 3 4 2 3 4 1 6 4 8 2 2 2 4 4 6 4 7 9 18 20 20 23 25 19 15 6 8 9 6 9 10
3 4 3 1 1 1 2 2 2 1 5 5 2 3 7 8 3 10 9 12 8 5 7 7 5 3 3 0 1 4 14 18 10 8 18 17 24 9 11 9 14 15 9 14 14

GFSSW_925_spd_084.txt.gz
Wind_Speed
16 18 18 17 15 13 13 11 10 10 10 9 7 8 6 3 3 3 3 1 2 5 4 7 8 7 9 7 4 1 5 15 17 16 14 9 7 2 1 5 7 6 5 6 6
15 16 16 15 13 12 12 11 10 10 10 10 9 8 5 1 1 1 6 9 8 7 3 13 12 12 8 9 7 6 8 18 14 8 6 9 8 7 5 7 6 7 11 7 5
15 15 15 13 12 11 10 11 10 10 10 10 9 8 4 2 4 3 3 9 7 8 4 3 11 12 12 9 8 12 8 7 10 11 8 9 8 3 10 6 7 8 12 7 5
14 13 13 11 11 11 10 9 10 9 10 11 10 7 2 2 1 6 9 5 11 9 5 5 10 12 10 13 11 12 11 9 8 6 7 11 7 6 2 7 6 5 9 8 2
13 12 12 11 10 9 10 9 8 8 9 10 10 7 3 2 6 5 9 8 8 5 8 10 14 11 11 11 13 12 14 8 7 7 6 8 6 6 6 5 4 3 6 11 5
13 12 11 10 9 9 9 9 8 7 8 9 10 6 3 6 6 5 8 5 6 8 9 6 8 4 12 10 16 13 14 12 10 7 4 5 5 4 6 7 6 2 5 8 9
14 12 11 10 9 9 9 9 7 7 6 8 9 4 6 7 8 8 7 2 7 8 8 4 1 6 8 11 5 14 11 10 7 8 4 3 11 11 6 8 8 7 1 4 7
14 13 11 9 10 9 9 8 6 6 5 7 8 2 3 7 7 10 10 3 5 9 3 6 2 0 3 3 6 12 13 11 9 8 4 5 21 12 8 12 15 12 9 2 4
14 13 12 10 10 8 7 4 5 6 4 7 4 4 3 7 7 11 9 3 3 5 4 4 4 1 5 11 9 11 12 17 7 8 5 11 13 6 6 11 13 15 14 6 4
13 13 12 9 8 7 6 2 4 7 3 3 3 2 6 6 6 8 6 6 7 9 7 5 2 5 8 11 12 10 11 15 12 11 9 12 14 8 4 6 11 13 17 9 6
13 13 11 9 6 5 3 1 2 2 9 5 3 3 4 8 4 8 5 5 3 5 3 4 3 11 16 10 1 11 10 12 8 7 8 15 15 14 10 8 10 11 15 16 12
13 12 9 7 3 2 3 1 2 2 6 3 2 2 2 3 2 6 2 4 2 7 11 2 4 8 6 8 7 10 11 9 5 6 8 9 15 15 13 11 12 13 16 21 16
12 11 7 4 1 3 4 4 2 1 2 4 2 2 2 4 4 4 2 8 7 8 9 3 3 6 8 8 10 9 14 9 3 5 11 7 14 16 15 15 13 16 12 17 20
12 9 4 1 3 4 3 4 1 1 2 6 3 2 2 2 3 2 1 2 3 7 4 1 1 13 11 11 11 11 5 7 8 11 6 8 4 6 14 17 18 17 17 13 14
11 5 1 3 6 2 4 2 1 2 2 4 2 1 2 2 1 2 0 3 8 9 4 2 5 15 13 11 8 3 5 9 4 7 3 8 5 9 7 15 16 18 20 19 13
8 2 5 5 4 5 6 3 2 2 4 1 1 1 1 1 2 1 1 2 7 6 6 1 1 8 7 3 3 10 8 7 4 5 8 13 11 8 7 10 14 17 19 18 15
5 7 4 6 3 7 5 1 2 4 1 2 1 3 1 2 2 3 4 6 3 4 2 1 3 3 3 10 7 9 12 4 5 6 7 1 10 14 8 9 8 7 11 16 14
11 9 5 6 8 7 2 2 4 1 3 1 2 4 2 4 2 3 4 6 5 2 4 5 6 8 6 8 7 14 13 4 6 5 3 3 7 3 7 7 9 12 8 3 8
13 8 3 4 6 3 2 3 2 3 1 2 3 2 3 4 2 5 10 9 5 7 3 5 2 2 2 3 3 8 6 1 1 1 3 4 4 11 12 10 7 6 7 10 11
8 4 2 4 4 2 1 2 1 2 2 2 2 3 1 5 4 2 7 5 5 10 3 4 4 4 3 2 1 4 8 4 2 4 5 4 4 5 6 5 2 4 4 6 7
4 2 1 5 2 2 2 1 2 4 5 4 2 3 5 4 7 7 5 4 9 10 5 7 3 5 5 6 6 4 5 4 3 4 3 2 3 1 1 4 7 8 5 5 4
4 2 2 4 1 1 1 2 1 3 4 5 4 5 6 3 6 8 8 8 10 10 8 7 2 5 9 2 6 11 12 14 6 6 4 5 6 3 2 5 6 7 4 2 2
3 2 1 2 1 0 0 2 3 3 4 4 4 7 3 4 5 9 7 3 13 15 13 9 5 5 4 3 3 7 13 13 14 2 8 7 3 0 2 4 2 5 8 4 4
3 2 2 1 1 0 1 2 2 2 4 4 4 4 5 9 9 7 4 1 10 10 5 11 6 7 7 3 6 9 16 18 13 7 12 16 15 9 11 12 9 10 10 3 3
2 1 1 1 2 1 1 1 1 2 3 3 3 4 4 6 9 12 10 10 4 5 7 6 6 8 6 3 5 5 13 17 17 17 15 13 19 21 23 22 21 14 7 6 8
3 3 1 3 1 1 1 2 2 2 3 4 6 6 6 8 12 5 1 3 4 5 10 7 4 5 2 6 7 8 11 12 19 23 23 25 26 20 20 18 19 18 16 12 11
3 2 1 2 3 2 1 2 2 0 5 7 6 5 12 14 9 11 6 5 5 5 5 8 6 5 3 5 3 6 15 18 14 14 18 20 23 15 16 15 15 14 14 14 15

GFSSW_925_spd_087.txt.gz
Wind_Speed
15 15 16 15 13 13 12 12 11 12 11 12 11 11 10 7 3 6 7 5 7 5 2 14 12 13 15 5 9 5 8 16 23 19 16 13 9 3 2 8 7 5 6 5 2
15 13 14 13 13 13 11 11 11 11 11 12 12 11 9 6 7 2 2 9 12 8 8 11 14 15 11 8 4 7 11 19 19 14 8 13 10 8 8 9 8 6 8 7 11
13 12 12 12 12 13 12 11 11 10 11 12 11 11 8 5 6 6 4 6 14 11 10 8 11 12 15 13 5 17 16 16 2 13 13 8 9 5 7 5 5 6 6 9 6
14 12 11 12 12 11 12 12 10 10 11 12 12 10 7 7 3 8 13 7 9 10 6 5 8 14 14 15 13 11 15 3 6 9 6 10 9 8 9 11 8 7 7 9 5
13 12 12 12 11 11 12 11 11 9 10 11 13 10 6 2 6 13 13 7 10 6 7 9 12 12 16 17 18 16 8 10 3 4 12 7 7 7 8 9 6 5 6 7 8
13 12 12 11 12 11 12 12 10 9 9 10 11 7 6 6 6 5 6 9 6 5 7 6 5 9 11 13 16 12 19 14 6 7 7 12 8 3 11 10 7 4 4 6 6
14 13 12 11 11 11 12 12 10 8 7 8 9 6 7 7 6 6 7 7 6 4 8 2 8 7 5 7 10 8 13 11 14 17 7 7 12 11 10 10 11 9 5 4 7
13 14 12 11 10 11 11 10 7 7 7 8 6 5 5 7 6 8 6 2 1 4 6 2 9 10 6 5 10 14 12 9 17 13 6 6 16 17 15 12 14 15 12 8 6
13 13 12 11 10 9 10 7 7 9 7 6 3 6 5 5 9 9 7 2 8 10 9 6 7 4 4 12 10 11 14 19 14 14 9 12 11 15 10 9 15 17 17 13 10
14 13 12 10 10 7 9 6 7 7 4 4 1 2 9 8 9 8 3 3 7 14 8 6 4 6 9 13 13 13 17 20 15 11 13 13 16 16 6 10 14 16 18 18 15
13 12 11 9 9 5 6 5 5 3 12 7 5 4 5 9 3 7 3 6 11 11 4 4 4 9 14 14 6 14 16 15 14 8 11 16 16 18 15 12 13 15 15 18 19
13 11 9 7 5 3 3 3 4 4 6 5 4 3 5 5 5 7 5 2 7 8 11 1 7 6 12 10 5 9 12 8 5 7 8 12 17 18 18 18 15 16 15 15 18
11 10 7 5 2 1 1 3 2 3 1 3 4 5 4 6 4 6 6 2 8 6 7 3 2 3 7 9 10 9 12 12 7 11 11 11 15 17 19 18 17 16 15 12 18
10 8 4 2 2 2 1 2 2 2 1 6 3 3 0 3 3 2 4 3 0 5 7 2 7 7 10 13 11 10 8 5 6 5 9 16 6 18 18 19 19 18 16 15 13
9 6 3 7 3 1 3 2 1 2 1 3 3 1 1 2 3 4 1 3 8 6 4 3 7 14 12 11 9 2 9 5 5 9 8 9 6 14 11 14 18 17 17 16 12
6 3 7 4 2 4 4 3 2 2 3 1 1 1 3 1 4 3 2 3 2 6 3 1 7 9 7 6 4 6 7 8 6 8 6 15 11 10 12 13 13 15 16 16 15
5 9 5 2 2 6 4 3 1 2 1 1 1 3 2 2 3 6 6 7 5 4 3 2 5 3 4 9 7 9 12 5 5 5 8 1 10 16 5 5 7 5 8 13 14
11 10 5 3 5 7 3 2 3 1 3 2 2 5 5 7 3 9 7 9 13 8 4 6 3 10 12 11 7 13 14 5 9 9 10 5 8 9 8 11 12 7 6 2 8
14 7 5 4 4 3 4 3 2 1 2 3 3 4 5 5 4 7 13 14 12 13 7 7 6 5 5 5 3 13 10 9 4 1 4 6 10 12 14 8 6 6 6 8 9
8 6 3 5 4 4 1 1 1 1 2 4 5 4 4 8 5 6 9 11 17 13 10 6 2 8 4 4 7 5 5 5 3 4 8 7 7 8 7 8 4 1 2 3 4
6 3 2 5 3 4 2 1 2 5 5 4 5 6 7 6 10 6 6 5 15 12 14 5 1 6 5 10 17 9 5 7 3 10 4 6 3 5 3 9 5 6 5 4 3
4 3 4 5 3 2 1 2 1 4 6 6 5 10 10 7 8 9 10 9 9 11 10 9 4 4 10 7 13 15 17 14 8 7 7 8 5 5 4 2 3 4 5 5 3
4 3 2 4 2 2 3 2 4 5 6 3 5 8 5 8 7 10 13 10 7 11 9 11 5 4 5 4 7 8 12 16 16 10 7 8 4 4 1 5 4 4 4 5 3
4 3 2 3 2 3 1 3 3 4 7 7 10 9 10 12 13 9 10 5 5 11 13 7 8 11 9 3 9 11 17 19 15 6 12 15 15 10 5 6 8 9 9 9 5
3 2 1 3 4 3 2 1 4 3 5 4 6 8 9 10 12 16 15 16 10 6 6 3 6 10 12 6 6 7 14 20 18 17 13 13 18 17 17 17 16 14 14 9 8
4 4 2 2 2 4 3 5 4 3 3 5 8 11 8 12 14 18 9 6 5 4 2 5 3 6 5 7 9 8 8 14 19 18 20 22 24 20 19 18 18 17 14 13 11
3 1 2 3 3 3 2 2 1 0 2 4 6 8 13 13 10 13 12 10 6 1 5 4 3 5 2 7 4 6 18 17 17 19 17 19 21 17 17 16 14 14 14 14 13

GFSSW_925_spd_090.txt.gz
Wind_Speed
17 15 16 15 14 14 12 13 13 14 14 15 14 14 14 14 9 7 6 4 3 14 6 16 15 15 10 1 6 2 4 9 16 8 9 11 5 2 1 7 9 7 8 10 14
16 16 15 14 14 14 13 12 13 13 14 15 15 14 13 12 10 7 11 9 9 14 10 8 10 14 5 6 3 5 4 8 12 7 15 11 10 7 6 6 6 9 12 13 15
16 16 14 15 14 14 13 13 12 12 13 15 16 16 13 9 7 5 15 11 6 11 17 16 18 12 8 4 1 3 5 10 2 13 12 1 10 9 10 7 8 6 12 6 15
16 15 15 14 14 13 14 13 12 12 13 15 16 17 12 7 3 6 10 8 9 11 16 6 10 10 11 10 5 2 11 10 7 6 1 4 3 5 3 7 9 7 13 7 9
15 15 14 14 13 14 14 13 13 13 14 15 16 15 11 4 6 6 12 4 1 13 15 10 8 6 10 9 10 9 7 8 8 7 6 11 5 5 10 9 8 6 11 10 7
14 15 15 14 13 13 14 13 13 12 13 14 15 14 9 8 9 7 7 5 8 12 12 6 5 8 5 14 15 12 9 13 7 4 5 7 7 1 13 9 7 5 8 9 10
13 14 14 14 13 13 13 13 12 11 12 12 13 10 8 7 10 9 5 4 7 4 6 6 10 6 11 4 14 15 12 12 11 16 4 5 8 6 3 12 9 7 6 9 7
14 14 14 13 13 13 13 12 10 11 11 9 8 9 3 6 7 13 11 6 1 7 6 8 9 5 5 4 3 13 11 3 6 6 2 4 13 8 9 8 8 10 9 8 9
12 13 13 12 12 12 12 10 7 9 7 6 6 5 3 6 11 11 10 4 13 10 13 6 4 4 4 1 3 6 4 9 5 10 4 8 5 9 16 11 10 9 8 9 9
11 12 12 11 11 11 11 7 6 9 5 6 6 1 8 8 8 9 5 3 7 6 6 8 6 5 1 4 8 10 14 13 11 11 10 9 10 10 5 5 4 5 8 8 9
11 12 11 9 10 8 9 5 4 3 11 5 5 5 7 10 3 6 6 7 7 5 4 4 2 5 8 11 5 7 9 11 14 14 12 17 12 11 10 8 7 8 9 9 9
10 10 9 7 7 4 4 2 3 2 2 4 1 5 3 4 4 6 10 0 6 6 8 4 4 8 9 9 8 3 9 11 11 10 12 8 11 12 11 10 11 10 9 9 8
9 9 7 4 1 2 3 5 2 3 3 2 2 3 2 5 4 5 3 3 4 5 4 4 0 8 8 7 7 7 11 6 5 7 4 3 7 11 13 12 9 10 8 7 8
8 7 4 2 1 1 2 2 2 2 2 5 1 3 1 1 3 1 3 1 2 5 5 4 4 6 5 7 7 6 2 7 5 3 3 8 4 8 17 13 12 9 9 9 9
7 5 4 4 2 1 4 2 1 1 1 4 2 1 2 2 5 3 1 3 4 5 2 1 4 5 8 7 6 2 6 7 3 5 6 3 3 7 2 15 15 13 10 10 10
6 4 8 3 1 4 4 4 1 1 1 2 2 1 4 3 4 4 3 3 4 5 2 1 5 4 5 9 2 5 1 3 3 1 1 7 6 5 5 6 5 8 12 12 10
5 11 7 1 1 7 5 3 1 2 1 3 2 1 4 2 4 7 8 6 4 4 4 1 3 2 2 2 2 6 5 2 1 2 5 4 6 9 7 4 2 4 4 4 10
11 11 7 1 6 7 4 2 3 1 4 4 1 5 4 4 4 7 5 9 12 8 4 5 4 8 8 5 4 6 6 3 4 4 4 8 6 5 6 5 6 6 4 4 6
16 8 5 6 6 4 3 3 2 3 5 3 2 5 4 6 3 4 11 12 11 14 5 6 5 4 2 6 2 6 5 4 2 6 1 5 6 7 8 5 2 2 1 5 4
10 6 6 8 6 5 0 1 3 3 3 2 4 6 6 7 4 5 5 7 16 15 8 1 3 6 4 2 3 2 2 2 1 2 3 4 6 5 1 7 7 4 4 2 3
5 3 6 9 6 4 2 1 2 5 5 4 5 5 7 7 9 4 5 9 8 9 10 7 5 3 5 7 7 5 2 4 1 4 2 1 2 5 6 9 8 8 6 6 5
3 2 9 10 3 2 2 3 1 4 6 5 4 8 9 10 10 8 8 9 5 11 8 6 3 5 8 5 8 8 9 6 3 4 3 3 5 2 8 8 6 8 6 6 4
3 3 6 6 2 2 3 3 3 5 6 4 5 6 5 6 5 7 6 5 2 3 4 8 5 1 5 2 5 7 9 13 7 5 4 4 4 4 6 4 4 5 5 7 7
3 3 3 3 3 2 4 5 3 6 5 5 7 7 8 10 10 8 9 8 9 5 13 2 3 7 12 5 5 5 12 15 10 5 6 10 3 6 3 4 6 6 8 2 6
2 2 4 4 5 4 2 1 4 4 5 2 4 10 6 4 9 13 13 12 7 15 4 6 4 6 13 7 5 3 9 16 18 14 10 7 15 13 11 10 4 7 9 5 6
3 3 1 3 4 5 5 6 4 2 2 4 6 6 5 6 9 12 9 7 4 6 6 6 2 4 10 3 3 4 11 12 19 18 17 13 18 10 11 13 14 9 8 6 3
5 4 2 3 4 4 3 2 2 3 1 2 3 5 8 5 6 9 7 7 2 2 4 2 4 6 1 7 4 4 13 15 11 14 15 16 19 12 12 9 7 7 7 7 6

GFSSW_925_spd_093.txt.gz
Wind_Speed
14 14 12 14 14 14 15 15 15 16 16 17 18 19 18 18 16 11 5 9 10 12 14 4 6 11 10 3 2 2 3 3 3 6 6 2 5 3 4 8 5 3 4 7 14
13 13 13 13 14 12 14 15 15 15 16 17 18 19 18 15 10 14 13 13 9 10 15 10 5 8 3 1 1 3 3 5 1 2 7 4 7 7 4 4 5 8 7 10 13
13 13 13 13 12 14 13 14 15 15 16 17 17 19 19 14 1 4 12 13 6 6 6 8 7 4 4 3 1 5 4 1 8 5 7 4 5 4 9 2 3 10 11 9 9
13 13 13 13 12 13 14 14 15 14 16 16 17 19 19 7 3 6 11 12 4 3 6 7 6 2 4 5 4 5 4 4 6 8 3 4 4 5 3 5 8 11 11 11 10
13 13 13 12 13 12 13 14 14 14 14 14 16 16 12 2 3 10 9 8 4 5 7 3 6 3 6 6 6 1 4 5 11 10 4 5 4 6 5 7 9 11 7 11 11
13 13 13 12 12 12 12 14 13 13 13 13 13 16 2 5 13 12 8 10 5 7 4 6 2 7 6 9 10 7 3 3 7 10 9 3 3 8 3 5 8 10 9 6 10
13 13 13 12 12 11 11 13 13 12 11 10 10 11 3 3 9 13 11 5 8 7 1 9 4 7 2 8 7 11 10 4 5 3 7 6 1 8 5 7 7 8 8 7 7
13 13 12 12 11 11 10 10 10 9 8 6 10 8 1 8 11 13 17 7 7 5 4 2 8 6 1 2 5 6 3 4 3 8 2 4 6 15 5 7 8 7 7 8 8
13 12 11 12 10 10 7 9 8 8 7 6 8 2 4 8 15 15 11 9 9 7 7 2 4 3 7 5 5 2 5 4 6 4 6 5 4 14 13 10 9 9 8 9 8
13 12 11 10 10 8 8 8 4 7 3 4 9 4 6 6 11 12 11 3 4 4 5 8 6 4 4 4 4 7 6 6 6 3 6 8 10 8 6 6 10 9 8 7 8
12 12 11 9 8 5 8 3 3 4 8 4 2 3 4 11 7 7 9 5 2 6 5 4 5 1 4 4 3 5 9 5 12 12 10 17 13 11 5 1 9 9 8 7 9
12 12 10 7 4 2 4 1 1 2 3 2 1 3 2 8 3 8 15 1 4 4 2 4 1 2 7 7 6 2 6 6 1 15 5 2 6 8 13 6 7 9 8 8 6
11 10 8 2 0 1 2 3 2 1 2 2 1 1 3 4 3 6 7 4 3 5 4 3 2 9 7 6 4 2 4 4 5 4 3 5 6 8 13 7 8 9 8 10 10
10 10 6 3 0 1 2 2 1 1 4 4 2 1 2 1 3 3 5 1 2 3 5 1 3 4 6 1 3 2 2 7 9 6 4 7 4 5 14 10 13 13 12 11 10
8 8 5 5 1 1 4 4 1 0 4 4 2 2 2 1 2 1 3 4 2 2 4 3 4 3 2 3 1 1 3 6 4 3 3 3 2 6 3 7 15 11 11 11 11
7 6 8 5 2 3 3 4 0 5 2 2 2 2 3 3 3 2 2 1 3 1 3 2 2 3 3 3 4 5 3 4 4 3 1 5 5 4 4 6 5 7 14 13 11
6 10 10 2 2 7 7 2 4 5 1 3 3 4 3 5 5 5 3 3 2 2 5 5 4 5 1 2 5 2 4 1 3 1 5 4 5 9 7 7 6 10 7 6 8
9 14 7 2 6 9 2 4 6 4 5 3 3 5 3 6 5 7 3 6 8 4 3 5 5 7 5 5 5 5 6 4 5 4 4 4 6 5 10 5 3 6 8 7 7
17 11 5 8 8 5 3 2 7 6 6 4 4 3 3 5 5 5 9 7 7 11 5 5 5 2 4 3 6 5 3 3 4 3 3 4 5 8 7 5 4 6 5 6 7
18 9 6 9 8 5 2 4 4 5 4 2 5 7 4 4 5 6 4 5 5 12 10 4 3 4 4 3 3 2 1 2 2 3 3 4 3 5 2 7 4 7 6 6 6
11 3 8 12 8 1 3 5 3 4 4 5 4 4 3 3 7 4 4 6 3 4 5 6 4 1 3 7 9 3 1 1 3 4 4 2 4 4 5 9 9 7 6 5 6
6 3 13 14 2 3 2 4 2 5 3 2 2 3 3 4 4 2 5 7 5 5 6 3 3 4 7 3 2 3 5 4 4 4 4 3 4 4 8 7 7 7 6 5 4
4 3 8 5 3 3 3 2 3 4 5 5 4 6 2 0 3 3 2 7 9 4 2 4 3 3 3 1 4 5 5 4 2 2 4 5 5 3 4 6 6 7 5 5 5
4 3 0 2 3 3 4 4 3 3 2 3 2 2 2 3 4 4 5 5 5 4 10 7 2 1 3 2 3 4 10 12 8 3 2 5 2 4 5 6 5 6 6 8 7
3 5 6 5 5 5 4 2 4 4 2 2 2 3 1 2 5 4 5 4 4 9 5 3 3 5 8 11 6 3 6 13 13 9 9 6 13 13 8 4 4 5 6 3 6
4 4 1 2 4 6 4 4 6 3 4 1 2 3 4 1 1 3 3 1 3 5 4 3 1 5 5 10 8 8 12 13 17 16 14 8 9 5 7 6 5 5 7 8 8
6 1 3 2 3 5 5 4 5 6 4 5 4 2 3 2 3 5 4 6 5 4 1 1 2 2 4 1 8 4 13 14 11 15 15 15 21 7 13 7 7 6 4 5 5

GFSSW_925_spd_096.txt.gz
Wind_Speed
15 14 14 12 12 11 12 13 14 15 15 16 17 18 19 18 16 9 3 10 12 11 13 3 1 3 15 4 5 2 2 5 5 8 5 3 5 2 4 5 3 2 3 13 30
14 15 14 14 13 12 12 13 14 15 16 16 17 17 18 19 13 7 11 16 13 5 10 11 3 4 5 6 4 3 3 5 2 4 3 4 5 7 5 2 4 4 10 18 23
13 14 14 14 13 11 12 13 14 15 15 16 17 17 19 15 3 5 14 17 9 7 2 3 7 1 5 5 5 2 2 1 6 11 5 5 4 3 10 2 4 10 12 8 13
13 13 14 14 13 12 11 12 13 15 15 14 15 16 17 5 3 13 13 11 6 7 5 8 6 3 4 9 10 8 6 6 7 10 6 4 2 4 3 3 7 6 6 7 8
11 13 13 14 13 12 11 11 13 13 14 13 14 17 8 4 4 16 13 11 6 8 8 5 6 5 3 5 7 5 3 8 9 13 10 7 7 2 4 6 8 8 4 5 8
10 12 13 13 12 12 12 11 13 13 12 11 11 11 4 5 13 14 14 9 2 2 5 2 5 6 4 6 12 5 8 11 12 10 9 3 4 3 3 3 8 7 7 5 5
8 10 13 12 12 12 12 11 10 9 8 8 9 10 3 3 14 14 14 9 3 10 7 5 4 4 5 4 7 11 4 9 9 7 6 11 4 3 5 3 6 7 6 5 4
9 9 10 12 12 11 9 8 8 8 6 6 9 3 3 8 14 14 12 8 5 11 13 7 6 3 2 3 4 6 6 4 2 5 3 5 5 1 6 7 4 5 5 6 6
10 8 10 12 11 11 7 7 8 9 7 4 2 2 5 12 12 13 10 5 5 6 4 8 3 2 3 6 5 2 3 4 3 3 2 5 3 5 4 6 8 6 7 7 6
11 9 9 11 10 9 6 7 5 8 3 1 2 3 7 6 12 13 11 4 3 2 2 5 4 2 4 4 5 6 4 2 4 4 4 2 4 6 6 11 10 9 7 7 6
10 9 8 8 8 6 5 1 3 4 6 3 2 4 3 12 5 9 12 4 3 6 5 5 5 2 1 1 2 6 9 8 5 11 8 8 5 8 10 12 11 9 8 8 9
10 10 7 3 4 3 2 1 2 1 3 2 3 1 4 4 3 7 12 3 6 4 3 6 1 4 6 4 2 2 6 5 3 8 4 5 7 12 12 12 12 10 11 10 6
11 10 4 4 2 2 1 3 3 0 3 1 1 1 3 3 2 5 7 4 4 3 3 5 2 5 4 4 2 3 5 5 3 7 2 3 4 11 13 16 11 9 8 9 12
12 9 5 8 2 2 2 4 3 1 4 4 2 2 1 1 2 2 2 1 2 2 1 1 2 3 4 2 2 1 2 7 9 8 4 6 4 4 7 13 13 12 10 10 9
13 9 9 10 4 3 2 4 2 1 3 3 2 1 1 1 2 1 1 2 2 2 4 2 2 4 1 2 3 2 2 4 4 4 4 5 1 6 2 8 16 10 11 12 12
14 10 14 9 4 3 4 6 3 5 4 1 3 3 2 2 2 0 1 1 2 1 2 1 1 3 3 3 3 3 5 7 6 3 1 6 7 4 5 7 4 7 14 15 14
15 14 15 10 3 8 9 4 4 4 2 3 4 4 4 5 3 3 2 1 2 3 2 4 3 2 3 1 3 2 3 3 2 3 3 4 4 8 6 8 7 8 10 12 10
14 18 13 7 9 11 5 4 3 4 6 3 4 3 3 5 5 5 2 3 6 4 2 3 5 8 6 6 6 5 8 3 5 3 4 5 6 6 10 8 8 8 4 7 9
18 16 13 11 11 10 4 2 7 6 6 7 3 3 2 4 3 4 5 4 6 10 6 4 5 2 3 3 7 4 3 4 4 3 3 3 6 8 6 3 2 5 4 3 1
20 10 9 14 12 5 3 6 3 4 4 3 6 5 5 4 5 6 5 4 4 10 6 3 3 3 4 3 1 3 5 3 2 5 4 4 4 5 3 7 4 4 5 3 2
9 3 10 14 12 3 3 6 4 4 3 4 5 3 4 3 6 3 4 3 4 2 7 4 2 1 2 6 8 3 2 2 3 3 4 1 5 5 7 7 10 8 7 6 4
8 3 15 17 3 2 3 5 2 4 2 1 2 2 3 1 2 3 5 4 6 2 4 3 3 6 10 0 3 4 6 7 4 5 2 3 5 4 1 6 6 6 5 4 4
4 3 9 2 4 4 4 2 4 4 4 4 4 5 3 3 1 4 1 2 7 3 2 4 3 3 2 3 2 5 5 4 5 3 6 4 4 1 1 5 5 8 6 5 5
4 4 2 2 0 3 4 4 4 3 4 4 3 3 3 4 4 3 1 4 3 4 5 6 3 4 1 3 3 4 6 9 7 4 4 5 3 4 5 6 5 4 3 2 3
3 4 6 6 7 6 4 7 5 5 3 5 2 2 3 1 2 2 2 4 4 9 3 1 4 2 8 10 7 5 6 11 11 8 8 5 7 7 6 5 3 4 4 4 6
4 4 2 4 4 11 5 7 7 4 5 3 5 4 3 4 6 4 2 2 1 4 2 3 2 1 5 3 10 14 10 7 11 10 15 7 13 3 4 4 2 3 5 6 7
3 2 3 3 4 6 5 6 7 9 4 4 7 4 3 3 3 4 4 2 4 3 1 1 1 2 4 5 5 8 15 14 9 9 14 15 18 2 7 8 6 7 8 7 8

GFSSW_925_spd_099.txt.gz
Wind_Speed
12 12 13 13 13 13 14 12 14 14 14 15 16 17 17 18 17 11 4 10 14 10 12 15 8 5 7 3 1 6 5 13 7 15 7 5 5 3 2 7 3 2 3 14 33
13 12 12 12 14 12 12 14 14 14 15 15 16 17 17 19 9 6 13 17 12 7 9 8 5 12 2 4 2 7 3 3 5 2 5 6 6 11 4 4 2 6 13 25 28
12 12 12 12 12 13 13 12 13 13 15 15 16 17 17 11 2 4 17 16 7 4 3 4 6 6 5 5 2 6 7 2 4 5 2 5 5 2 12 1 5 13 18 17 20
15 12 12 12 12 12 13 12 12 12 13 14 15 16 10 6 2 9 18 12 6 3 10 10 4 3 5 6 6 7 10 3 2 6 5 4 2 6 2 5 5 12 19 13 17
17 13 12 12 11 11 12 13 12 12 12 12 13 13 6 4 4 18 18 14 6 4 8 4 8 5 5 6 3 11 15 5 5 9 17 5 6 5 5 4 8 9 11 15 17
17 16 14 12 10 10 12 13 12 11 10 11 12 10 3 6 17 18 16 11 6 4 5 2 3 3 3 7 9 7 10 13 7 10 13 7 5 3 5 3 7 6 8 7 12
16 16 15 12 11 9 11 13 11 8 8 9 10 9 2 4 18 18 15 9 6 3 4 2 4 5 2 12 10 4 5 8 16 10 8 9 6 6 4 2 4 3 4 6 8
16 16 14 13 12 9 7 10 8 9 9 8 9 3 3 8 11 16 14 10 8 2 3 5 4 2 2 7 6 4 5 4 12 11 7 8 3 4 6 7 6 4 1 1 6
15 16 14 14 12 8 6 8 7 9 10 5 2 1 5 8 6 16 12 8 10 5 5 2 2 1 1 5 3 1 4 6 7 9 6 9 3 7 6 7 6 5 5 4 5
16 16 15 13 10 7 5 8 5 8 3 2 1 3 5 4 7 12 12 8 4 6 4 4 2 3 3 3 3 4 5 5 6 2 5 8 8 10 6 5 5 5 4 5 5
16 16 16 11 9 4 2 1 3 3 3 1 1 2 2 7 4 7 11 7 5 6 4 5 6 4 3 4 2 5 6 10 8 8 3 4 5 16 9 7 8 8 7 6 8
15 17 15 10 6 4 1 1 2 1 2 5 3 2 2 1 4 5 8 3 5 2 5 6 3 2 5 3 3 5 6 3 6 14 5 10 8 10 12 10 6 6 9 8 5
14 16 13 8 5 4 4 4 3 1 1 3 3 2 2 1 1 4 4 2 3 4 4 3 4 5 5 3 3 2 2 1 4 10 2 8 4 7 9 14 10 10 8 7 12
12 15 12 7 3 6 3 7 3 2 4 3 3 3 1 1 2 2 1 1 2 2 0 0 4 2 2 2 1 1 3 5 8 7 3 3 3 4 10 12 14 15 10 10 9
14 14 12 14 3 5 6 9 4 2 3 2 3 3 1 2 0 2 1 2 2 0 4 4 1 1 2 2 1 3 4 5 6 4 5 2 1 6 1 11 17 16 10 10 10
17 14 13 11 5 6 10 10 4 5 5 2 3 3 2 2 1 0 1 1 1 1 2 3 3 3 3 2 1 1 5 7 5 3 2 6 5 4 5 8 6 8 11 11 11
16 15 18 9 4 13 13 4 4 3 3 3 5 4 3 4 2 3 2 2 4 3 3 5 3 3 3 1 3 3 5 2 1 3 4 3 4 7 4 6 7 9 10 10 12
18 13 17 9 12 16 8 4 2 3 5 2 3 4 4 5 3 1 1 2 4 3 3 3 5 6 4 5 5 4 6 4 6 3 2 2 6 6 6 5 7 8 8 7 9
12 15 7 12 17 16 3 2 6 5 5 8 3 3 2 3 3 3 4 4 5 9 6 4 5 2 2 1 4 4 3 6 3 1 3 4 6 8 9 7 3 6 5 4 3
14 12 6 17 16 5 3 5 4 3 3 3 3 4 5 3 4 4 3 3 3 9 4 3 3 2 3 2 1 4 6 4 0 4 4 3 4 5 3 6 2 4 6 3 3
13 3 11 17 12 2 3 6 4 3 3 4 6 4 4 4 6 4 4 1 2 3 5 3 1 3 0 5 7 2 2 2 4 2 4 2 5 6 7 5 8 8 4 1 4
6 3 19 21 3 3 3 5 3 4 1 2 3 2 4 4 3 3 4 1 7 1 4 3 3 4 8 3 1 2 2 4 3 4 1 3 5 4 5 7 6 5 3 1 2
4 2 12 4 4 3 4 3 4 3 3 2 3 3 3 4 2 4 4 3 8 4 2 1 1 2 7 2 1 3 4 7 3 2 5 4 5 3 5 4 4 7 5 3 3
3 4 2 2 0 2 4 4 3 1 3 3 3 3 3 1 2 1 3 4 4 5 9 3 3 5 5 1 2 6 3 10 11 3 5 9 3 3 2 2 3 1 3 3 2
4 5 5 6 8 7 4 6 5 5 1 3 2 3 5 4 1 2 2 3 4 7 4 2 6 6 9 9 8 8 8 9 11 11 8 4 8 6 6 5 5 4 0 1 4
4 4 2 3 9 13 4 6 8 4 5 3 4 4 4 5 5 6 4 3 1 5 3 3 2 2 5 7 7 12 9 10 12 6 13 5 6 5 1 3 3 5 4 4 6
6 1 4 4 5 9 5 5 8 9 4 1 6 5 2 1 3 4 3 4 4 4 1 2 3 2 4 4 2 3 8 11 9 10 7 10 10 3 2 7 6 7 6 8 8

GFSSW_925_spd_102.txt.gz
Wind_Speed
13 14 17 18 18 16 14 13 14 14 16 16 16 16 16 18 19 7 4 9 14 12 7 11 3 13 4 2 2 1 1 4 11 6 7 3 6 1 5 10 4 17 6 5 25
14 14 14 16 17 17 14 14 12 15 16 16 16 16 18 19 11 6 11 16 12 4 4 5 6 9 2 3 2 3 4 6 6 9 6 4 5 10 7 6 8 11 8 21 26
14 13 14 16 16 17 15 13 12 14 15 16 17 17 20 11 2 4 15 15 11 9 7 6 4 3 3 2 2 5 5 3 9 5 11 4 2 3 15 5 7 23 21 19 21
14 13 13 14 16 17 16 13 11 13 15 16 16 18 20 4 1 8 16 14 9 7 7 3 4 1 4 6 4 5 6 17 4 6 5 4 2 4 4 2 9 22 23 18 15
16 14 11 14 16 16 15 14 12 11 14 14 16 18 10 3 4 15 18 10 8 5 8 4 2 2 4 4 7 4 5 14 15 13 4 4 3 5 5 7 12 24 25 18 13
18 15 12 14 15 16 15 14 12 10 13 13 15 17 4 1 9 15 15 8 5 2 3 3 3 4 8 4 5 5 12 17 14 8 11 5 4 2 6 7 8 19 21 23 21
18 15 14 14 14 15 15 14 12 8 9 13 13 15 4 6 10 12 11 9 5 4 1 3 7 3 7 3 10 5 5 14 9 11 7 9 6 6 7 5 6 6 11 13 17
18 14 13 14 16 17 15 14 10 8 9 12 12 6 5 5 8 9 10 3 6 3 7 4 3 2 4 14 6 5 5 6 12 17 4 4 4 6 9 9 9 6 4 7 15
20 12 15 13 16 17 16 11 11 8 8 8 5 2 7 12 4 8 7 5 7 3 4 7 2 2 3 6 6 4 2 3 9 12 6 9 3 6 7 8 8 8 5 2 4
23 13 14 12 15 15 16 11 9 8 3 4 4 3 4 4 7 11 7 2 1 4 3 3 4 3 3 5 3 5 2 5 5 7 10 10 8 8 7 7 6 6 7 5 1
24 14 11 10 13 12 13 5 2 2 1 3 4 4 5 11 7 6 5 1 1 5 4 5 6 4 4 1 2 2 4 4 4 5 7 7 8 8 7 8 8 6 5 5 6
34 18 8 11 10 9 10 3 2 2 3 5 4 5 7 5 4 5 11 4 4 3 3 6 3 1 5 4 2 3 5 4 8 12 7 10 6 9 5 5 5 6 7 6 4
46 20 8 5 8 8 9 4 3 3 2 4 3 3 4 2 3 5 6 3 4 3 4 5 3 3 1 1 3 1 4 4 4 8 1 7 3 6 6 5 11 9 8 5 8
40 14 8 2 4 5 5 8 4 3 4 4 2 3 1 1 3 2 4 2 4 3 2 2 1 1 0 2 2 1 3 2 7 4 0 3 1 5 10 9 13 14 9 9 8
26 13 11 11 2 4 3 9 6 1 3 2 2 1 1 1 3 4 4 5 2 4 5 2 2 1 2 2 2 2 2 5 4 3 2 2 0 4 9 10 21 17 10 8 9
21 18 12 7 9 2 8 8 2 5 6 2 3 1 1 0 1 3 4 4 2 3 4 3 2 3 2 2 2 4 5 7 5 2 2 6 4 3 5 13 12 17 11 9 9
33 20 16 8 2 11 11 1 3 3 3 3 4 4 2 2 1 1 1 3 1 4 4 7 3 2 2 1 2 3 4 1 0 2 3 3 4 7 4 5 6 9 10 10 8
15 19 13 12 5 15 8 2 2 3 5 2 3 4 4 5 2 2 1 2 3 2 2 1 7 2 1 4 4 3 5 4 5 3 2 1 6 6 5 5 6 8 7 4 5
17 14 10 11 10 15 2 2 5 5 5 8 3 3 3 2 1 2 3 3 5 7 5 3 5 2 2 2 1 2 2 3 6 2 2 4 6 8 8 9 6 7 4 4 4
5 5 6 13 16 5 1 4 4 3 4 2 3 3 5 4 4 3 2 2 2 7 1 2 3 1 5 2 2 3 5 3 2 3 4 3 4 5 4 5 3 5 3 3 4
7 3 12 17 13 2 3 5 5 4 3 3 4 4 3 5 6 4 3 1 3 1 5 3 2 5 3 4 6 2 2 1 3 3 4 1 5 5 5 5 5 7 1 4 4
4 2 20 25 5 2 3 4 4 3 1 2 4 3 6 6 4 4 4 1 7 1 3 3 3 4 7 2 1 2 3 4 3 3 2 3 5 2 5 7 6 2 5 2 3
4 2 12 10 4 4 3 4 4 3 3 3 2 2 2 5 2 4 4 2 7 4 2 3 2 3 9 0 3 3 4 7 1 2 5 4 5 2 3 7 6 5 4 3 3
3 3 2 2 1 2 3 4 3 1 3 3 3 3 3 1 2 3 2 3 3 3 7 2 3 5 5 5 2 3 3 5 7 2 3 8 2 3 6 5 4 5 4 3 3
3 2 4 5 7 5 2 3 4 4 1 2 2 3 5 3 1 3 2 1 5 7 5 3 1 1 9 10 8 6 9 6 6 4 4 1 8 7 3 3 2 1 4 4 3
4 3 1 3 4 12 4 4 7 2 4 2 3 4 4 5 4 5 4 1 2 5 3 4 1 2 4 7 9 10 8 11 13 8 10 8 6 5 5 0 3 3 1 2 3
5 1 4 4 5 9 5 4 7 8 2 3 6 5 4 3 4 4 5 5 4 4 2 3 1 3 4 5 2 3 6 8 3 4 4 9 3 4 11 5 3 4 6 6 6

GFSSW_925_spd_105.txt.gz
Wind_Speed
15 14 15 14 15 16 16 13 14 13 15 15 14 15 16 18 20 18 5 8 15 13 9 11 7 8 8 4 4 3 5 2 13 6 8 6 16 1 2 9 2 8 8 8 15
16 15 14 14 14 15 16 15 14 12 14 15 14 16 17 19 15 9 11 15 14 7 10 9 5 10 4 1 0 2 4 2 10 8 5 9 9 9 4 6 4 7 12 16 12
18 15 14 14 14 13 16 16 14 13 13 14 13 16 18 15 3 5 9 14 13 10 12 8 3 9 4 4 2 3 4 5 9 12 5 12 10 3 9 11 12 18 16 13 13
21 16 14 15 15 13 14 15 14 13 13 13 12 16 22 2 2 6 12 13 9 9 11 9 1 5 4 4 2 3 7 6 13 13 7 21 7 5 9 2 13 18 20 24 25
23 19 14 14 15 13 14 14 14 13 12 11 12 15 11 3 6 10 14 12 3 6 5 5 1 1 4 5 4 1 4 8 14 15 13 15 14 5 3 9 9 17 16 19 17
26 20 12 14 16 14 12 14 13 15 12 10 10 14 3 3 9 12 14 9 2 2 3 5 3 1 6 4 2 5 8 13 13 18 21 13 14 2 5 14 12 23 21 17 21
32 21 14 12 16 16 11 12 13 15 12 10 8 10 2 9 12 12 10 5 3 2 1 1 3 2 5 5 9 7 3 11 9 16 10 2 11 4 11 9 15 22 20 19 21
25 17 16 11 16 16 16 10 11 15 12 10 5 3 5 6 11 11 13 3 2 1 4 3 1 2 0 7 5 5 6 5 5 16 13 11 11 4 10 8 10 2 12 13 14
28 33 16 9 14 18 19 11 10 14 12 9 2 3 7 9 4 10 10 6 10 3 3 3 2 2 4 3 3 1 3 3 8 10 13 7 4 4 7 11 9 6 1 9 17
27 27 14 8 10 17 19 14 7 14 5 4 1 3 4 4 6 11 10 8 4 6 2 3 2 1 2 1 4 7 6 5 4 3 13 11 4 5 5 9 6 5 2 2 7
29 25 27 11 7 12 13 5 5 3 4 6 4 4 2 8 8 2 7 7 4 2 1 2 3 3 3 2 3 4 9 4 3 5 8 7 11 7 6 3 5 4 3 2 3
29 29 22 11 4 8 7 1 1 2 6 7 3 3 7 2 2 2 5 0 3 1 5 5 2 2 4 3 3 3 7 3 1 8 8 5 14 8 3 3 2 2 2 2 3
30 36 6 8 3 4 5 5 2 3 3 3 4 3 3 2 2 3 3 0 2 2 3 3 1 3 1 2 4 1 4 5 5 7 0 2 7 5 1 2 4 4 3 3 6
27 22 3 2 5 3 4 5 3 2 3 3 3 2 2 2 2 2 1 2 1 1 1 1 4 2 2 0 3 2 1 4 8 8 1 2 2 4 4 6 3 6 5 7 6
26 23 11 7 2 4 3 5 4 2 3 0 2 1 1 2 1 3 2 2 2 2 4 2 3 2 1 2 1 3 2 6 4 2 3 3 1 5 5 5 8 11 8 9 8
24 21 16 10 8 4 3 4 2 4 6 0 1 2 2 1 1 3 2 3 1 3 3 2 3 2 2 2 2 4 5 6 4 2 1 5 5 4 6 5 5 4 11 9 9
28 21 13 12 4 7 7 3 3 3 3 2 3 2 2 2 2 2 2 3 2 4 5 5 1 4 2 2 2 1 3 1 2 2 3 3 4 6 5 4 6 7 6 6 6
31 13 23 14 7 16 6 3 3 3 4 2 2 2 2 4 2 2 2 4 2 3 3 3 5 1 2 2 2 4 3 4 5 4 2 2 6 5 6 5 6 6 5 4 8
14 12 15 16 11 17 4 2 3 4 2 5 3 2 2 0 2 2 1 1 2 5 3 2 4 1 3 2 3 1 4 2 5 2 1 3 4 10 5 7 6 5 4 4 3
9 2 2 16 17 10 3 3 3 3 2 1 1 2 4 2 1 2 0 0 3 4 1 2 3 0 3 1 2 3 1 2 2 4 3 3 4 5 5 6 5 3 3 4 5
3 2 6 13 16 3 2 3 4 5 3 3 4 2 2 3 4 2 1 2 4 3 4 3 1 5 2 1 3 1 2 1 1 2 3 2 4 4 4 4 6 4 3 2 5
4 2 12 23 3 3 3 3 3 4 2 1 2 2 5 4 3 3 3 1 6 3 2 2 2 4 6 2 2 3 1 2 3 4 1 2 4 2 4 6 4 4 5 3 3
1 1 12 6 3 3 3 2 2 2 3 2 2 1 1 4 2 2 3 2 7 4 2 3 2 3 9 3 3 3 1 3 6 3 4 5 3 3 5 6 7 3 4 4 4
2 2 2 2 2 4 4 4 2 3 2 2 2 2 3 2 4 4 2 4 4 4 7 1 2 5 6 5 2 4 3 1 2 3 3 2 3 2 6 6 6 5 3 5 4
2 2 2 4 3 4 3 1 2 3 0 2 1 2 4 3 2 2 1 2 5 7 4 4 2 2 4 6 4 11 13 8 1 2 3 1 3 8 7 6 2 3 3 6 6
3 2 2 2 6 5 2 2 4 2 3 3 2 3 2 3 3 6 4 1 1 5 3 5 1 2 4 4 5 5 9 8 8 7 10 9 8 8 5 5 6 3 4 3 5
5 4 2 5 5 6 4 4 2 5 1 3 3 4 4 3 5 4 5 5 4 4 2 2 2 3 4 6 4 3 4 3 2 2 3 3 2 5 9 5 5 5 5 6 6

GFSSW_925_spd_108.txt.gz
Wind_Speed
21 16 15 13 12 11 12 13 14 13 11 13 14 14 15 16 20 15 11 10 13 11 10 11 11 11 14 9 13 9 8 14 10 14 9 12 20 22 13 15 15 22 10 14 27
23 18 14 13 13 12 12 12 12 12 12 12 14 13 15 18 15 13 10 12 14 8 9 8 4 9 6 8 7 8 10 10 4 8 11 13 14 22 22 17 14 18 4 17 21
25 21 16 14 12 12 12 12 10 11 11 12 13 13 14 15 6 4 5 12 11 9 7 5 6 11 5 5 7 6 9 11 7 9 13 18 19 17 24 20 17 22 17 17 18
25 26 19 15 11 12 11 12 10 10 9 10 13 12 15 2 4 3 8 13 7 7 4 8 5 9 5 7 6 7 6 3 4 8 17 11 19 17 23 26 12 20 20 19 16
23 25 18 16 12 12 13 11 12 10 7 8 12 12 5 4 6 7 13 10 4 5 5 4 6 4 8 7 7 5 6 3 6 9 15 16 19 14 16 14 12 17 17 18 15
26 26 19 16 12 10 11 12 10 11 7 5 10 11 3 5 1 8 13 7 3 3 3 5 3 4 2 4 9 7 7 8 12 16 12 16 15 16 10 11 14 16 19 18 18
25 24 32 16 12 9 10 10 10 12 10 5 7 6 6 9 5 10 9 7 3 3 2 2 4 3 3 4 3 7 7 4 9 9 8 19 11 14 15 14 14 18 16 18 19
25 24 23 16 10 10 13 12 9 9 8 6 5 4 6 5 9 9 8 5 4 5 5 3 2 4 4 3 4 5 4 4 3 11 5 6 11 16 8 10 12 21 19 21 21
26 22 21 20 11 12 13 16 10 7 8 5 3 4 8 7 5 7 7 6 11 5 5 3 2 2 5 5 4 6 4 6 5 5 4 7 13 4 5 3 4 12 15 19 19
25 25 22 25 14 13 15 14 6 6 3 4 2 3 5 2 5 10 5 3 3 7 4 5 3 2 3 5 2 6 6 7 9 4 3 5 10 6 2 1 7 9 10 9 18
24 27 23 24 17 11 10 3 3 3 4 6 5 2 3 4 5 3 4 6 3 1 3 1 4 4 5 6 8 4 6 8 2 6 1 2 10 15 1 5 5 8 7 9 7
22 26 26 10 12 7 6 3 1 1 5 9 4 3 4 2 2 4 6 3 2 2 3 4 4 2 6 6 3 3 5 5 2 0 4 1 12 13 3 5 6 9 8 10 11
19 22 21 2 3 5 4 4 3 3 4 2 4 3 2 5 1 3 4 2 2 2 2 5 1 5 6 3 2 1 2 4 1 3 7 6 6 3 4 6 6 6 9 8 10
17 19 15 11 5 3 2 3 5 3 1 3 4 2 4 3 1 1 3 3 3 2 2 4 3 3 5 5 5 2 2 4 6 7 2 1 1 10 9 9 9 12 12 12 11
17 17 17 14 4 3 3 7 5 1 1 3 3 1 2 2 2 2 2 2 2 1 2 1 2 2 5 4 5 3 3 3 6 2 3 4 5 8 10 7 11 13 12 12 13
18 16 18 7 9 6 5 7 2 2 2 2 2 3 3 1 2 0 3 1 2 1 3 4 2 3 4 5 2 2 4 5 4 3 4 4 5 5 8 14 15 11 9 12 13
17 20 17 10 4 12 7 3 2 1 0 2 2 3 2 2 1 1 0 2 2 2 2 2 3 3 2 5 3 6 6 3 4 3 3 2 5 7 3 4 4 6 11 10 10
19 28 14 18 12 11 6 3 3 1 3 1 2 4 3 5 1 1 2 1 0 1 1 3 1 2 2 2 3 8 4 3 5 4 2 2 4 1 6 2 4 5 7 7 9
15 7 12 15 12 14 5 2 3 3 1 3 3 4 4 3 1 2 0 1 1 3 3 3 1 2 3 4 2 1 6 3 1 1 3 2 4 9 5 2 2 4 5 6 7
7 5 3 12 7 3 2 2 3 4 2 2 1 2 3 4 4 3 1 2 2 2 3 1 4 1 2 2 2 3 2 2 3 5 5 3 4 5 10 10 7 6 2 3 2
2 1 1 12 9 2 2 3 2 3 4 3 0 2 1 2 3 2 2 2 4 2 2 1 2 1 3 2 5 1 3 3 2 4 2 3 3 5 7 8 8 5 4 3 3
1 2 4 14 2 2 2 3 1 2 3 2 1 0 2 4 3 2 2 3 6 2 1 2 2 3 5 3 4 1 3 5 4 3 0 6 4 8 9 8 6 3 5 5 4
2 2 7 2 2 3 1 2 2 1 3 1 1 1 1 3 1 1 2 2 7 3 2 2 1 3 1 3 6 4 4 2 4 3 4 3 4 6 11 12 10 7 6 4 5
2 1 2 1 3 2 4 4 2 1 2 1 2 1 2 2 2 3 3 3 3 3 6 1 2 2 5 4 3 5 5 4 4 2 5 3 1 2 12 11 9 8 7 7 7
1 1 1 3 2 3 4 3 1 3 2 1 1 2 2 2 2 2 2 2 4 4 3 2 1 2 6 6 8 9 9 7 5 6 3 4 7 10 9 11 8 5 5 6 9
0 2 1 0 5 3 1 1 1 2 1 1 2 3 1 1 2 2 3 1 2 3 3 3 1 0 2 5 4 4 6 8 10 10 10 10 12 11 14 8 8 5 4 6 9
3 0 1 2 4 3 2 2 2 2 3 5 1 3 3 4 6 7 8 7 4 1 2 2 2 2 2 7 2 2 4 2 0 0 4 4 5 9 12 9 8 9 7 10 10

GFSSW_925_spd_111.txt.gz
Wind_Speed
22 21 17 14 12 11 11 11 11 12 12 11 10 13 14 15 20 15 12 7 11 15 10 14 15 14 12 10 17 13 9 15 25 23 23 4 13 20 24 17 32 16 26 13 31
21 21 19 15 13 12 11 11 11 11 11 12 9 12 14 17 17 14 5 9 12 11 11 12 8 7 7 12 8 10 12 21 15 6 9 7 11 15 18 25 27 13 16 26 36
23 19 19 20 15 12 10 10 10 10 10 13 8 10 14 17 13 2 4 6 13 8 8 8 7 7 10 9 14 12 14 18 9 4 7 12 14 19 17 25 21 15 9 22 20
23 24 23 24 18 13 10 10 9 9 9 12 10 9 15 9 4 1 6 9 12 7 11 8 7 10 10 10 14 8 19 10 6 1 3 6 16 15 23 30 10 12 33 18 23
24 24 25 30 20 15 10 9 9 10 9 10 9 9 10 6 8 1 8 9 7 6 8 5 8 11 12 12 11 16 7 4 4 6 3 7 16 18 21 15 15 22 30 23 21
24 25 24 26 17 13 10 10 9 9 9 9 6 7 9 9 3 2 7 7 4 7 5 6 5 8 11 9 11 6 7 7 5 7 5 5 19 10 17 19 14 20 28 21 22
24 24 24 23 16 15 10 10 10 10 10 8 6 5 10 13 2 5 6 7 4 4 3 3 7 4 6 2 5 4 8 8 5 2 5 9 12 17 19 16 13 18 12 14 16
23 23 23 24 23 16 12 13 12 11 9 7 5 4 7 4 5 9 5 7 4 6 5 6 6 7 7 3 5 8 12 10 12 6 4 4 12 12 12 14 16 15 12 17 17
25 24 24 25 21 19 16 15 13 12 9 5 4 5 8 2 6 3 3 5 8 7 4 3 2 4 4 4 6 11 8 12 8 9 6 5 9 6 13 16 13 11 15 17 16
24 24 26 27 24 20 16 15 11 4 5 4 5 4 7 0 2 5 3 4 4 3 5 7 4 5 4 5 3 9 16 12 17 7 3 6 11 7 14 11 12 11 17 17 18
22 22 25 28 20 15 11 4 3 4 9 8 3 3 3 4 4 4 1 5 8 6 9 6 6 8 4 8 13 11 12 13 2 5 5 9 7 7 12 7 10 11 11 15 15
21 19 23 23 11 3 5 4 5 2 6 12 10 8 5 3 3 4 3 3 5 9 5 5 9 5 7 12 10 9 9 6 3 1 4 7 10 11 8 9 9 11 13 15 12
22 17 19 17 16 9 7 8 4 0 4 3 5 6 2 4 2 0 4 3 8 10 10 10 7 7 7 12 9 5 10 3 9 3 8 9 15 10 8 9 7 8 10 17 17
23 17 15 15 9 5 5 4 5 3 2 5 4 3 4 2 3 1 3 3 3 8 6 9 5 6 9 11 8 14 4 7 5 7 3 2 4 13 12 14 13 12 12 12 14
23 16 10 9 11 4 4 3 3 4 3 3 4 2 3 3 1 3 2 2 8 7 4 3 7 8 10 8 7 6 9 9 9 9 8 4 5 9 12 13 15 14 12 12 10
19 12 7 8 8 12 9 3 4 2 3 3 4 5 5 3 2 2 1 3 3 7 7 10 4 5 8 11 9 11 10 7 6 4 4 3 2 9 8 12 13 15 16 15 14
16 9 10 8 5 8 5 3 3 3 3 4 3 4 4 5 4 2 2 4 4 4 1 5 3 4 5 9 8 9 9 3 3 3 2 5 4 6 6 4 5 10 11 13 15
9 12 18 18 17 9 5 4 5 3 2 2 3 6 2 6 2 4 3 2 3 6 5 5 0 6 8 6 7 10 9 5 4 2 1 3 2 4 3 6 5 2 2 6 8
12 15 4 7 10 10 4 4 4 2 2 4 5 3 4 4 1 3 1 3 5 6 6 5 2 3 4 8 6 4 4 8 6 3 3 4 4 9 13 7 1 2 2 1 3
9 6 5 7 13 4 3 3 2 2 1 1 4 2 2 4 2 1 1 4 3 5 5 5 5 2 5 7 1 4 1 2 1 3 4 5 1 8 12 10 7 5 3 6 3
4 1 3 5 10 2 1 3 3 2 3 4 4 2 3 2 1 2 4 3 5 5 4 6 2 3 6 6 9 4 3 4 1 4 3 2 6 8 10 9 8 5 7 8 8
5 2 5 8 2 2 0 3 4 3 1 2 2 4 4 2 2 2 2 5 7 5 6 6 5 5 9 6 5 6 5 4 3 4 2 3 4 9 12 11 7 8 7 7 8
3 2 5 5 2 2 2 3 3 3 0 2 3 3 2 2 1 2 2 3 6 4 5 7 1 4 4 3 8 4 5 6 1 2 3 4 3 12 15 15 12 9 10 10 10
2 2 3 2 3 2 1 2 2 2 1 2 3 1 0 1 2 2 3 2 3 3 5 3 1 2 5 6 4 7 8 7 5 2 6 4 3 12 15 16 13 10 10 11 11
4 3 4 1 1 3 3 3 2 2 2 2 2 2 4 1 0 1 1 3 3 1 1 1 0 3 5 5 5 8 8 8 1 5 2 6 10 11 12 11 11 9 9 10 12
3 3 4 4 3 3 2 4 4 2 6 4 2 4 2 3 5 4 1 2 3 2 2 3 1 1 1 5 4 1 4 5 6 8 8 9 9 8 10 10 8 7 6 8 11
3 2 1 4 2 2 3 4 6 3 4 6 4 1 4 5 6 6 6 6 4 2 2 1 2 2 3 4 2 2 2 0 2 2 3 6 6 12 12 11 9 10 9 7 9

GFSSW_925_spd_114.txt.gz
Wind_Speed
23 20 20 21 19 16 13 11 12 12 12 12 11 11 13 13 15 17 13 6 3 6 9 11 13 14 12 4 13 7 4 8 20 20 22 17 4 15 8 9 21 18 14 17 26
23 22 24 24 21 17 14 11 12 11 11 11 12 11 13 14 16 16 10 7 5 7 7 8 7 6 4 6 5 8 5 14 15 17 18 9 9 16 9 12 21 22 20 29 30
24 23 24 26 24 19 15 12 11 11 10 11 11 12 11 15 11 6 5 4 5 7 7 7 11 7 10 8 9 10 14 14 15 15 7 2 9 7 6 17 20 21 23 9 4
23 23 25 23 25 21 14 10 10 10 10 11 11 12 12 8 3 8 2 3 5 3 6 8 10 7 6 8 13 15 16 18 17 12 5 9 4 5 9 15 18 22 19 11 19
22 24 25 25 27 26 14 10 10 10 10 10 10 10 9 5 10 5 2 2 3 4 7 6 8 5 8 8 15 14 17 10 6 9 7 6 8 8 17 19 17 20 25 16 10
22 23 24 25 25 26 14 9 10 10 10 9 10 7 7 8 1 2 3 2 2 3 5 5 5 6 6 10 11 6 13 14 7 11 10 12 10 7 16 17 17 18 18 10 5
23 22 23 24 24 25 19 11 11 10 10 9 9 7 11 15 2 5 5 5 4 3 1 2 3 3 5 7 7 8 9 10 12 14 8 11 8 14 22 9 11 16 11 12 10
24 22 22 24 25 25 21 15 12 11 10 7 8 8 6 4 6 9 9 6 5 4 6 4 3 3 4 8 5 5 7 7 10 14 5 6 11 6 8 10 13 12 16 13 5
23 23 21 23 25 25 20 17 14 12 9 5 4 7 7 2 5 8 3 4 3 8 6 3 3 3 5 3 4 7 5 12 11 14 3 6 8 3 1 4 6 11 15 9 13
24 22 19 22 24 25 13 12 13 8 4 6 10 4 7 1 1 3 6 4 3 2 5 4 3 4 5 3 3 6 7 13 9 11 10 11 15 11 5 6 8 13 14 16 15
23 23 17 17 19 15 5 3 3 4 10 8 8 4 2 7 5 7 3 6 8 5 7 7 5 7 12 13 10 14 14 15 11 9 5 13 14 5 7 6 13 15 14 14 13
24 21 16 14 15 13 4 2 4 4 5 17 15 11 8 4 5 6 2 5 4 8 8 5 8 7 8 9 13 14 17 12 4 9 3 10 12 2 9 10 10 9 7 12 18
23 20 17 12 14 5 3 8 8 8 3 4 9 8 4 4 3 3 3 2 5 7 9 8 9 8 8 9 12 13 12 10 9 1 7 9 9 6 9 11 10 5 5 9 16
23 18 15 9 6 3 2 7 1 2 2 6 5 3 3 4 2 3 2 2 3 3 6 6 6 8 8 10 8 10 4 14 11 9 3 7 5 3 7 9 6 6 6 11 14
17 12 6 7 6 2 4 8 2 2 3 4 4 1 2 4 1 3 1 3 4 10 5 6 4 8 10 7 9 6 12 13 10 8 7 4 2 10 5 8 7 7 7 5 11
10 8 2 7 6 4 6 4 2 2 1 2 3 5 5 3 2 2 1 1 3 4 7 9 5 1 5 12 10 12 12 12 8 2 1 5 3 6 4 4 6 8 9 7 7
13 6 4 6 2 5 2 2 2 2 3 2 4 5 5 5 3 2 1 3 3 4 4 5 1 2 3 10 9 5 6 3 2 1 3 3 2 4 8 3 4 14 4 10 7
15 10 9 10 7 7 3 2 2 4 4 1 4 5 3 5 3 2 3 1 4 5 5 2 3 7 8 7 7 9 3 2 2 3 2 4 5 6 8 9 8 6 5 4 8
13 11 11 10 6 3 1 2 5 4 2 3 5 4 4 2 2 4 4 5 6 7 5 6 4 2 3 5 5 6 4 3 4 3 1 5 6 9 14 15 9 9 4 8 8
9 5 12 6 8 3 2 5 4 6 4 3 2 5 8 4 2 4 2 5 5 6 6 5 4 5 6 4 3 5 5 4 3 5 3 8 7 6 12 10 11 13 10 8 9
4 3 13 11 2 2 2 3 6 8 7 8 8 4 6 5 5 3 5 7 8 8 8 7 3 6 4 6 7 5 4 3 2 1 3 2 2 7 8 8 8 9 9 9 8
5 3 8 11 3 2 4 4 5 7 2 3 4 7 7 5 5 3 5 6 8 6 6 6 3 3 6 7 7 9 6 3 2 4 2 2 1 10 8 8 9 8 8 6 6
3 2 8 6 3 3 4 4 4 9 9 6 6 6 5 5 2 6 6 4 8 5 5 6 3 3 3 3 8 5 7 7 2 2 3 1 0 10 9 10 9 9 9 8 8
2 2 2 3 1 4 5 6 5 4 4 4 3 3 1 5 5 3 5 4 4 6 6 5 2 3 2 4 3 2 7 7 4 2 4 5 5 10 10 8 9 9 9 9 8
4 2 1 3 4 6 6 6 7 6 4 5 3 7 6 4 3 4 3 4 3 2 1 3 2 4 5 3 4 3 4 4 3 4 2 6 6 9 10 10 8 8 8 9 9
3 2 2 2 5 6 3 5 8 7 9 5 7 6 10 5 5 5 5 5 5 1 3 5 1 3 3 3 5 2 2 2 3 5 1 5 1 9 9 9 9 10 12 8 10
2 1 1 2 2 3 3 5 7 6 4 5 8 4 7 5 6 4 6 6 4 3 3 2 2 1 0 1 3 4 2 1 2 2 2 2 4 8 6 8 10 9 9 11 11

GFSSW_925_spd_117.txt.gz
Wind_Speed
21 20 21 22 21 21 19 11 9 10 10 9 9 10 10 12 13 15 15 13 13 10 3 4 6 13 10 3 5 2 5 11 17 15 23 14 14 9 5 5 10 5 7 13 26
21 21 21 23 22 23 22 17 11 8 8 8 8 9 10 11 16 17 12 10 7 6 4 7 6 4 4 6 5 6 5 13 7 11 13 15 12 8 3 9 15 8 14 20 19
19 19 20 21 19 24 26 16 11 8 7 7 7 9 10 11 6 5 9 12 7 5 6 8 7 4 5 5 6 6 8 13 14 12 13 12 8 2 3 8 16 14 19 13 9
20 20 21 22 20 20 24 13 8 7 7 6 7 8 10 6 3 10 10 6 6 7 9 10 5 3 5 7 9 11 12 15 16 16 15 12 12 6 9 15 14 8 17 14 11
19 19 19 21 21 20 19 8 5 4 6 5 5 6 6 2 7 9 5 5 4 6 9 7 9 7 5 4 3 10 15 15 17 16 19 16 18 20 21 24 19 24 17 11 12
22 19 17 19 20 21 19 17 7 5 6 4 3 3 2 5 5 8 5 7 7 10 3 3 1 3 6 5 5 5 9 15 17 17 7 14 19 7 20 22 20 20 16 13 12
23 22 18 16 19 20 19 16 10 5 6 5 2 2 4 12 8 4 5 8 12 9 3 5 1 2 3 6 8 10 12 11 10 12 9 8 20 23 30 20 17 16 13 13 12
24 22 20 15 17 20 20 14 10 7 4 4 2 2 5 10 5 9 9 11 12 6 9 6 2 2 4 7 5 4 3 2 3 12 7 9 23 16 10 5 9 9 13 13 11
25 23 20 17 16 19 20 10 8 7 3 3 2 4 6 7 5 11 10 4 10 11 10 5 3 4 3 2 3 3 4 5 11 10 8 12 11 12 8 4 7 9 9 8 8
25 23 20 16 14 16 14 3 3 2 3 4 3 1 5 1 2 1 6 5 3 3 1 3 3 1 2 2 3 5 7 8 11 6 16 10 20 20 16 9 7 7 7 6 7
26 23 19 14 13 13 12 3 3 2 4 6 7 4 4 7 4 4 5 8 4 3 5 5 2 6 7 9 15 14 12 15 16 9 5 17 19 19 14 7 4 8 7 10 13
24 21 15 11 11 12 6 1 3 1 2 14 9 9 14 2 2 4 4 3 5 6 4 3 7 10 10 8 10 8 11 12 7 6 5 9 16 16 7 5 5 8 7 9 11
18 17 10 5 8 4 0 1 7 4 0 2 5 5 3 5 3 4 1 3 5 4 7 3 6 5 6 7 9 6 5 7 14 10 9 6 8 8 1 4 5 9 2 14 15
17 9 4 1 3 1 1 6 3 3 2 2 1 1 2 1 2 3 1 1 3 4 5 5 4 7 7 8 9 5 3 12 14 10 4 4 4 8 15 4 6 7 6 11 11
20 13 5 1 4 4 6 5 1 2 4 1 2 2 1 2 2 1 1 2 3 3 4 7 4 3 4 5 7 7 7 11 8 9 4 4 3 9 7 12 13 5 4 5 14
24 16 8 7 2 3 5 3 1 2 3 2 2 1 1 2 1 2 1 2 3 3 3 7 4 3 2 8 8 12 9 10 3 1 2 4 3 9 14 9 13 11 8 1 7
21 14 8 3 1 6 5 2 2 5 4 1 2 3 5 2 2 2 2 1 3 5 4 6 3 3 3 6 6 14 5 3 3 3 4 4 10 8 17 9 9 13 15 5 5
17 17 19 3 4 7 7 1 6 5 3 1 2 3 2 2 0 1 2 3 6 5 2 4 7 6 6 3 4 5 3 3 4 1 3 8 5 6 13 10 6 14 15 8 4
13 21 15 14 6 4 2 4 4 2 4 1 1 0 2 1 2 1 5 4 3 6 4 5 4 5 5 2 3 7 3 1 3 1 3 4 8 6 18 17 13 13 14 12 12
8 5 16 14 9 4 2 9 4 5 6 3 2 1 3 1 1 1 4 6 7 7 4 4 2 5 4 8 8 4 4 4 4 4 4 3 4 7 13 11 12 13 11 9 10
4 3 12 12 9 2 3 5 4 4 5 6 6 6 5 3 5 4 6 3 7 7 6 5 3 6 6 5 5 6 5 4 4 3 4 1 4 12 11 9 8 9 8 8 10
3 4 10 14 4 2 3 2 6 8 6 5 5 6 5 8 6 4 3 4 9 4 3 3 3 2 1 4 4 4 5 3 3 4 3 2 3 8 13 9 8 10 10 9 7
2 1 6 6 4 4 4 3 3 6 6 6 6 6 5 5 4 4 4 3 8 5 2 4 3 3 7 7 7 5 6 4 2 2 2 1 1 7 9 13 11 9 9 10 11
2 3 4 3 1 1 3 5 4 4 4 5 4 3 3 4 5 3 2 3 3 2 6 3 3 5 5 6 3 4 6 6 4 4 2 2 3 7 9 10 11 13 11 8 9
5 2 1 1 4 4 3 3 5 5 5 7 5 8 4 4 3 3 2 1 4 5 3 4 3 3 2 3 2 4 3 4 3 4 4 3 1 5 7 6 7 8 11 12 12
2 3 4 3 3 4 4 4 4 3 5 5 5 6 8 4 2 2 4 4 1 4 3 4 0 2 4 2 4 2 5 4 3 3 2 2 3 4 6 7 9 10 9 9 10
4 4 3 4 4 2 1 2 3 2 2 4 3 1 5 2 2 2 4 4 2 2 2 3 3 3 3 2 4 5 4 3 1 2 4 2 3 3 3 6 6 7 7 8 7